GEFSSE_prec_meanprecacc_174.txt.gz
Total_Precipitation_Accumulation
0.01 0.05 0.20 0.25 0.22 0.21 0.23 0.23 0.21 0.20 0.21 0.23 0.23 0.23 0.23 0.23 0.22 0.21 0.21 0.22 0.21 0.24 0.28 0.31 0.32 0.32 0.29 0.29 0.31 0.32 0.29 0.27 0.23 0.19 0.21 0.24 0.23 0.19 0.16 0.15 0.12 0.19 0.24
0.02 0.05 0.17 0.20 0.20 0.22 0.23 0.21 0.18 0.16 0.17 0.18 0.17 0.17 0.17 0.18 0.18 0.19 0.20 0.20 0.21 0.23 0.26 0.27 0.26 0.25 0.24 0.26 0.33 0.32 0.26 0.20 0.17 0.14 0.13 0.13 0.18 0.20 0.19 0.19 0.17 0.24 0.24
0.02 0.04 0.12 0.17 0.19 0.22 0.22 0.18 0.16 0.14 0.13 0.13 0.13 0.13 0.13 0.14 0.14 0.15 0.17 0.20 0.24 0.26 0.25 0.24 0.22 0.22 0.25 0.30 0.29 0.29 0.28 0.20 0.12 0.11 0.10 0.15 0.21 0.23 0.23 0.20 0.18 0.21 0.23
0.01 0.03 0.07 0.15 0.18 0.21 0.19 0.17 0.15 0.13 0.12 0.12 0.11 0.11 0.12 0.13 0.12 0.13 0.15 0.20 0.24 0.31 0.35 0.31 0.25 0.26 0.31 0.33 0.25 0.24 0.29 0.25 0.14 0.08 0.05 0.15 0.30 0.36 0.29 0.26 0.20 0.21 0.23
0.00 0.02 0.07 0.15 0.18 0.20 0.19 0.18 0.16 0.13 0.13 0.12 0.11 0.11 0.11 0.11 0.10 0.10 0.11 0.15 0.21 0.26 0.31 0.32 0.29 0.30 0.30 0.27 0.21 0.22 0.34 0.36 0.21 0.05 0.05 0.09 0.23 0.49 0.32 0.29 0.25 0.23 0.23
0.01 0.02 0.07 0.15 0.20 0.21 0.20 0.20 0.18 0.15 0.13 0.13 0.12 0.13 0.12 0.11 0.10 0.08 0.08 0.09 0.11 0.16 0.22 0.25 0.26 0.29 0.32 0.30 0.24 0.28 0.42 0.49 0.24 0.08 0.09 0.12 0.23 0.46 0.36 0.32 0.30 0.27 0.25
0.01 0.03 0.07 0.16 0.22 0.22 0.21 0.22 0.21 0.18 0.16 0.14 0.15 0.15 0.15 0.13 0.11 0.09 0.09 0.09 0.07 0.08 0.13 0.19 0.24 0.27 0.32 0.32 0.31 0.40 0.52 0.51 0.25 0.23 0.15 0.13 0.25 0.44 0.44 0.39 0.35 0.31 0.28
0.01 0.04 0.09 0.20 0.23 0.22 0.22 0.24 0.23 0.22 0.20 0.18 0.18 0.18 0.17 0.14 0.13 0.13 0.13 0.12 0.09 0.08 0.09 0.10 0.15 0.22 0.26 0.27 0.33 0.45 0.51 0.34 0.13 0.10 0.08 0.10 0.23 0.44 0.63 0.58 0.45 0.37 0.33
0.02 0.05 0.10 0.17 0.22 0.23 0.23 0.24 0.24 0.24 0.23 0.20 0.21 0.19 0.16 0.12 0.13 0.15 0.16 0.13 0.11 0.11 0.10 0.08 0.09 0.12 0.15 0.19 0.26 0.29 0.27 0.19 0.09 0.13 0.10 0.15 0.24 0.52 0.80 0.77 0.59 0.44 0.38
0.04 0.07 0.10 0.15 0.18 0.21 0.23 0.24 0.23 0.24 0.24 0.22 0.22 0.18 0.13 0.11 0.11 0.12 0.11 0.10 0.10 0.12 0.11 0.09 0.09 0.09 0.09 0.10 0.13 0.16 0.13 0.11 0.06 0.12 0.18 0.19 0.20 0.50 0.86 0.86 0.73 0.58 0.49
0.07 0.10 0.13 0.17 0.20 0.21 0.21 0.21 0.23 0.25 0.25 0.22 0.20 0.16 0.11 0.08 0.07 0.07 0.06 0.06 0.08 0.10 0.09 0.10 0.10 0.09 0.07 0.04 0.05 0.07 0.06 0.04 0.09 0.16 0.19 0.16 0.22 0.51 0.86 0.92 0.83 0.70 0.63
0.07 0.10 0.14 0.18 0.20 0.22 0.20 0.22 0.24 0.22 0.21 0.18 0.16 0.13 0.12 0.10 0.07 0.06 0.06 0.07 0.09 0.10 0.09 0.12 0.12 0.08 0.07 0.06 0.09 0.09 0.04 0.03 0.08 0.09 0.10 0.11 0.24 0.53 0.83 0.94 0.93 0.82 0.78
0.04 0.08 0.12 0.18 0.22 0.24 0.22 0.22 0.22 0.20 0.20 0.18 0.16 0.16 0.19 0.19 0.15 0.14 0.14 0.14 0.12 0.11 0.15 0.17 0.18 0.16 0.18 0.19 0.21 0.16 0.10 0.07 0.06 0.06 0.05 0.07 0.16 0.38 0.68 0.89 0.98 0.98 0.97
0.07 0.09 0.11 0.17 0.23 0.24 0.23 0.23 0.20 0.18 0.16 0.17 0.17 0.17 0.19 0.20 0.20 0.19 0.19 0.19 0.17 0.16 0.18 0.23 0.25 0.23 0.21 0.20 0.23 0.21 0.20 0.16 0.10 0.08 0.06 0.06 0.09 0.17 0.34 0.59 0.82 0.99 1.07
0.08 0.10 0.12 0.16 0.23 0.25 0.25 0.24 0.23 0.17 0.14 0.12 0.12 0.12 0.11 0.12 0.14 0.14 0.13 0.11 0.12 0.13 0.14 0.16 0.17 0.19 0.20 0.19 0.19 0.21 0.23 0.22 0.18 0.15 0.12 0.11 0.09 0.11 0.17 0.30 0.52 0.84 1.04
0.07 0.09 0.12 0.15 0.21 0.27 0.26 0.25 0.24 0.21 0.15 0.11 0.10 0.08 0.06 0.06 0.06 0.04 0.04 0.03 0.03 0.04 0.05 0.05 0.05 0.06 0.09 0.13 0.14 0.14 0.15 0.17 0.21 0.23 0.22 0.21 0.13 0.11 0.14 0.22 0.34 0.57 0.86
0.07 0.10 0.12 0.16 0.21 0.26 0.27 0.26 0.25 0.24 0.21 0.15 0.09 0.07 0.05 0.03 0.03 0.03 0.02 0.02 0.01 0.01 0.01 0.02 0.02 0.02 0.03 0.07 0.10 0.12 0.10 0.12 0.16 0.23 0.25 0.26 0.23 0.19 0.17 0.20 0.27 0.39 0.62
0.08 0.10 0.13 0.15 0.20 0.24 0.27 0.29 0.25 0.25 0.23 0.20 0.12 0.09 0.06 0.04 0.02 0.03 0.03 0.03 0.02 0.02 0.02 0.03 0.03 0.04 0.06 0.07 0.11 0.15 0.14 0.13 0.15 0.21 0.27 0.27 0.27 0.24 0.21 0.20 0.26 0.37 0.51
0.08 0.10 0.13 0.14 0.18 0.22 0.26 0.29 0.30 0.26 0.24 0.22 0.17 0.12 0.08 0.05 0.03 0.03 0.04 0.04 0.04 0.05 0.05 0.05 0.04 0.07 0.09 0.11 0.15 0.17 0.19 0.18 0.16 0.19 0.24 0.30 0.32 0.30 0.31 0.24 0.23 0.32 0.45
0.07 0.10 0.13 0.14 0.17 0.21 0.27 0.29 0.31 0.30 0.25 0.22 0.21 0.15 0.11 0.08 0.05 0.04 0.04 0.04 0.04 0.05 0.06 0.07 0.08 0.10 0.11 0.13 0.14 0.15 0.20 0.24 0.24 0.23 0.29 0.40 0.40 0.34 0.34 0.34 0.29 0.24 0.28
0.09 0.12 0.13 0.15 0.18 0.19 0.24 0.29 0.26 0.26 0.24 0.21 0.18 0.19 0.14 0.10 0.08 0.06 0.06 0.05 0.05 0.07 0.07 0.07 0.07 0.07 0.07 0.08 0.11 0.12 0.14 0.17 0.18 0.19 0.24 0.38 0.51 0.54 0.49 0.48 0.47 0.39 0.30
0.10 0.11 0.12 0.14 0.16 0.16 0.17 0.21 0.21 0.19 0.18 0.20 0.19 0.16 0.16 0.11 0.09 0.07 0.05 0.04 0.04 0.04 0.03 0.03 0.04 0.05 0.04 0.03 0.08 0.14 0.10 0.09 0.13 0.14 0.13 0.22 0.34 0.43 0.47 0.50 0.55 0.57 0.48
0.11 0.11 0.11 0.14 0.14 0.14 0.16 0.20 0.23 0.24 0.21 0.20 0.21 0.16 0.12 0.11 0.09 0.07 0.05 0.04 0.03 0.02 0.03 0.03 0.03 0.06 0.07 0.05 0.07 0.22 0.30 0.19 0.11 0.06 0.08 0.13 0.16 0.20 0.25 0.32 0.41 0.47 0.54
0.11 0.13 0.13 0.16 0.16 0.14 0.16 0.20 0.20 0.21 0.20 0.16 0.15 0.14 0.11 0.09 0.07 0.07 0.06 0.04 0.03 0.03 0.04 0.04 0.04 0.06 0.10 0.11 0.08 0.11 0.20 0.25 0.30 0.16 0.04 0.03 0.03 0.05 0.07 0.12 0.21 0.28 0.37
0.10 0.13 0.14 0.16 0.18 0.16 0.16 0.17 0.18 0.16 0.17 0.16 0.15 0.14 0.12 0.08 0.06 0.05 0.05 0.05 0.04 0.04 0.05 0.05 0.06 0.08 0.11 0.15 0.16 0.14 0.14 0.13 0.19 0.29 0.14 0.03 0.04 0.04 0.04 0.06 0.08 0.13 0.21
0.09 0.13 0.14 0.16 0.19 0.21 0.18 0.17 0.15 0.15 0.14 0.17 0.18 0.18 0.15 0.10 0.07 0.05 0.04 0.05 0.05 0.05 0.05 0.07 0.08 0.10 0.11 0.14 0.17 0.20 0.24 0.26 0.21 0.28 0.24 0.08 0.04 0.03 0.04 0.05 0.05 0.07 0.13

GEFSSE_prec_meanprecacc_180.txt.gz
Total_Precipitation_Accumulation
0.01 0.05 0.21 0.26 0.23 0.22 0.24 0.24 0.22 0.21 0.22 0.23 0.23 0.24 0.23 0.23 0.22 0.22 0.22 0.22 0.22 0.24 0.29 0.32 0.33 0.32 0.30 0.29 0.32 0.32 0.30 0.28 0.23 0.20 0.22 0.25 0.24 0.20 0.16 0.15 0.12 0.20 0.26
0.02 0.05 0.17 0.20 0.21 0.23 0.25 0.22 0.19 0.17 0.18 0.18 0.17 0.17 0.18 0.18 0.19 0.20 0.20 0.20 0.22 0.24 0.27 0.28 0.27 0.26 0.24 0.26 0.34 0.33 0.27 0.21 0.17 0.15 0.13 0.13 0.19 0.21 0.20 0.19 0.18 0.25 0.26
0.02 0.04 0.12 0.18 0.20 0.24 0.23 0.20 0.17 0.15 0.14 0.14 0.14 0.14 0.14 0.15 0.15 0.16 0.17 0.20 0.25 0.27 0.26 0.25 0.23 0.23 0.26 0.31 0.30 0.30 0.28 0.21 0.13 0.11 0.10 0.15 0.22 0.24 0.24 0.22 0.20 0.23 0.24
0.01 0.03 0.07 0.16 0.19 0.23 0.22 0.19 0.17 0.15 0.14 0.13 0.12 0.12 0.13 0.14 0.13 0.14 0.16 0.21 0.25 0.31 0.36 0.32 0.26 0.26 0.31 0.33 0.25 0.25 0.29 0.25 0.14 0.08 0.05 0.15 0.31 0.37 0.31 0.28 0.22 0.22 0.25
0.01 0.02 0.07 0.16 0.20 0.23 0.22 0.22 0.20 0.18 0.15 0.14 0.12 0.12 0.13 0.12 0.12 0.11 0.12 0.16 0.22 0.27 0.31 0.32 0.30 0.31 0.30 0.27 0.22 0.22 0.35 0.36 0.21 0.05 0.05 0.09 0.24 0.51 0.34 0.31 0.27 0.24 0.24
0.01 0.02 0.08 0.16 0.22 0.23 0.24 0.25 0.24 0.22 0.19 0.17 0.15 0.15 0.15 0.14 0.12 0.10 0.10 0.10 0.12 0.17 0.23 0.25 0.26 0.29 0.32 0.30 0.25 0.28 0.42 0.49 0.24 0.08 0.10 0.12 0.24 0.48 0.37 0.33 0.31 0.27 0.25
0.01 0.03 0.08 0.17 0.24 0.25 0.25 0.27 0.27 0.26 0.26 0.23 0.21 0.20 0.18 0.16 0.14 0.11 0.12 0.11 0.08 0.09 0.14 0.19 0.24 0.27 0.32 0.32 0.32 0.40 0.52 0.51 0.25 0.23 0.15 0.13 0.26 0.45 0.45 0.40 0.36 0.31 0.29
0.02 0.04 0.11 0.22 0.26 0.26 0.26 0.29 0.30 0.30 0.32 0.31 0.28 0.26 0.22 0.18 0.17 0.16 0.16 0.14 0.11 0.09 0.09 0.11 0.16 0.22 0.26 0.27 0.33 0.45 0.51 0.34 0.13 0.10 0.08 0.10 0.24 0.46 0.65 0.59 0.46 0.38 0.34
0.03 0.06 0.11 0.20 0.25 0.27 0.28 0.30 0.31 0.33 0.33 0.34 0.33 0.29 0.24 0.18 0.17 0.19 0.20 0.16 0.14 0.12 0.11 0.09 0.10 0.12 0.15 0.19 0.26 0.29 0.27 0.19 0.09 0.13 0.10 0.15 0.25 0.53 0.82 0.78 0.59 0.45 0.38
0.05 0.08 0.13 0.19 0.24 0.27 0.30 0.32 0.31 0.33 0.34 0.35 0.36 0.33 0.25 0.19 0.17 0.17 0.14 0.13 0.13 0.13 0.12 0.09 0.09 0.09 0.09 0.10 0.14 0.16 0.13 0.11 0.06 0.12 0.19 0.20 0.21 0.51 0.87 0.87 0.74 0.58 0.49
0.10 0.13 0.16 0.22 0.26 0.27 0.27 0.29 0.33 0.34 0.34 0.33 0.34 0.31 0.27 0.21 0.15 0.13 0.09 0.08 0.11 0.12 0.11 0.11 0.11 0.09 0.07 0.05 0.05 0.07 0.06 0.04 0.09 0.16 0.19 0.17 0.22 0.51 0.87 0.92 0.83 0.71 0.63
0.11 0.13 0.18 0.23 0.26 0.29 0.27 0.30 0.34 0.32 0.31 0.28 0.26 0.26 0.24 0.21 0.16 0.11 0.09 0.09 0.11 0.11 0.11 0.13 0.13 0.08 0.07 0.06 0.09 0.09 0.04 0.03 0.08 0.09 0.10 0.11 0.25 0.53 0.83 0.94 0.93 0.82 0.78
0.11 0.12 0.15 0.22 0.28 0.31 0.29 0.29 0.31 0.30 0.30 0.28 0.26 0.28 0.31 0.30 0.24 0.20 0.18 0.17 0.14 0.12 0.16 0.18 0.19 0.16 0.18 0.19 0.21 0.16 0.10 0.07 0.06 0.06 0.05 0.07 0.16 0.38 0.69 0.89 0.98 0.98 0.98
0.15 0.15 0.15 0.22 0.30 0.33 0.31 0.31 0.28 0.27 0.27 0.27 0.26 0.27 0.31 0.31 0.29 0.25 0.23 0.20 0.18 0.17 0.19 0.23 0.25 0.23 0.21 0.20 0.23 0.21 0.20 0.16 0.10 0.08 0.06 0.07 0.09 0.17 0.34 0.59 0.82 0.99 1.07
0.16 0.17 0.17 0.21 0.29 0.34 0.35 0.35 0.32 0.27 0.24 0.22 0.22 0.22 0.21 0.23 0.24 0.21 0.16 0.13 0.13 0.14 0.15 0.16 0.17 0.20 0.20 0.19 0.19 0.21 0.23 0.22 0.18 0.15 0.12 0.11 0.09 0.11 0.18 0.31 0.53 0.84 1.04
0.16 0.18 0.19 0.21 0.28 0.35 0.35 0.36 0.34 0.31 0.25 0.23 0.21 0.20 0.17 0.16 0.16 0.13 0.08 0.05 0.04 0.04 0.05 0.05 0.05 0.06 0.09 0.13 0.14 0.14 0.15 0.17 0.21 0.23 0.22 0.21 0.14 0.12 0.14 0.22 0.34 0.57 0.86
0.15 0.20 0.21 0.24 0.29 0.34 0.37 0.37 0.36 0.34 0.32 0.28 0.23 0.21 0.18 0.16 0.14 0.12 0.07 0.04 0.02 0.02 0.02 0.02 0.02 0.02 0.03 0.07 0.10 0.12 0.10 0.12 0.16 0.23 0.25 0.26 0.23 0.19 0.17 0.20 0.27 0.39 0.62
0.16 0.22 0.24 0.25 0.30 0.34 0.38 0.41 0.37 0.36 0.33 0.31 0.27 0.25 0.22 0.18 0.15 0.13 0.11 0.06 0.03 0.02 0.02 0.03 0.03 0.04 0.06 0.07 0.11 0.15 0.14 0.13 0.15 0.21 0.27 0.27 0.27 0.24 0.21 0.20 0.26 0.37 0.51
0.15 0.22 0.26 0.24 0.27 0.33 0.38 0.44 0.44 0.39 0.37 0.34 0.31 0.29 0.26 0.24 0.19 0.15 0.13 0.09 0.06 0.05 0.05 0.05 0.05 0.07 0.09 0.11 0.15 0.17 0.19 0.18 0.16 0.19 0.24 0.30 0.32 0.30 0.31 0.24 0.23 0.32 0.45
0.13 0.21 0.27 0.26 0.27 0.33 0.42 0.47 0.50 0.46 0.41 0.37 0.34 0.32 0.31 0.29 0.26 0.21 0.16 0.13 0.09 0.07 0.07 0.07 0.08 0.10 0.11 0.13 0.14 0.15 0.20 0.24 0.24 0.23 0.29 0.40 0.41 0.34 0.34 0.34 0.29 0.24 0.28
0.16 0.21 0.26 0.27 0.29 0.34 0.39 0.45 0.44 0.45 0.41 0.38 0.33 0.34 0.33 0.33 0.32 0.29 0.24 0.18 0.13 0.11 0.09 0.07 0.07 0.07 0.07 0.08 0.11 0.12 0.14 0.17 0.18 0.19 0.24 0.38 0.51 0.54 0.49 0.48 0.47 0.39 0.30
0.17 0.20 0.23 0.26 0.25 0.27 0.30 0.35 0.37 0.37 0.37 0.38 0.34 0.31 0.34 0.33 0.33 0.33 0.29 0.22 0.15 0.11 0.07 0.04 0.04 0.05 0.04 0.03 0.08 0.14 0.10 0.09 0.13 0.14 0.13 0.22 0.34 0.43 0.47 0.50 0.55 0.57 0.48
0.18 0.20 0.22 0.27 0.23 0.25 0.29 0.35 0.40 0.43 0.44 0.43 0.40 0.32 0.30 0.31 0.30 0.28 0.26 0.24 0.19 0.13 0.09 0.06 0.04 0.06 0.07 0.05 0.07 0.22 0.30 0.19 0.11 0.06 0.08 0.13 0.16 0.20 0.25 0.32 0.41 0.47 0.54
0.18 0.22 0.23 0.29 0.31 0.27 0.32 0.34 0.34 0.36 0.39 0.36 0.34 0.31 0.29 0.30 0.29 0.26 0.23 0.22 0.20 0.17 0.13 0.10 0.07 0.07 0.10 0.11 0.08 0.11 0.20 0.25 0.30 0.16 0.04 0.03 0.03 0.05 0.07 0.12 0.21 0.28 0.37
0.18 0.22 0.26 0.29 0.34 0.34 0.34 0.34 0.30 0.29 0.31 0.34 0.35 0.32 0.28 0.30 0.30 0.26 0.21 0.18 0.18 0.17 0.14 0.13 0.12 0.11 0.12 0.15 0.16 0.14 0.14 0.13 0.19 0.30 0.14 0.03 0.04 0.04 0.04 0.06 0.08 0.13 0.21
0.16 0.20 0.23 0.28 0.32 0.38 0.38 0.37 0.30 0.27 0.27 0.34 0.37 0.37 0.30 0.30 0.32 0.29 0.22 0.16 0.15 0.16 0.15 0.14 0.13 0.14 0.14 0.15 0.17 0.20 0.24 0.26 0.21 0.28 0.24 0.08 0.04 0.03 0.04 0.05 0.05 0.07 0.13

GEFSSE_prec_meanprecacc_186.txt.gz
Total_Precipitation_Accumulation
0.02 0.05 0.22 0.27 0.25 0.24 0.26 0.26 0.24 0.22 0.23 0.24 0.25 0.25 0.25 0.25 0.24 0.23 0.23 0.23 0.23 0.25 0.30 0.33 0.35 0.34 0.31 0.30 0.33 0.33 0.31 0.30 0.25 0.21 0.23 0.26 0.24 0.21 0.18 0.16 0.13 0.22 0.28
0.02 0.05 0.18 0.22 0.23 0.25 0.27 0.24 0.21 0.18 0.19 0.20 0.20 0.20 0.20 0.20 0.20 0.21 0.21 0.22 0.23 0.25 0.29 0.30 0.29 0.27 0.25 0.27 0.34 0.34 0.28 0.22 0.18 0.15 0.14 0.14 0.20 0.23 0.21 0.20 0.19 0.27 0.28
0.02 0.05 0.13 0.20 0.22 0.26 0.26 0.22 0.19 0.17 0.16 0.16 0.16 0.17 0.17 0.18 0.18 0.17 0.19 0.22 0.26 0.28 0.27 0.26 0.24 0.24 0.26 0.31 0.30 0.30 0.29 0.21 0.13 0.12 0.10 0.15 0.23 0.26 0.26 0.23 0.22 0.25 0.26
0.01 0.03 0.08 0.18 0.22 0.26 0.26 0.24 0.21 0.18 0.17 0.16 0.15 0.15 0.16 0.17 0.17 0.17 0.18 0.23 0.27 0.33 0.37 0.33 0.27 0.27 0.32 0.33 0.26 0.25 0.30 0.25 0.14 0.08 0.05 0.15 0.32 0.40 0.33 0.30 0.24 0.23 0.26
0.01 0.02 0.08 0.18 0.22 0.26 0.26 0.27 0.26 0.24 0.21 0.19 0.17 0.16 0.17 0.16 0.16 0.16 0.16 0.19 0.24 0.29 0.32 0.33 0.30 0.31 0.31 0.28 0.22 0.23 0.35 0.36 0.21 0.05 0.05 0.09 0.25 0.54 0.36 0.32 0.28 0.25 0.25
0.01 0.03 0.09 0.18 0.25 0.27 0.27 0.30 0.29 0.29 0.27 0.25 0.23 0.21 0.21 0.19 0.18 0.16 0.15 0.15 0.15 0.19 0.24 0.26 0.27 0.30 0.33 0.30 0.25 0.28 0.42 0.50 0.24 0.08 0.10 0.12 0.25 0.50 0.39 0.35 0.32 0.28 0.26
0.02 0.04 0.09 0.20 0.28 0.29 0.30 0.32 0.32 0.33 0.35 0.33 0.32 0.29 0.26 0.23 0.21 0.18 0.18 0.17 0.12 0.12 0.16 0.20 0.24 0.28 0.32 0.33 0.32 0.40 0.52 0.51 0.25 0.23 0.15 0.13 0.27 0.46 0.47 0.41 0.37 0.32 0.29
0.02 0.05 0.12 0.25 0.30 0.30 0.31 0.34 0.36 0.37 0.41 0.42 0.40 0.36 0.31 0.27 0.25 0.24 0.24 0.21 0.16 0.12 0.12 0.13 0.17 0.23 0.26 0.27 0.33 0.46 0.51 0.34 0.13 0.10 0.09 0.11 0.25 0.48 0.67 0.61 0.46 0.38 0.34
0.03 0.07 0.13 0.24 0.31 0.33 0.34 0.36 0.37 0.40 0.43 0.44 0.45 0.42 0.36 0.29 0.27 0.28 0.28 0.23 0.20 0.17 0.15 0.11 0.11 0.13 0.16 0.19 0.26 0.29 0.27 0.19 0.09 0.13 0.10 0.15 0.26 0.56 0.84 0.79 0.60 0.45 0.39
0.07 0.11 0.16 0.24 0.30 0.33 0.37 0.40 0.39 0.41 0.43 0.44 0.46 0.45 0.38 0.32 0.29 0.28 0.25 0.21 0.20 0.20 0.18 0.12 0.11 0.11 0.10 0.11 0.14 0.16 0.13 0.11 0.06 0.12 0.19 0.20 0.22 0.53 0.88 0.87 0.74 0.58 0.49
0.13 0.17 0.20 0.27 0.32 0.34 0.36 0.39 0.42 0.43 0.43 0.42 0.43 0.41 0.40 0.37 0.33 0.29 0.23 0.19 0.19 0.19 0.16 0.15 0.13 0.11 0.08 0.05 0.05 0.08 0.06 0.04 0.09 0.16 0.19 0.17 0.24 0.53 0.88 0.93 0.83 0.71 0.63
0.16 0.19 0.23 0.29 0.34 0.38 0.36 0.39 0.43 0.41 0.39 0.37 0.35 0.35 0.35 0.34 0.32 0.28 0.25 0.22 0.22 0.21 0.18 0.18 0.15 0.10 0.08 0.07 0.09 0.09 0.04 0.03 0.08 0.09 0.10 0.11 0.25 0.54 0.84 0.95 0.93 0.83 0.78
0.17 0.19 0.24 0.31 0.38 0.40 0.38 0.38 0.40 0.38 0.38 0.37 0.34 0.36 0.41 0.41 0.38 0.36 0.33 0.30 0.26 0.23 0.25 0.26 0.24 0.18 0.19 0.20 0.21 0.16 0.10 0.07 0.06 0.06 0.05 0.07 0.17 0.39 0.69 0.89 0.99 0.98 0.98
0.21 0.22 0.25 0.32 0.41 0.43 0.41 0.40 0.38 0.35 0.34 0.34 0.34 0.35 0.40 0.42 0.39 0.36 0.35 0.32 0.30 0.28 0.28 0.30 0.30 0.26 0.22 0.20 0.24 0.21 0.20 0.16 0.10 0.08 0.06 0.07 0.09 0.18 0.35 0.60 0.83 1.00 1.07
0.21 0.24 0.26 0.31 0.40 0.45 0.45 0.43 0.41 0.35 0.31 0.30 0.30 0.30 0.28 0.31 0.33 0.30 0.26 0.22 0.22 0.23 0.23 0.23 0.22 0.23 0.21 0.19 0.20 0.21 0.23 0.22 0.18 0.15 0.12 0.11 0.09 0.11 0.18 0.31 0.53 0.85 1.05
0.21 0.24 0.28 0.32 0.39 0.47 0.45 0.45 0.44 0.41 0.33 0.30 0.29 0.27 0.25 0.24 0.24 0.22 0.18 0.14 0.13 0.13 0.13 0.13 0.11 0.11 0.11 0.14 0.14 0.15 0.15 0.17 0.21 0.23 0.22 0.21 0.14 0.12 0.15 0.23 0.35 0.58 0.87
0.21 0.26 0.30 0.35 0.41 0.47 0.48 0.47 0.47 0.46 0.41 0.35 0.29 0.27 0.25 0.24 0.23 0.22 0.18 0.13 0.11 0.10 0.11 0.10 0.09 0.08 0.07 0.08 0.11 0.12 0.10 0.12 0.16 0.23 0.25 0.26 0.23 0.19 0.17 0.21 0.28 0.40 0.63
0.22 0.28 0.32 0.35 0.43 0.47 0.52 0.52 0.48 0.49 0.44 0.39 0.34 0.31 0.28 0.25 0.24 0.24 0.21 0.17 0.13 0.11 0.11 0.12 0.11 0.10 0.09 0.09 0.11 0.15 0.14 0.13 0.15 0.21 0.27 0.27 0.27 0.24 0.21 0.21 0.27 0.38 0.52
0.23 0.29 0.33 0.34 0.39 0.47 0.53 0.57 0.55 0.50 0.49 0.42 0.39 0.36 0.32 0.31 0.27 0.26 0.26 0.21 0.17 0.17 0.15 0.14 0.13 0.13 0.14 0.13 0.16 0.18 0.20 0.18 0.16 0.19 0.24 0.30 0.32 0.30 0.31 0.24 0.24 0.32 0.45
0.22 0.31 0.36 0.35 0.40 0.49 0.60 0.63 0.63 0.57 0.52 0.47 0.45 0.42 0.39 0.37 0.34 0.30 0.28 0.26 0.21 0.20 0.19 0.17 0.16 0.17 0.17 0.16 0.16 0.16 0.21 0.24 0.25 0.23 0.29 0.40 0.41 0.34 0.34 0.34 0.29 0.24 0.28
0.24 0.31 0.36 0.36 0.41 0.50 0.56 0.62 0.58 0.55 0.51 0.48 0.42 0.45 0.44 0.42 0.40 0.38 0.34 0.30 0.27 0.24 0.21 0.19 0.18 0.16 0.14 0.13 0.15 0.13 0.15 0.18 0.18 0.19 0.25 0.38 0.51 0.54 0.49 0.48 0.47 0.39 0.30
0.23 0.28 0.33 0.35 0.36 0.42 0.44 0.49 0.51 0.48 0.46 0.47 0.42 0.41 0.46 0.44 0.42 0.42 0.39 0.34 0.27 0.24 0.21 0.18 0.17 0.17 0.13 0.09 0.11 0.15 0.12 0.10 0.14 0.14 0.13 0.22 0.34 0.43 0.47 0.50 0.55 0.57 0.48
0.23 0.27 0.30 0.37 0.34 0.37 0.42 0.52 0.55 0.55 0.54 0.53 0.49 0.42 0.41 0.42 0.41 0.38 0.36 0.35 0.31 0.25 0.22 0.19 0.17 0.18 0.18 0.12 0.11 0.24 0.31 0.20 0.12 0.06 0.08 0.13 0.16 0.20 0.25 0.32 0.41 0.47 0.54
0.22 0.29 0.31 0.38 0.42 0.38 0.44 0.51 0.48 0.47 0.49 0.45 0.43 0.40 0.40 0.42 0.40 0.38 0.35 0.32 0.30 0.29 0.26 0.23 0.21 0.18 0.20 0.20 0.14 0.14 0.21 0.25 0.30 0.16 0.04 0.03 0.03 0.05 0.07 0.12 0.21 0.28 0.37
0.23 0.29 0.34 0.38 0.45 0.46 0.45 0.47 0.45 0.39 0.40 0.44 0.47 0.47 0.44 0.45 0.45 0.40 0.35 0.32 0.29 0.27 0.26 0.26 0.26 0.25 0.25 0.25 0.23 0.19 0.16 0.14 0.19 0.30 0.14 0.04 0.04 0.04 0.04 0.06 0.08 0.13 0.21
0.22 0.28 0.32 0.37 0.42 0.50 0.51 0.50 0.45 0.40 0.38 0.44 0.49 0.54 0.52 0.53 0.52 0.47 0.40 0.34 0.28 0.26 0.25 0.26 0.27 0.28 0.28 0.26 0.25 0.25 0.27 0.28 0.22 0.28 0.25 0.08 0.04 0.03 0.04 0.05 0.05 0.07 0.13

GEFSSE_prec_meanprecacc_192.txt.gz
Total_Precipitation_Accumulation
0.02 0.05 0.22 0.28 0.26 0.25 0.28 0.28 0.25 0.23 0.25 0.27 0.28 0.29 0.29 0.28 0.26 0.25 0.25 0.24 0.24 0.27 0.33 0.36 0.38 0.36 0.32 0.31 0.33 0.34 0.32 0.31 0.26 0.22 0.23 0.26 0.25 0.22 0.18 0.17 0.14 0.23 0.30
0.02 0.05 0.18 0.23 0.24 0.26 0.28 0.26 0.23 0.20 0.22 0.24 0.24 0.25 0.25 0.24 0.24 0.25 0.24 0.24 0.25 0.28 0.32 0.34 0.33 0.29 0.26 0.28 0.35 0.35 0.29 0.23 0.18 0.15 0.14 0.15 0.22 0.24 0.22 0.21 0.20 0.29 0.29
0.02 0.05 0.13 0.20 0.23 0.28 0.28 0.25 0.22 0.20 0.20 0.21 0.22 0.24 0.24 0.23 0.22 0.22 0.23 0.25 0.29 0.33 0.33 0.31 0.28 0.26 0.27 0.32 0.31 0.32 0.29 0.22 0.13 0.12 0.11 0.16 0.24 0.28 0.27 0.25 0.23 0.26 0.26
0.01 0.03 0.08 0.18 0.23 0.28 0.28 0.26 0.24 0.21 0.22 0.22 0.22 0.23 0.25 0.25 0.23 0.21 0.22 0.28 0.32 0.38 0.43 0.38 0.30 0.29 0.33 0.34 0.26 0.26 0.30 0.25 0.14 0.08 0.06 0.16 0.33 0.41 0.34 0.31 0.25 0.24 0.26
0.01 0.02 0.08 0.18 0.24 0.28 0.29 0.30 0.29 0.28 0.26 0.25 0.24 0.23 0.24 0.24 0.24 0.22 0.21 0.25 0.30 0.36 0.39 0.39 0.34 0.34 0.32 0.29 0.23 0.23 0.35 0.36 0.21 0.05 0.05 0.10 0.26 0.55 0.37 0.33 0.28 0.26 0.25
0.01 0.03 0.09 0.19 0.27 0.29 0.30 0.33 0.33 0.33 0.32 0.32 0.30 0.29 0.28 0.27 0.26 0.23 0.21 0.21 0.21 0.26 0.32 0.33 0.33 0.33 0.35 0.32 0.26 0.29 0.43 0.50 0.25 0.09 0.10 0.13 0.26 0.52 0.40 0.36 0.32 0.29 0.27
0.02 0.04 0.10 0.22 0.30 0.32 0.33 0.35 0.36 0.37 0.40 0.40 0.39 0.37 0.34 0.32 0.30 0.26 0.25 0.23 0.18 0.19 0.23 0.27 0.30 0.32 0.35 0.34 0.33 0.41 0.53 0.51 0.25 0.24 0.16 0.14 0.28 0.48 0.48 0.42 0.37 0.33 0.30
0.02 0.05 0.13 0.27 0.34 0.35 0.35 0.38 0.40 0.41 0.45 0.47 0.46 0.44 0.40 0.37 0.34 0.33 0.33 0.29 0.23 0.18 0.18 0.20 0.22 0.28 0.30 0.29 0.34 0.46 0.52 0.34 0.13 0.10 0.09 0.12 0.26 0.49 0.69 0.62 0.47 0.39 0.35
0.04 0.07 0.14 0.26 0.35 0.39 0.40 0.41 0.42 0.45 0.47 0.49 0.50 0.48 0.44 0.37 0.36 0.37 0.38 0.32 0.28 0.24 0.20 0.18 0.17 0.18 0.20 0.22 0.27 0.30 0.28 0.19 0.09 0.14 0.10 0.16 0.27 0.57 0.86 0.80 0.61 0.46 0.39
0.07 0.11 0.17 0.27 0.35 0.39 0.43 0.46 0.44 0.46 0.48 0.49 0.52 0.51 0.46 0.40 0.38 0.36 0.33 0.30 0.29 0.28 0.25 0.19 0.17 0.16 0.14 0.14 0.16 0.17 0.14 0.11 0.06 0.12 0.19 0.21 0.23 0.55 0.90 0.89 0.75 0.60 0.50
0.15 0.18 0.22 0.31 0.39 0.42 0.43 0.46 0.48 0.49 0.49 0.49 0.50 0.49 0.49 0.44 0.40 0.37 0.33 0.29 0.29 0.29 0.25 0.22 0.19 0.17 0.13 0.09 0.08 0.09 0.07 0.04 0.09 0.16 0.19 0.18 0.24 0.55 0.90 0.95 0.84 0.72 0.64
0.18 0.21 0.26 0.34 0.40 0.46 0.46 0.49 0.51 0.47 0.46 0.44 0.41 0.42 0.43 0.43 0.39 0.35 0.33 0.32 0.33 0.32 0.29 0.28 0.24 0.18 0.14 0.12 0.13 0.12 0.04 0.03 0.08 0.09 0.11 0.12 0.27 0.56 0.86 0.96 0.94 0.83 0.79
0.18 0.22 0.27 0.35 0.44 0.49 0.49 0.48 0.48 0.45 0.44 0.43 0.40 0.43 0.48 0.49 0.45 0.43 0.39 0.37 0.36 0.34 0.37 0.39 0.37 0.29 0.27 0.26 0.26 0.20 0.12 0.08 0.06 0.06 0.05 0.08 0.18 0.40 0.70 0.90 1.00 0.99 0.98
0.24 0.26 0.29 0.38 0.48 0.52 0.53 0.51 0.47 0.41 0.39 0.40 0.39 0.42 0.47 0.49 0.46 0.42 0.40 0.37 0.37 0.37 0.38 0.42 0.43 0.38 0.33 0.28 0.29 0.26 0.23 0.18 0.11 0.08 0.06 0.07 0.10 0.18 0.36 0.61 0.84 1.01 1.08
0.24 0.28 0.31 0.37 0.47 0.53 0.58 0.58 0.51 0.42 0.36 0.35 0.36 0.35 0.35 0.38 0.40 0.36 0.31 0.27 0.27 0.29 0.31 0.32 0.32 0.34 0.33 0.30 0.27 0.26 0.26 0.24 0.19 0.15 0.12 0.11 0.09 0.12 0.19 0.32 0.54 0.86 1.07
0.23 0.28 0.33 0.38 0.46 0.56 0.58 0.62 0.57 0.49 0.39 0.37 0.36 0.33 0.31 0.31 0.31 0.29 0.24 0.19 0.17 0.17 0.18 0.18 0.17 0.18 0.20 0.24 0.23 0.21 0.19 0.19 0.22 0.23 0.22 0.21 0.14 0.12 0.16 0.24 0.37 0.59 0.89
0.23 0.30 0.35 0.41 0.48 0.56 0.60 0.63 0.63 0.57 0.50 0.43 0.38 0.36 0.31 0.30 0.30 0.29 0.24 0.19 0.15 0.14 0.15 0.15 0.13 0.13 0.14 0.16 0.18 0.18 0.16 0.16 0.19 0.24 0.26 0.26 0.23 0.19 0.18 0.22 0.30 0.42 0.65
0.25 0.32 0.39 0.42 0.50 0.57 0.65 0.68 0.64 0.62 0.54 0.48 0.43 0.40 0.36 0.32 0.32 0.32 0.29 0.23 0.18 0.16 0.15 0.16 0.15 0.15 0.15 0.15 0.18 0.22 0.20 0.19 0.20 0.24 0.28 0.27 0.27 0.25 0.21 0.21 0.28 0.39 0.54
0.26 0.33 0.39 0.42 0.47 0.56 0.66 0.76 0.76 0.67 0.60 0.53 0.48 0.44 0.41 0.38 0.33 0.32 0.32 0.29 0.26 0.24 0.21 0.18 0.17 0.17 0.18 0.19 0.22 0.24 0.26 0.24 0.21 0.23 0.27 0.32 0.33 0.30 0.31 0.24 0.24 0.32 0.46
0.25 0.34 0.41 0.43 0.48 0.58 0.71 0.79 0.86 0.78 0.65 0.58 0.56 0.50 0.47 0.45 0.41 0.36 0.34 0.32 0.31 0.30 0.28 0.24 0.21 0.21 0.21 0.21 0.22 0.23 0.26 0.29 0.30 0.28 0.32 0.42 0.42 0.34 0.34 0.34 0.30 0.24 0.28
0.27 0.36 0.41 0.44 0.50 0.60 0.67 0.76 0.77 0.77 0.67 0.58 0.52 0.54 0.52 0.50 0.48 0.45 0.40 0.35 0.34 0.34 0.32 0.28 0.25 0.22 0.19 0.18 0.22 0.22 0.23 0.24 0.23 0.24 0.28 0.41 0.53 0.55 0.49 0.48 0.48 0.40 0.30
0.27 0.35 0.42 0.44 0.47 0.52 0.54 0.61 0.67 0.66 0.62 0.61 0.54 0.50 0.53 0.51 0.49 0.48 0.46 0.39 0.32 0.31 0.30 0.28 0.26 0.25 0.21 0.15 0.17 0.23 0.20 0.18 0.20 0.19 0.17 0.25 0.36 0.45 0.47 0.50 0.55 0.57 0.48
0.25 0.32 0.38 0.45 0.44 0.49 0.53 0.62 0.69 0.71 0.67 0.66 0.63 0.53 0.49 0.49 0.48 0.44 0.42 0.39 0.35 0.30 0.29 0.28 0.25 0.26 0.26 0.20 0.18 0.31 0.38 0.25 0.16 0.10 0.11 0.16 0.19 0.22 0.26 0.33 0.41 0.47 0.54
0.23 0.31 0.37 0.46 0.51 0.49 0.55 0.61 0.60 0.60 0.60 0.54 0.53 0.51 0.49 0.48 0.46 0.44 0.40 0.37 0.35 0.33 0.31 0.29 0.28 0.25 0.27 0.28 0.23 0.23 0.28 0.30 0.33 0.19 0.06 0.06 0.06 0.07 0.08 0.13 0.21 0.28 0.37
0.23 0.30 0.38 0.44 0.54 0.54 0.54 0.56 0.55 0.51 0.51 0.52 0.54 0.56 0.54 0.54 0.53 0.47 0.42 0.38 0.34 0.31 0.31 0.31 0.32 0.32 0.31 0.32 0.30 0.26 0.23 0.20 0.24 0.34 0.17 0.06 0.06 0.06 0.06 0.07 0.09 0.13 0.21
0.23 0.29 0.34 0.42 0.50 0.57 0.57 0.58 0.55 0.50 0.48 0.54 0.58 0.63 0.61 0.63 0.63 0.57 0.49 0.41 0.36 0.31 0.29 0.30 0.32 0.34 0.34 0.33 0.31 0.30 0.33 0.33 0.27 0.32 0.29 0.11 0.06 0.05 0.06 0.06 0.06 0.07 0.13

GEFSSE_prec_meanprecacc_198.txt.gz
Total_Precipitation_Accumulation
0.02 0.05 0.22 0.28 0.27 0.27 0.29 0.29 0.27 0.25 0.28 0.31 0.33 0.34 0.32 0.30 0.29 0.28 0.28 0.27 0.27 0.30 0.36 0.39 0.42 0.41 0.36 0.33 0.35 0.35 0.33 0.32 0.27 0.23 0.24 0.27 0.26 0.22 0.19 0.18 0.16 0.25 0.31
0.02 0.06 0.18 0.23 0.25 0.28 0.30 0.28 0.24 0.22 0.25 0.28 0.29 0.30 0.29 0.28 0.28 0.28 0.28 0.28 0.29 0.31 0.35 0.38 0.38 0.36 0.31 0.32 0.38 0.36 0.30 0.23 0.19 0.16 0.15 0.15 0.22 0.24 0.23 0.23 0.22 0.30 0.30
0.02 0.05 0.14 0.21 0.24 0.29 0.29 0.26 0.23 0.21 0.22 0.25 0.27 0.31 0.30 0.28 0.27 0.27 0.28 0.30 0.34 0.38 0.38 0.38 0.36 0.32 0.33 0.37 0.35 0.34 0.30 0.22 0.13 0.12 0.11 0.17 0.25 0.29 0.28 0.26 0.24 0.27 0.27
0.01 0.03 0.08 0.19 0.23 0.29 0.30 0.28 0.25 0.23 0.24 0.25 0.26 0.28 0.31 0.33 0.31 0.29 0.28 0.33 0.38 0.44 0.49 0.44 0.37 0.37 0.38 0.39 0.31 0.29 0.31 0.26 0.14 0.09 0.06 0.17 0.34 0.42 0.35 0.31 0.26 0.25 0.28
0.01 0.03 0.09 0.19 0.24 0.29 0.31 0.32 0.31 0.30 0.28 0.28 0.28 0.27 0.28 0.30 0.31 0.30 0.30 0.33 0.37 0.41 0.44 0.44 0.41 0.41 0.38 0.34 0.28 0.27 0.37 0.37 0.21 0.06 0.06 0.10 0.27 0.56 0.38 0.34 0.29 0.27 0.26
0.01 0.03 0.09 0.19 0.27 0.31 0.34 0.38 0.37 0.36 0.36 0.36 0.34 0.32 0.31 0.31 0.31 0.30 0.31 0.30 0.29 0.32 0.36 0.38 0.39 0.40 0.40 0.36 0.29 0.31 0.44 0.51 0.25 0.09 0.10 0.13 0.26 0.53 0.41 0.36 0.33 0.30 0.28
0.02 0.04 0.10 0.22 0.31 0.34 0.37 0.40 0.41 0.42 0.45 0.45 0.44 0.42 0.38 0.36 0.34 0.33 0.35 0.31 0.25 0.25 0.29 0.33 0.36 0.38 0.41 0.39 0.36 0.43 0.54 0.52 0.26 0.24 0.16 0.14 0.29 0.48 0.49 0.43 0.38 0.33 0.31
0.02 0.05 0.13 0.28 0.35 0.37 0.38 0.43 0.45 0.46 0.51 0.51 0.51 0.49 0.44 0.40 0.39 0.40 0.42 0.38 0.31 0.25 0.24 0.25 0.27 0.33 0.36 0.34 0.38 0.48 0.53 0.35 0.14 0.11 0.10 0.12 0.27 0.50 0.69 0.63 0.48 0.40 0.36
0.04 0.08 0.14 0.27 0.37 0.41 0.44 0.46 0.48 0.51 0.53 0.54 0.54 0.54 0.50 0.42 0.41 0.43 0.45 0.40 0.36 0.31 0.26 0.23 0.22 0.24 0.25 0.27 0.32 0.34 0.31 0.21 0.10 0.14 0.11 0.16 0.28 0.58 0.86 0.82 0.62 0.47 0.40
0.08 0.12 0.17 0.27 0.36 0.41 0.46 0.51 0.51 0.53 0.54 0.55 0.56 0.56 0.51 0.44 0.42 0.41 0.39 0.37 0.36 0.37 0.33 0.26 0.23 0.22 0.19 0.18 0.20 0.21 0.17 0.13 0.07 0.13 0.19 0.21 0.24 0.56 0.91 0.90 0.77 0.60 0.50
0.16 0.19 0.23 0.32 0.40 0.44 0.47 0.51 0.54 0.56 0.56 0.55 0.55 0.53 0.53 0.48 0.44 0.42 0.38 0.36 0.36 0.36 0.32 0.28 0.25 0.22 0.18 0.14 0.13 0.13 0.10 0.06 0.10 0.17 0.20 0.18 0.25 0.56 0.91 0.96 0.86 0.73 0.64
0.19 0.22 0.27 0.35 0.41 0.48 0.49 0.54 0.58 0.54 0.52 0.50 0.46 0.46 0.47 0.47 0.43 0.39 0.37 0.38 0.40 0.39 0.36 0.33 0.29 0.23 0.19 0.16 0.17 0.17 0.08 0.05 0.10 0.10 0.11 0.12 0.27 0.57 0.87 0.98 0.95 0.84 0.79
0.19 0.24 0.29 0.37 0.46 0.51 0.51 0.53 0.55 0.51 0.50 0.49 0.46 0.49 0.52 0.53 0.49 0.47 0.44 0.43 0.42 0.42 0.45 0.46 0.44 0.35 0.33 0.32 0.32 0.25 0.16 0.12 0.09 0.08 0.06 0.08 0.18 0.42 0.72 0.92 1.01 1.00 0.99
0.24 0.27 0.31 0.39 0.49 0.54 0.55 0.55 0.54 0.49 0.46 0.46 0.44 0.48 0.54 0.54 0.50 0.47 0.46 0.43 0.42 0.43 0.44 0.48 0.49 0.43 0.38 0.33 0.33 0.30 0.27 0.22 0.15 0.12 0.08 0.08 0.11 0.20 0.38 0.62 0.85 1.02 1.09
0.24 0.29 0.33 0.38 0.48 0.55 0.60 0.61 0.59 0.51 0.45 0.42 0.41 0.41 0.42 0.44 0.45 0.41 0.37 0.34 0.34 0.35 0.36 0.36 0.36 0.38 0.37 0.34 0.31 0.29 0.30 0.27 0.22 0.18 0.15 0.13 0.11 0.13 0.21 0.34 0.56 0.87 1.08
0.24 0.28 0.34 0.40 0.47 0.57 0.60 0.64 0.64 0.60 0.52 0.47 0.42 0.38 0.37 0.38 0.37 0.34 0.30 0.27 0.25 0.24 0.24 0.23 0.21 0.22 0.23 0.27 0.26 0.25 0.24 0.24 0.26 0.26 0.24 0.23 0.16 0.14 0.17 0.26 0.39 0.61 0.91
0.23 0.31 0.36 0.43 0.49 0.58 0.62 0.66 0.69 0.70 0.67 0.59 0.48 0.42 0.37 0.37 0.38 0.35 0.30 0.27 0.23 0.22 0.23 0.22 0.19 0.17 0.17 0.19 0.21 0.21 0.19 0.19 0.23 0.28 0.30 0.29 0.25 0.20 0.19 0.24 0.32 0.44 0.68
0.25 0.32 0.39 0.44 0.52 0.58 0.67 0.72 0.71 0.75 0.71 0.66 0.58 0.51 0.43 0.39 0.38 0.38 0.36 0.31 0.27 0.26 0.27 0.28 0.24 0.21 0.20 0.18 0.20 0.24 0.23 0.21 0.22 0.27 0.31 0.30 0.29 0.26 0.22 0.22 0.30 0.41 0.57
0.27 0.33 0.41 0.44 0.50 0.58 0.68 0.79 0.82 0.80 0.77 0.71 0.65 0.59 0.52 0.47 0.41 0.38 0.39 0.37 0.34 0.32 0.30 0.31 0.28 0.26 0.25 0.24 0.26 0.27 0.28 0.26 0.24 0.26 0.30 0.34 0.35 0.32 0.32 0.25 0.25 0.34 0.48
0.27 0.35 0.42 0.46 0.52 0.63 0.75 0.83 0.94 0.91 0.82 0.75 0.72 0.66 0.61 0.55 0.49 0.43 0.40 0.39 0.39 0.39 0.37 0.34 0.33 0.32 0.30 0.27 0.27 0.27 0.29 0.32 0.32 0.30 0.35 0.44 0.44 0.37 0.36 0.36 0.30 0.25 0.29
0.29 0.37 0.43 0.48 0.56 0.67 0.74 0.81 0.83 0.89 0.85 0.75 0.67 0.69 0.67 0.62 0.55 0.51 0.47 0.42 0.43 0.42 0.40 0.36 0.33 0.33 0.30 0.28 0.29 0.29 0.28 0.28 0.26 0.26 0.30 0.42 0.55 0.57 0.51 0.51 0.49 0.41 0.31
0.28 0.36 0.44 0.47 0.52 0.59 0.60 0.66 0.74 0.75 0.77 0.77 0.69 0.66 0.69 0.66 0.59 0.55 0.53 0.46 0.41 0.40 0.38 0.37 0.34 0.32 0.29 0.25 0.26 0.30 0.27 0.25 0.26 0.21 0.19 0.27 0.38 0.46 0.49 0.52 0.57 0.59 0.50
0.27 0.34 0.40 0.47 0.48 0.55 0.60 0.69 0.78 0.82 0.80 0.81 0.78 0.71 0.67 0.65 0.61 0.55 0.50 0.48 0.44 0.40 0.37 0.35 0.33 0.33 0.33 0.28 0.25 0.37 0.43 0.30 0.20 0.13 0.13 0.17 0.20 0.24 0.28 0.34 0.43 0.48 0.55
0.25 0.33 0.39 0.48 0.55 0.55 0.63 0.71 0.69 0.70 0.72 0.65 0.63 0.64 0.67 0.67 0.61 0.56 0.52 0.47 0.45 0.44 0.41 0.36 0.33 0.32 0.34 0.35 0.30 0.29 0.33 0.33 0.36 0.21 0.08 0.07 0.07 0.08 0.10 0.14 0.22 0.29 0.39
0.26 0.33 0.40 0.46 0.58 0.61 0.61 0.66 0.65 0.61 0.62 0.63 0.64 0.66 0.67 0.68 0.68 0.59 0.54 0.50 0.44 0.42 0.41 0.40 0.37 0.37 0.37 0.38 0.37 0.33 0.30 0.25 0.28 0.37 0.20 0.08 0.08 0.08 0.08 0.09 0.10 0.15 0.23
0.26 0.33 0.37 0.45 0.54 0.63 0.63 0.66 0.65 0.61 0.60 0.66 0.69 0.73 0.72 0.74 0.75 0.69 0.59 0.53 0.46 0.40 0.39 0.40 0.40 0.39 0.39 0.38 0.37 0.37 0.40 0.40 0.32 0.36 0.32 0.14 0.09 0.08 0.09 0.09 0.09 0.10 0.15

GEFSSE_prec_meanprecacc_204.txt.gz
Total_Precipitation_Accumulation
0.02 0.05 0.23 0.28 0.27 0.27 0.30 0.30 0.28 0.26 0.29 0.32 0.34 0.34 0.32 0.31 0.30 0.30 0.30 0.29 0.30 0.32 0.38 0.43 0.47 0.46 0.41 0.38 0.39 0.38 0.35 0.33 0.28 0.23 0.24 0.27 0.26 0.23 0.19 0.18 0.17 0.25 0.33
0.02 0.06 0.19 0.23 0.25 0.28 0.31 0.28 0.25 0.23 0.26 0.29 0.30 0.31 0.30 0.29 0.29 0.30 0.30 0.30 0.32 0.34 0.38 0.42 0.42 0.40 0.37 0.37 0.43 0.41 0.34 0.24 0.19 0.16 0.15 0.16 0.22 0.25 0.24 0.24 0.22 0.31 0.31
0.02 0.05 0.14 0.21 0.24 0.30 0.31 0.27 0.24 0.22 0.23 0.26 0.29 0.32 0.31 0.30 0.29 0.29 0.30 0.32 0.38 0.42 0.42 0.43 0.41 0.37 0.37 0.41 0.40 0.40 0.35 0.24 0.14 0.13 0.11 0.17 0.25 0.30 0.30 0.26 0.25 0.28 0.28
0.01 0.03 0.08 0.19 0.24 0.30 0.32 0.30 0.27 0.25 0.25 0.26 0.27 0.29 0.32 0.34 0.33 0.31 0.30 0.36 0.42 0.48 0.53 0.48 0.41 0.42 0.43 0.43 0.35 0.33 0.35 0.29 0.16 0.10 0.07 0.17 0.34 0.43 0.36 0.32 0.27 0.27 0.29
0.01 0.03 0.09 0.19 0.25 0.30 0.33 0.35 0.35 0.33 0.31 0.30 0.29 0.28 0.29 0.31 0.32 0.32 0.33 0.37 0.42 0.45 0.49 0.49 0.45 0.45 0.43 0.39 0.32 0.30 0.40 0.40 0.24 0.07 0.07 0.10 0.27 0.57 0.39 0.35 0.31 0.28 0.27
0.01 0.03 0.09 0.20 0.28 0.32 0.35 0.40 0.41 0.41 0.41 0.40 0.37 0.35 0.34 0.34 0.33 0.31 0.34 0.34 0.33 0.36 0.40 0.42 0.42 0.44 0.44 0.41 0.33 0.34 0.46 0.52 0.26 0.10 0.11 0.13 0.27 0.53 0.42 0.38 0.34 0.30 0.28
0.02 0.04 0.10 0.23 0.32 0.35 0.37 0.41 0.44 0.46 0.49 0.50 0.50 0.48 0.45 0.41 0.38 0.36 0.37 0.34 0.29 0.30 0.34 0.37 0.39 0.41 0.44 0.43 0.39 0.46 0.56 0.54 0.27 0.25 0.17 0.15 0.29 0.50 0.50 0.44 0.39 0.34 0.31
0.02 0.06 0.13 0.29 0.36 0.38 0.39 0.44 0.47 0.49 0.54 0.56 0.55 0.54 0.51 0.46 0.44 0.45 0.45 0.40 0.34 0.29 0.28 0.29 0.31 0.36 0.38 0.37 0.41 0.51 0.55 0.37 0.15 0.12 0.10 0.12 0.28 0.51 0.71 0.64 0.49 0.40 0.36
0.05 0.08 0.15 0.28 0.38 0.43 0.45 0.47 0.49 0.53 0.56 0.58 0.59 0.59 0.56 0.48 0.47 0.48 0.48 0.43 0.38 0.35 0.31 0.27 0.26 0.27 0.27 0.29 0.35 0.37 0.33 0.23 0.12 0.16 0.12 0.17 0.29 0.59 0.88 0.83 0.63 0.47 0.41
0.09 0.13 0.18 0.28 0.37 0.42 0.47 0.52 0.51 0.54 0.57 0.58 0.60 0.61 0.56 0.49 0.47 0.46 0.43 0.40 0.38 0.39 0.36 0.29 0.27 0.26 0.22 0.21 0.22 0.23 0.19 0.16 0.10 0.15 0.21 0.22 0.25 0.57 0.93 0.92 0.78 0.61 0.51
0.17 0.20 0.24 0.33 0.41 0.45 0.47 0.51 0.55 0.57 0.58 0.58 0.58 0.57 0.57 0.52 0.49 0.46 0.43 0.39 0.38 0.38 0.35 0.32 0.29 0.26 0.21 0.17 0.15 0.15 0.12 0.08 0.11 0.18 0.21 0.19 0.26 0.58 0.93 0.98 0.88 0.74 0.65
0.20 0.24 0.28 0.36 0.43 0.49 0.50 0.54 0.58 0.55 0.54 0.52 0.49 0.48 0.50 0.50 0.47 0.43 0.42 0.42 0.42 0.41 0.38 0.37 0.33 0.27 0.23 0.18 0.19 0.18 0.10 0.07 0.12 0.13 0.13 0.14 0.29 0.59 0.90 1.00 0.97 0.86 0.81
0.20 0.25 0.31 0.38 0.47 0.52 0.53 0.54 0.56 0.52 0.51 0.52 0.50 0.52 0.56 0.56 0.52 0.51 0.48 0.46 0.45 0.44 0.47 0.49 0.48 0.39 0.36 0.34 0.33 0.26 0.17 0.14 0.11 0.11 0.10 0.12 0.22 0.45 0.75 0.95 1.04 1.03 1.01
0.25 0.27 0.32 0.42 0.52 0.55 0.56 0.56 0.54 0.50 0.47 0.48 0.48 0.52 0.58 0.59 0.53 0.50 0.50 0.46 0.44 0.44 0.46 0.50 0.51 0.46 0.42 0.36 0.35 0.32 0.28 0.23 0.16 0.13 0.11 0.12 0.14 0.23 0.42 0.66 0.89 1.05 1.12
0.24 0.29 0.33 0.40 0.50 0.57 0.62 0.62 0.59 0.52 0.46 0.44 0.44 0.45 0.46 0.49 0.49 0.44 0.39 0.37 0.37 0.37 0.38 0.39 0.40 0.42 0.42 0.38 0.34 0.32 0.31 0.28 0.23 0.19 0.16 0.15 0.13 0.15 0.23 0.38 0.60 0.91 1.11
0.24 0.28 0.34 0.41 0.49 0.60 0.62 0.66 0.64 0.60 0.53 0.49 0.45 0.42 0.42 0.42 0.42 0.39 0.35 0.30 0.27 0.27 0.27 0.27 0.25 0.25 0.28 0.32 0.31 0.29 0.27 0.26 0.27 0.27 0.25 0.24 0.17 0.15 0.19 0.29 0.43 0.65 0.96
0.23 0.31 0.36 0.43 0.51 0.60 0.65 0.68 0.71 0.70 0.68 0.60 0.51 0.46 0.42 0.42 0.42 0.41 0.37 0.32 0.27 0.25 0.26 0.25 0.22 0.20 0.21 0.23 0.25 0.25 0.22 0.22 0.25 0.30 0.31 0.30 0.26 0.21 0.20 0.26 0.35 0.49 0.73
0.25 0.33 0.40 0.44 0.54 0.60 0.69 0.73 0.72 0.76 0.73 0.68 0.61 0.56 0.49 0.44 0.43 0.45 0.43 0.38 0.33 0.30 0.30 0.31 0.28 0.25 0.23 0.22 0.24 0.28 0.26 0.24 0.25 0.29 0.33 0.31 0.30 0.27 0.23 0.23 0.31 0.44 0.61
0.27 0.33 0.41 0.44 0.51 0.60 0.70 0.81 0.84 0.82 0.79 0.73 0.67 0.64 0.59 0.54 0.46 0.44 0.46 0.44 0.41 0.39 0.36 0.35 0.33 0.31 0.29 0.29 0.30 0.31 0.32 0.29 0.27 0.29 0.32 0.36 0.37 0.33 0.33 0.26 0.26 0.36 0.51
0.28 0.35 0.42 0.47 0.53 0.65 0.79 0.87 0.96 0.93 0.84 0.78 0.75 0.71 0.69 0.65 0.57 0.50 0.46 0.47 0.47 0.45 0.43 0.39 0.38 0.38 0.36 0.33 0.33 0.33 0.34 0.36 0.36 0.33 0.37 0.46 0.46 0.39 0.37 0.37 0.32 0.27 0.32
0.30 0.38 0.44 0.48 0.57 0.70 0.81 0.87 0.86 0.91 0.87 0.77 0.71 0.74 0.75 0.73 0.67 0.61 0.54 0.48 0.50 0.49 0.45 0.41 0.38 0.38 0.37 0.35 0.37 0.36 0.35 0.34 0.32 0.29 0.33 0.45 0.57 0.59 0.53 0.52 0.51 0.43 0.34
0.29 0.36 0.44 0.47 0.52 0.60 0.63 0.71 0.77 0.78 0.80 0.80 0.73 0.71 0.75 0.76 0.71 0.67 0.63 0.54 0.47 0.46 0.44 0.42 0.38 0.37 0.35 0.31 0.33 0.38 0.34 0.33 0.33 0.27 0.22 0.29 0.39 0.48 0.51 0.54 0.58 0.60 0.52
0.27 0.34 0.40 0.47 0.49 0.56 0.63 0.75 0.84 0.89 0.89 0.87 0.82 0.75 0.73 0.74 0.73 0.67 0.62 0.58 0.52 0.47 0.43 0.41 0.39 0.38 0.37 0.33 0.31 0.45 0.50 0.36 0.25 0.17 0.17 0.20 0.22 0.25 0.29 0.36 0.44 0.49 0.56
0.25 0.34 0.39 0.48 0.56 0.56 0.65 0.76 0.76 0.77 0.77 0.70 0.70 0.70 0.74 0.76 0.75 0.71 0.65 0.60 0.55 0.51 0.46 0.40 0.39 0.37 0.39 0.40 0.36 0.34 0.39 0.38 0.41 0.25 0.11 0.10 0.10 0.10 0.11 0.15 0.24 0.31 0.40
0.27 0.34 0.41 0.47 0.59 0.62 0.64 0.71 0.70 0.67 0.66 0.67 0.71 0.74 0.75 0.78 0.80 0.74 0.68 0.63 0.56 0.50 0.48 0.46 0.42 0.42 0.43 0.43 0.42 0.38 0.35 0.31 0.32 0.41 0.25 0.12 0.12 0.11 0.10 0.10 0.12 0.17 0.25
0.27 0.35 0.39 0.47 0.58 0.66 0.66 0.71 0.71 0.68 0.66 0.71 0.75 0.81 0.82 0.83 0.86 0.82 0.71 0.66 0.61 0.51 0.46 0.47 0.46 0.44 0.44 0.43 0.41 0.42 0.45 0.46 0.37 0.39 0.35 0.18 0.15 0.13 0.13 0.12 0.11 0.11 0.17

GEFSSE_prec_meanprecacc_210.txt.gz
Total_Precipitation_Accumulation
0.02 0.05 0.23 0.30 0.29 0.29 0.31 0.30 0.28 0.27 0.30 0.33 0.35 0.35 0.33 0.32 0.31 0.31 0.31 0.32 0.32 0.35 0.42 0.48 0.51 0.50 0.45 0.42 0.43 0.40 0.38 0.36 0.31 0.25 0.26 0.28 0.27 0.23 0.20 0.19 0.17 0.26 0.33
0.02 0.06 0.19 0.24 0.26 0.30 0.32 0.29 0.26 0.24 0.27 0.30 0.31 0.33 0.32 0.31 0.30 0.31 0.32 0.32 0.33 0.36 0.41 0.45 0.47 0.45 0.41 0.41 0.46 0.43 0.37 0.28 0.23 0.19 0.17 0.17 0.23 0.26 0.25 0.24 0.23 0.31 0.31
0.02 0.05 0.14 0.22 0.25 0.32 0.33 0.29 0.25 0.24 0.24 0.28 0.31 0.34 0.33 0.32 0.31 0.30 0.31 0.34 0.39 0.44 0.46 0.47 0.44 0.41 0.40 0.43 0.41 0.41 0.38 0.27 0.17 0.15 0.13 0.18 0.26 0.31 0.32 0.27 0.25 0.29 0.29
0.01 0.03 0.09 0.20 0.24 0.31 0.34 0.32 0.29 0.27 0.27 0.28 0.30 0.32 0.35 0.36 0.34 0.32 0.32 0.38 0.44 0.51 0.56 0.52 0.45 0.45 0.47 0.46 0.37 0.35 0.37 0.31 0.19 0.12 0.08 0.17 0.35 0.45 0.38 0.33 0.28 0.27 0.30
0.01 0.03 0.09 0.20 0.25 0.31 0.35 0.38 0.38 0.36 0.34 0.33 0.32 0.31 0.33 0.34 0.35 0.33 0.35 0.40 0.45 0.48 0.51 0.52 0.48 0.48 0.46 0.42 0.34 0.31 0.42 0.42 0.26 0.09 0.08 0.11 0.28 0.59 0.41 0.37 0.33 0.29 0.28
0.01 0.03 0.10 0.21 0.29 0.33 0.37 0.43 0.44 0.44 0.44 0.43 0.41 0.39 0.39 0.38 0.37 0.34 0.36 0.37 0.36 0.39 0.43 0.45 0.46 0.47 0.46 0.43 0.35 0.36 0.48 0.54 0.27 0.11 0.12 0.14 0.27 0.55 0.45 0.40 0.36 0.32 0.30
0.02 0.04 0.11 0.23 0.33 0.36 0.38 0.43 0.45 0.48 0.52 0.53 0.54 0.53 0.50 0.47 0.44 0.42 0.41 0.37 0.32 0.32 0.37 0.40 0.42 0.44 0.47 0.45 0.41 0.48 0.57 0.55 0.28 0.26 0.17 0.16 0.30 0.51 0.53 0.47 0.41 0.36 0.33
0.03 0.06 0.14 0.29 0.37 0.39 0.40 0.45 0.48 0.51 0.56 0.58 0.59 0.60 0.56 0.52 0.50 0.52 0.51 0.45 0.37 0.31 0.31 0.32 0.35 0.40 0.41 0.40 0.42 0.54 0.57 0.38 0.17 0.12 0.11 0.14 0.29 0.53 0.74 0.66 0.51 0.43 0.38
0.06 0.09 0.17 0.30 0.40 0.44 0.46 0.48 0.50 0.54 0.58 0.60 0.62 0.64 0.61 0.53 0.53 0.54 0.54 0.48 0.42 0.38 0.34 0.30 0.29 0.31 0.32 0.34 0.39 0.41 0.35 0.25 0.13 0.17 0.14 0.19 0.31 0.62 0.91 0.85 0.66 0.50 0.43
0.10 0.14 0.20 0.31 0.40 0.45 0.49 0.53 0.52 0.54 0.57 0.59 0.62 0.64 0.60 0.54 0.52 0.51 0.48 0.44 0.42 0.43 0.40 0.33 0.30 0.29 0.26 0.24 0.26 0.27 0.22 0.18 0.11 0.16 0.21 0.23 0.26 0.59 0.95 0.94 0.80 0.64 0.54
0.17 0.21 0.25 0.34 0.43 0.48 0.50 0.53 0.56 0.57 0.58 0.58 0.60 0.59 0.60 0.56 0.52 0.50 0.46 0.42 0.41 0.41 0.38 0.35 0.31 0.29 0.25 0.20 0.18 0.18 0.15 0.09 0.12 0.19 0.22 0.20 0.27 0.59 0.95 1.00 0.90 0.77 0.69
0.21 0.25 0.30 0.37 0.44 0.52 0.53 0.57 0.60 0.56 0.54 0.53 0.49 0.50 0.53 0.53 0.51 0.46 0.45 0.45 0.45 0.44 0.40 0.39 0.36 0.30 0.26 0.20 0.21 0.21 0.12 0.09 0.13 0.14 0.14 0.15 0.30 0.61 0.92 1.03 1.00 0.90 0.85
0.21 0.26 0.32 0.40 0.49 0.54 0.55 0.56 0.58 0.54 0.52 0.52 0.50 0.53 0.57 0.59 0.56 0.54 0.51 0.48 0.48 0.47 0.50 0.51 0.50 0.40 0.37 0.35 0.34 0.28 0.19 0.16 0.13 0.12 0.11 0.13 0.23 0.46 0.77 0.98 1.07 1.06 1.05
0.26 0.29 0.33 0.43 0.54 0.57 0.57 0.58 0.56 0.51 0.48 0.48 0.48 0.53 0.60 0.61 0.57 0.53 0.52 0.48 0.47 0.47 0.48 0.51 0.53 0.47 0.43 0.37 0.37 0.34 0.31 0.25 0.18 0.15 0.12 0.13 0.15 0.24 0.43 0.68 0.92 1.08 1.15
0.25 0.30 0.35 0.41 0.52 0.59 0.63 0.64 0.60 0.53 0.47 0.44 0.44 0.45 0.47 0.51 0.52 0.48 0.43 0.39 0.39 0.40 0.41 0.41 0.41 0.43 0.43 0.40 0.36 0.34 0.34 0.31 0.25 0.20 0.17 0.16 0.13 0.16 0.25 0.40 0.63 0.94 1.15
0.24 0.29 0.36 0.42 0.50 0.61 0.63 0.67 0.65 0.61 0.54 0.49 0.46 0.42 0.42 0.43 0.44 0.43 0.39 0.33 0.30 0.29 0.29 0.29 0.27 0.27 0.29 0.33 0.32 0.30 0.28 0.28 0.29 0.29 0.26 0.25 0.18 0.16 0.20 0.31 0.46 0.69 1.00
0.24 0.32 0.37 0.45 0.52 0.61 0.65 0.69 0.71 0.71 0.68 0.61 0.52 0.47 0.42 0.42 0.44 0.44 0.42 0.37 0.31 0.29 0.29 0.28 0.24 0.22 0.23 0.24 0.26 0.26 0.24 0.24 0.27 0.31 0.32 0.31 0.27 0.22 0.21 0.27 0.38 0.53 0.78
0.27 0.33 0.40 0.45 0.55 0.61 0.69 0.74 0.74 0.77 0.74 0.69 0.62 0.57 0.49 0.45 0.44 0.47 0.46 0.42 0.39 0.38 0.36 0.34 0.30 0.27 0.25 0.24 0.26 0.29 0.28 0.26 0.26 0.31 0.35 0.32 0.32 0.28 0.24 0.24 0.33 0.47 0.65
0.29 0.35 0.42 0.45 0.52 0.61 0.71 0.82 0.85 0.84 0.81 0.75 0.69 0.65 0.60 0.54 0.47 0.46 0.48 0.47 0.45 0.46 0.44 0.41 0.37 0.34 0.32 0.31 0.32 0.33 0.33 0.31 0.28 0.30 0.34 0.38 0.38 0.34 0.34 0.27 0.28 0.38 0.54
0.30 0.37 0.44 0.48 0.55 0.66 0.80 0.87 0.97 0.94 0.86 0.80 0.77 0.73 0.70 0.65 0.58 0.51 0.48 0.49 0.51 0.51 0.50 0.45 0.43 0.43 0.40 0.37 0.36 0.35 0.36 0.38 0.37 0.34 0.38 0.48 0.47 0.40 0.39 0.38 0.34 0.29 0.34
0.32 0.40 0.46 0.50 0.59 0.71 0.81 0.87 0.86 0.92 0.88 0.79 0.73 0.76 0.77 0.74 0.68 0.63 0.56 0.51 0.54 0.55 0.52 0.48 0.44 0.44 0.42 0.40 0.42 0.40 0.38 0.37 0.34 0.32 0.36 0.47 0.58 0.60 0.55 0.54 0.53 0.45 0.35
0.31 0.39 0.47 0.49 0.54 0.61 0.63 0.71 0.78 0.79 0.81 0.81 0.75 0.73 0.79 0.79 0.73 0.69 0.65 0.57 0.51 0.51 0.51 0.49 0.45 0.43 0.40 0.35 0.39 0.44 0.39 0.36 0.35 0.29 0.25 0.33 0.42 0.50 0.53 0.55 0.60 0.62 0.53
0.30 0.37 0.43 0.50 0.50 0.57 0.63 0.75 0.84 0.90 0.91 0.89 0.84 0.78 0.77 0.78 0.76 0.69 0.65 0.62 0.57 0.51 0.48 0.48 0.46 0.44 0.43 0.38 0.35 0.50 0.55 0.40 0.28 0.20 0.19 0.23 0.25 0.29 0.33 0.39 0.47 0.51 0.58
0.27 0.36 0.43 0.51 0.58 0.58 0.66 0.76 0.76 0.77 0.78 0.72 0.72 0.73 0.77 0.79 0.78 0.74 0.68 0.65 0.62 0.58 0.52 0.47 0.46 0.44 0.46 0.46 0.40 0.38 0.43 0.43 0.46 0.30 0.15 0.14 0.14 0.15 0.16 0.20 0.28 0.34 0.42
0.28 0.37 0.44 0.50 0.61 0.63 0.64 0.71 0.71 0.67 0.66 0.68 0.73 0.78 0.79 0.81 0.83 0.77 0.73 0.70 0.64 0.58 0.54 0.52 0.48 0.48 0.49 0.48 0.46 0.42 0.39 0.35 0.37 0.47 0.30 0.17 0.16 0.15 0.14 0.14 0.15 0.19 0.27
0.29 0.37 0.42 0.50 0.59 0.67 0.68 0.72 0.72 0.68 0.67 0.72 0.77 0.84 0.86 0.87 0.90 0.86 0.75 0.74 0.69 0.58 0.53 0.55 0.54 0.51 0.50 0.49 0.46 0.45 0.49 0.51 0.42 0.46 0.42 0.24 0.20 0.19 0.17 0.15 0.14 0.14 0.19

GEFSSE_prec_meanprecacc_216.txt.gz
Total_Precipitation_Accumulation
0.02 0.06 0.24 0.31 0.30 0.30 0.33 0.33 0.30 0.28 0.31 0.35 0.37 0.39 0.36 0.35 0.34 0.33 0.34 0.36 0.33 0.36 0.43 0.51 0.54 0.52 0.48 0.45 0.44 0.41 0.40 0.37 0.32 0.27 0.27 0.30 0.28 0.24 0.21 0.20 0.17 0.26 0.34
0.02 0.06 0.20 0.25 0.28 0.32 0.34 0.31 0.28 0.25 0.28 0.32 0.33 0.35 0.36 0.33 0.33 0.33 0.34 0.34 0.35 0.38 0.43 0.48 0.51 0.51 0.47 0.45 0.49 0.45 0.39 0.30 0.24 0.19 0.18 0.18 0.24 0.27 0.26 0.25 0.24 0.32 0.32
0.02 0.05 0.15 0.22 0.26 0.33 0.35 0.30 0.26 0.25 0.26 0.29 0.33 0.36 0.37 0.35 0.33 0.32 0.33 0.36 0.41 0.45 0.48 0.50 0.48 0.45 0.45 0.47 0.45 0.44 0.39 0.29 0.18 0.15 0.14 0.19 0.27 0.32 0.33 0.29 0.27 0.30 0.30
0.01 0.04 0.09 0.20 0.25 0.33 0.35 0.34 0.30 0.28 0.28 0.29 0.31 0.34 0.37 0.40 0.39 0.35 0.35 0.41 0.46 0.52 0.57 0.54 0.48 0.48 0.50 0.48 0.39 0.37 0.39 0.33 0.20 0.12 0.08 0.18 0.35 0.45 0.40 0.35 0.30 0.30 0.32
0.01 0.03 0.10 0.20 0.26 0.32 0.36 0.39 0.39 0.37 0.35 0.34 0.33 0.33 0.35 0.38 0.38 0.38 0.38 0.43 0.48 0.50 0.53 0.54 0.51 0.51 0.48 0.43 0.35 0.33 0.43 0.43 0.26 0.09 0.08 0.11 0.28 0.59 0.43 0.39 0.36 0.32 0.31
0.01 0.04 0.11 0.22 0.29 0.34 0.37 0.44 0.45 0.45 0.45 0.45 0.43 0.41 0.41 0.41 0.40 0.39 0.40 0.40 0.40 0.41 0.45 0.47 0.48 0.50 0.49 0.45 0.36 0.37 0.49 0.54 0.28 0.11 0.12 0.15 0.28 0.56 0.47 0.43 0.39 0.34 0.32
0.02 0.05 0.12 0.25 0.34 0.36 0.39 0.44 0.47 0.50 0.54 0.55 0.57 0.56 0.53 0.50 0.47 0.46 0.45 0.41 0.35 0.35 0.39 0.43 0.44 0.47 0.49 0.47 0.42 0.50 0.59 0.55 0.30 0.26 0.18 0.16 0.30 0.53 0.55 0.50 0.44 0.38 0.36
0.03 0.07 0.15 0.32 0.39 0.39 0.41 0.46 0.50 0.53 0.59 0.61 0.62 0.63 0.60 0.55 0.53 0.55 0.53 0.47 0.39 0.33 0.33 0.35 0.37 0.42 0.43 0.42 0.45 0.58 0.60 0.39 0.18 0.13 0.11 0.14 0.30 0.54 0.76 0.69 0.54 0.45 0.40
0.06 0.10 0.19 0.33 0.42 0.46 0.48 0.50 0.52 0.56 0.59 0.62 0.64 0.67 0.64 0.57 0.56 0.56 0.56 0.49 0.44 0.40 0.36 0.33 0.32 0.34 0.34 0.37 0.42 0.45 0.39 0.26 0.15 0.18 0.14 0.20 0.32 0.63 0.93 0.89 0.68 0.52 0.44
0.10 0.15 0.21 0.33 0.43 0.47 0.51 0.54 0.53 0.55 0.58 0.60 0.64 0.66 0.62 0.56 0.54 0.53 0.49 0.45 0.43 0.44 0.42 0.35 0.33 0.31 0.28 0.27 0.29 0.30 0.26 0.20 0.13 0.17 0.22 0.23 0.26 0.60 0.98 0.97 0.83 0.66 0.56
0.18 0.22 0.26 0.36 0.46 0.51 0.54 0.56 0.57 0.58 0.59 0.59 0.60 0.60 0.61 0.57 0.55 0.53 0.47 0.42 0.42 0.42 0.40 0.37 0.34 0.31 0.26 0.21 0.20 0.21 0.18 0.13 0.15 0.21 0.23 0.21 0.28 0.60 0.98 1.03 0.92 0.79 0.71
0.21 0.25 0.31 0.39 0.47 0.56 0.58 0.61 0.63 0.58 0.56 0.54 0.50 0.50 0.53 0.54 0.52 0.49 0.48 0.47 0.46 0.45 0.42 0.42 0.39 0.33 0.27 0.22 0.22 0.23 0.14 0.11 0.16 0.17 0.16 0.17 0.31 0.62 0.95 1.06 1.03 0.92 0.86
0.21 0.27 0.33 0.42 0.51 0.58 0.59 0.60 0.60 0.55 0.53 0.53 0.51 0.53 0.58 0.60 0.56 0.55 0.53 0.51 0.49 0.48 0.51 0.53 0.52 0.43 0.38 0.36 0.36 0.29 0.20 0.18 0.15 0.14 0.12 0.14 0.24 0.48 0.80 1.02 1.11 1.09 1.07
0.26 0.29 0.34 0.44 0.55 0.60 0.61 0.61 0.58 0.53 0.50 0.50 0.49 0.53 0.60 0.61 0.57 0.53 0.53 0.50 0.49 0.49 0.49 0.52 0.54 0.49 0.45 0.39 0.38 0.35 0.32 0.26 0.19 0.16 0.13 0.14 0.16 0.26 0.46 0.73 0.97 1.13 1.19
0.25 0.30 0.35 0.42 0.53 0.61 0.66 0.66 0.62 0.55 0.48 0.46 0.45 0.46 0.47 0.51 0.52 0.48 0.43 0.40 0.40 0.41 0.42 0.42 0.42 0.44 0.45 0.41 0.37 0.35 0.34 0.31 0.26 0.21 0.17 0.16 0.14 0.17 0.26 0.43 0.67 0.99 1.20
0.24 0.29 0.36 0.42 0.51 0.62 0.65 0.68 0.67 0.63 0.55 0.51 0.47 0.43 0.42 0.44 0.44 0.43 0.39 0.34 0.31 0.31 0.31 0.31 0.29 0.29 0.31 0.34 0.33 0.31 0.29 0.29 0.30 0.29 0.27 0.26 0.18 0.17 0.21 0.33 0.49 0.73 1.05
0.24 0.32 0.37 0.45 0.53 0.62 0.67 0.70 0.72 0.72 0.70 0.62 0.53 0.48 0.43 0.43 0.44 0.44 0.42 0.37 0.32 0.32 0.33 0.31 0.27 0.25 0.25 0.26 0.28 0.28 0.25 0.24 0.27 0.32 0.33 0.32 0.27 0.23 0.22 0.28 0.40 0.57 0.83
0.27 0.33 0.40 0.45 0.55 0.61 0.70 0.75 0.75 0.78 0.75 0.70 0.63 0.58 0.50 0.46 0.45 0.47 0.46 0.42 0.40 0.39 0.39 0.39 0.36 0.32 0.29 0.27 0.28 0.31 0.30 0.27 0.27 0.31 0.35 0.33 0.32 0.28 0.25 0.25 0.35 0.50 0.69
0.29 0.35 0.42 0.46 0.52 0.62 0.72 0.83 0.86 0.85 0.82 0.76 0.70 0.66 0.60 0.55 0.48 0.47 0.49 0.47 0.45 0.46 0.45 0.44 0.41 0.39 0.37 0.35 0.35 0.35 0.36 0.33 0.30 0.32 0.35 0.38 0.38 0.34 0.34 0.28 0.28 0.39 0.56
0.30 0.37 0.44 0.48 0.55 0.67 0.81 0.89 0.98 0.96 0.87 0.82 0.78 0.74 0.71 0.66 0.58 0.52 0.48 0.50 0.51 0.52 0.51 0.47 0.46 0.46 0.44 0.40 0.40 0.38 0.38 0.39 0.39 0.36 0.40 0.49 0.48 0.41 0.39 0.39 0.34 0.29 0.35
0.32 0.41 0.46 0.50 0.59 0.72 0.83 0.89 0.88 0.94 0.89 0.80 0.74 0.77 0.78 0.75 0.69 0.63 0.57 0.51 0.54 0.55 0.53 0.48 0.45 0.46 0.45 0.44 0.46 0.44 0.41 0.39 0.36 0.33 0.37 0.49 0.59 0.61 0.56 0.55 0.54 0.46 0.36
0.32 0.40 0.48 0.50 0.54 0.62 0.65 0.73 0.79 0.80 0.82 0.81 0.75 0.74 0.80 0.80 0.74 0.70 0.66 0.58 0.51 0.52 0.52 0.51 0.47 0.45 0.44 0.39 0.42 0.48 0.43 0.40 0.39 0.31 0.27 0.34 0.44 0.52 0.54 0.57 0.62 0.64 0.55
0.30 0.38 0.44 0.51 0.51 0.59 0.65 0.78 0.86 0.92 0.92 0.89 0.84 0.79 0.77 0.79 0.77 0.71 0.66 0.63 0.57 0.52 0.49 0.49 0.48 0.47 0.46 0.41 0.38 0.54 0.59 0.43 0.31 0.22 0.21 0.25 0.27 0.31 0.35 0.41 0.49 0.54 0.60
0.28 0.37 0.44 0.52 0.59 0.60 0.69 0.79 0.79 0.79 0.79 0.72 0.72 0.73 0.78 0.80 0.79 0.76 0.71 0.67 0.63 0.58 0.53 0.48 0.48 0.47 0.49 0.50 0.44 0.42 0.45 0.45 0.48 0.32 0.16 0.16 0.15 0.16 0.18 0.22 0.30 0.36 0.45
0.29 0.37 0.46 0.50 0.63 0.66 0.67 0.74 0.74 0.70 0.68 0.69 0.74 0.78 0.79 0.82 0.84 0.79 0.75 0.72 0.65 0.59 0.56 0.54 0.50 0.51 0.52 0.52 0.50 0.46 0.42 0.37 0.39 0.50 0.33 0.19 0.18 0.16 0.15 0.17 0.19 0.23 0.31
0.30 0.38 0.44 0.51 0.62 0.71 0.70 0.75 0.75 0.71 0.69 0.73 0.77 0.85 0.86 0.87 0.91 0.88 0.78 0.76 0.70 0.60 0.55 0.57 0.56 0.53 0.53 0.52 0.50 0.49 0.53 0.54 0.45 0.49 0.45 0.27 0.23 0.21 0.20 0.19 0.19 0.20 0.25

GEFSSE_prec_meanprecacc_222.txt.gz
Total_Precipitation_Accumulation
0.02 0.06 0.24 0.31 0.31 0.31 0.34 0.33 0.31 0.29 0.33 0.37 0.39 0.40 0.38 0.36 0.35 0.34 0.35 0.37 0.36 0.38 0.45 0.54 0.58 0.55 0.50 0.47 0.45 0.42 0.41 0.38 0.33 0.27 0.28 0.31 0.29 0.25 0.21 0.20 0.18 0.27 0.34
0.03 0.06 0.20 0.25 0.28 0.33 0.35 0.31 0.28 0.26 0.29 0.33 0.34 0.37 0.38 0.35 0.34 0.34 0.35 0.36 0.37 0.39 0.44 0.51 0.55 0.55 0.50 0.48 0.51 0.47 0.40 0.31 0.25 0.20 0.18 0.19 0.25 0.27 0.27 0.26 0.24 0.33 0.33
0.02 0.06 0.15 0.23 0.27 0.34 0.35 0.31 0.27 0.26 0.26 0.30 0.34 0.37 0.38 0.36 0.35 0.35 0.35 0.38 0.43 0.47 0.49 0.52 0.51 0.49 0.49 0.50 0.48 0.46 0.41 0.30 0.19 0.16 0.14 0.20 0.28 0.33 0.33 0.29 0.27 0.31 0.31
0.02 0.04 0.09 0.21 0.26 0.33 0.36 0.34 0.31 0.29 0.29 0.30 0.33 0.35 0.39 0.42 0.41 0.37 0.37 0.43 0.47 0.53 0.59 0.56 0.50 0.51 0.53 0.50 0.41 0.39 0.41 0.34 0.20 0.13 0.08 0.19 0.36 0.46 0.40 0.36 0.31 0.30 0.33
0.02 0.04 0.10 0.21 0.26 0.32 0.37 0.40 0.39 0.38 0.36 0.34 0.34 0.34 0.37 0.39 0.40 0.39 0.40 0.45 0.50 0.51 0.54 0.56 0.53 0.55 0.52 0.46 0.37 0.34 0.44 0.44 0.27 0.09 0.08 0.12 0.30 0.61 0.44 0.40 0.36 0.32 0.32
0.03 0.05 0.12 0.22 0.30 0.34 0.38 0.44 0.45 0.45 0.46 0.46 0.44 0.43 0.44 0.43 0.42 0.41 0.42 0.42 0.41 0.44 0.48 0.49 0.50 0.52 0.52 0.47 0.38 0.39 0.50 0.55 0.29 0.12 0.13 0.16 0.29 0.59 0.49 0.45 0.40 0.35 0.33
0.03 0.06 0.13 0.26 0.34 0.37 0.40 0.45 0.48 0.52 0.56 0.56 0.58 0.58 0.55 0.54 0.51 0.49 0.48 0.43 0.37 0.37 0.41 0.44 0.46 0.48 0.51 0.48 0.43 0.52 0.60 0.56 0.30 0.27 0.20 0.18 0.33 0.55 0.57 0.52 0.47 0.41 0.37
0.04 0.08 0.16 0.33 0.40 0.40 0.42 0.48 0.52 0.55 0.61 0.63 0.64 0.65 0.62 0.58 0.57 0.60 0.57 0.48 0.39 0.34 0.34 0.35 0.38 0.43 0.44 0.43 0.46 0.59 0.62 0.40 0.19 0.14 0.12 0.16 0.32 0.56 0.79 0.72 0.57 0.48 0.42
0.07 0.11 0.20 0.34 0.44 0.47 0.48 0.51 0.53 0.57 0.61 0.63 0.66 0.68 0.65 0.59 0.58 0.59 0.59 0.52 0.45 0.40 0.37 0.33 0.33 0.34 0.35 0.38 0.43 0.47 0.41 0.27 0.15 0.19 0.15 0.20 0.32 0.64 0.95 0.91 0.71 0.55 0.47
0.11 0.16 0.22 0.34 0.44 0.48 0.52 0.55 0.54 0.55 0.59 0.61 0.65 0.67 0.63 0.57 0.55 0.54 0.50 0.46 0.43 0.45 0.43 0.36 0.33 0.32 0.29 0.28 0.30 0.31 0.27 0.21 0.14 0.19 0.24 0.25 0.27 0.61 0.98 0.99 0.86 0.69 0.58
0.18 0.23 0.28 0.38 0.48 0.53 0.56 0.57 0.58 0.59 0.60 0.60 0.61 0.61 0.62 0.59 0.56 0.53 0.48 0.43 0.42 0.42 0.40 0.37 0.34 0.31 0.27 0.22 0.20 0.21 0.18 0.14 0.16 0.24 0.27 0.23 0.29 0.61 0.99 1.05 0.95 0.82 0.74
0.22 0.26 0.33 0.43 0.50 0.60 0.61 0.63 0.65 0.60 0.58 0.56 0.52 0.51 0.55 0.56 0.54 0.51 0.49 0.47 0.46 0.45 0.43 0.42 0.39 0.33 0.28 0.23 0.23 0.23 0.15 0.12 0.18 0.18 0.19 0.18 0.32 0.63 0.95 1.07 1.04 0.94 0.89
0.22 0.27 0.34 0.43 0.53 0.61 0.62 0.63 0.63 0.58 0.56 0.55 0.52 0.55 0.59 0.61 0.57 0.57 0.55 0.52 0.51 0.49 0.52 0.53 0.53 0.43 0.39 0.37 0.37 0.30 0.22 0.19 0.17 0.15 0.13 0.16 0.25 0.48 0.81 1.03 1.12 1.11 1.10
0.27 0.30 0.34 0.45 0.57 0.63 0.64 0.63 0.61 0.56 0.53 0.53 0.51 0.55 0.61 0.63 0.58 0.54 0.54 0.51 0.50 0.50 0.51 0.53 0.55 0.49 0.45 0.40 0.40 0.36 0.33 0.28 0.20 0.17 0.14 0.14 0.16 0.27 0.47 0.74 0.99 1.15 1.22
0.26 0.31 0.36 0.42 0.54 0.62 0.68 0.68 0.65 0.57 0.50 0.47 0.47 0.47 0.48 0.52 0.52 0.49 0.43 0.41 0.41 0.43 0.44 0.44 0.44 0.45 0.46 0.42 0.39 0.36 0.36 0.33 0.27 0.22 0.18 0.16 0.14 0.18 0.27 0.43 0.68 1.02 1.23
0.24 0.30 0.36 0.43 0.52 0.63 0.66 0.70 0.69 0.65 0.58 0.53 0.49 0.44 0.43 0.44 0.44 0.43 0.40 0.34 0.31 0.32 0.32 0.32 0.31 0.31 0.33 0.36 0.35 0.33 0.30 0.30 0.31 0.30 0.28 0.26 0.19 0.17 0.21 0.33 0.50 0.75 1.08
0.24 0.32 0.38 0.45 0.53 0.62 0.67 0.71 0.74 0.74 0.72 0.65 0.55 0.50 0.45 0.44 0.44 0.44 0.42 0.37 0.32 0.32 0.33 0.32 0.29 0.27 0.27 0.28 0.30 0.31 0.27 0.26 0.29 0.33 0.34 0.33 0.28 0.23 0.22 0.29 0.41 0.58 0.85
0.27 0.33 0.40 0.46 0.55 0.62 0.71 0.76 0.75 0.79 0.77 0.72 0.65 0.60 0.53 0.47 0.45 0.47 0.46 0.42 0.40 0.39 0.39 0.39 0.36 0.34 0.31 0.29 0.30 0.33 0.32 0.29 0.29 0.33 0.37 0.34 0.33 0.29 0.25 0.25 0.35 0.51 0.70
0.29 0.35 0.42 0.46 0.52 0.62 0.72 0.83 0.86 0.86 0.84 0.77 0.71 0.68 0.62 0.57 0.49 0.47 0.49 0.47 0.45 0.46 0.45 0.44 0.42 0.40 0.38 0.36 0.36 0.36 0.37 0.34 0.32 0.33 0.36 0.40 0.41 0.37 0.36 0.29 0.29 0.39 0.57
0.30 0.37 0.44 0.48 0.55 0.67 0.82 0.89 0.99 0.97 0.89 0.83 0.80 0.75 0.73 0.67 0.60 0.53 0.49 0.50 0.51 0.52 0.51 0.47 0.46 0.47 0.45 0.42 0.40 0.39 0.39 0.40 0.40 0.37 0.41 0.50 0.50 0.43 0.42 0.42 0.36 0.31 0.35
0.32 0.41 0.46 0.50 0.59 0.72 0.83 0.89 0.88 0.94 0.90 0.82 0.75 0.79 0.80 0.77 0.70 0.64 0.58 0.52 0.55 0.55 0.53 0.49 0.45 0.46 0.46 0.44 0.47 0.44 0.42 0.40 0.36 0.34 0.38 0.50 0.61 0.62 0.57 0.57 0.57 0.48 0.38
0.32 0.40 0.48 0.50 0.54 0.62 0.65 0.73 0.79 0.80 0.83 0.84 0.77 0.76 0.81 0.82 0.76 0.71 0.67 0.59 0.52 0.52 0.52 0.51 0.47 0.46 0.44 0.39 0.43 0.49 0.44 0.41 0.39 0.32 0.28 0.35 0.44 0.52 0.55 0.58 0.64 0.66 0.57
0.30 0.38 0.44 0.51 0.51 0.59 0.65 0.78 0.87 0.93 0.94 0.93 0.88 0.82 0.80 0.81 0.79 0.72 0.67 0.64 0.58 0.52 0.50 0.49 0.48 0.47 0.46 0.42 0.38 0.55 0.60 0.45 0.32 0.24 0.23 0.26 0.28 0.32 0.36 0.42 0.50 0.55 0.62
0.28 0.37 0.44 0.52 0.59 0.60 0.69 0.79 0.79 0.80 0.81 0.75 0.75 0.76 0.80 0.82 0.81 0.76 0.71 0.68 0.64 0.59 0.53 0.49 0.48 0.47 0.49 0.50 0.45 0.43 0.47 0.47 0.50 0.35 0.19 0.18 0.18 0.19 0.19 0.24 0.32 0.38 0.46
0.29 0.37 0.46 0.51 0.63 0.66 0.67 0.74 0.74 0.70 0.69 0.72 0.77 0.82 0.82 0.85 0.86 0.80 0.76 0.73 0.67 0.61 0.57 0.54 0.50 0.51 0.53 0.53 0.51 0.47 0.44 0.39 0.41 0.52 0.35 0.21 0.21 0.19 0.18 0.19 0.21 0.26 0.34
0.30 0.39 0.44 0.51 0.62 0.71 0.70 0.75 0.75 0.72 0.70 0.76 0.81 0.89 0.89 0.90 0.93 0.89 0.79 0.77 0.71 0.61 0.56 0.57 0.56 0.54 0.53 0.53 0.51 0.50 0.54 0.55 0.46 0.50 0.46 0.27 0.24 0.23 0.22 0.22 0.22 0.25 0.32

GEFSSE_prec_meanprecacc_228.txt.gz
Total_Precipitation_Accumulation
0.02 0.06 0.25 0.32 0.31 0.32 0.34 0.34 0.32 0.30 0.33 0.38 0.40 0.41 0.38 0.36 0.35 0.34 0.36 0.38 0.37 0.39 0.47 0.56 0.60 0.57 0.52 0.48 0.46 0.43 0.42 0.39 0.33 0.28 0.28 0.31 0.29 0.25 0.22 0.21 0.18 0.28 0.35
0.03 0.07 0.21 0.26 0.29 0.33 0.35 0.32 0.29 0.26 0.30 0.33 0.35 0.38 0.39 0.36 0.34 0.35 0.36 0.37 0.38 0.40 0.46 0.53 0.57 0.57 0.51 0.49 0.52 0.48 0.41 0.31 0.25 0.20 0.19 0.19 0.25 0.28 0.27 0.26 0.25 0.33 0.33
0.03 0.06 0.16 0.23 0.27 0.34 0.35 0.31 0.27 0.26 0.27 0.31 0.35 0.38 0.39 0.38 0.36 0.35 0.36 0.39 0.43 0.48 0.50 0.53 0.53 0.50 0.50 0.52 0.49 0.47 0.41 0.31 0.19 0.16 0.14 0.20 0.28 0.33 0.34 0.30 0.28 0.31 0.32
0.02 0.05 0.10 0.22 0.26 0.33 0.36 0.34 0.31 0.29 0.29 0.30 0.33 0.36 0.39 0.43 0.42 0.38 0.38 0.44 0.48 0.54 0.59 0.57 0.51 0.53 0.55 0.52 0.42 0.40 0.41 0.34 0.20 0.13 0.08 0.19 0.36 0.47 0.41 0.37 0.31 0.31 0.34
0.03 0.06 0.12 0.23 0.27 0.32 0.37 0.40 0.40 0.38 0.36 0.35 0.35 0.35 0.38 0.41 0.41 0.40 0.41 0.46 0.50 0.51 0.54 0.56 0.53 0.56 0.53 0.47 0.38 0.34 0.45 0.44 0.27 0.09 0.08 0.12 0.30 0.61 0.44 0.41 0.37 0.33 0.33
0.03 0.07 0.13 0.25 0.31 0.35 0.38 0.45 0.46 0.46 0.47 0.46 0.44 0.44 0.45 0.46 0.45 0.43 0.42 0.43 0.42 0.44 0.49 0.50 0.50 0.53 0.53 0.47 0.38 0.40 0.51 0.56 0.29 0.12 0.14 0.16 0.30 0.59 0.50 0.46 0.42 0.36 0.34
0.04 0.07 0.14 0.28 0.35 0.37 0.41 0.45 0.49 0.53 0.58 0.58 0.59 0.59 0.56 0.56 0.54 0.53 0.50 0.44 0.38 0.39 0.41 0.45 0.47 0.50 0.52 0.49 0.44 0.53 0.62 0.57 0.30 0.27 0.20 0.18 0.33 0.56 0.59 0.54 0.49 0.43 0.39
0.05 0.09 0.17 0.34 0.41 0.41 0.42 0.48 0.52 0.56 0.62 0.63 0.64 0.66 0.63 0.59 0.59 0.63 0.61 0.50 0.40 0.34 0.34 0.36 0.38 0.43 0.45 0.44 0.47 0.61 0.63 0.40 0.19 0.14 0.12 0.16 0.32 0.57 0.80 0.74 0.58 0.50 0.45
0.08 0.13 0.21 0.35 0.46 0.49 0.49 0.51 0.54 0.58 0.61 0.64 0.66 0.68 0.66 0.59 0.59 0.59 0.61 0.54 0.45 0.41 0.37 0.33 0.33 0.35 0.35 0.38 0.44 0.48 0.42 0.27 0.15 0.19 0.15 0.20 0.33 0.65 0.96 0.92 0.72 0.56 0.49
0.12 0.17 0.24 0.36 0.45 0.49 0.53 0.56 0.55 0.56 0.59 0.62 0.65 0.67 0.63 0.57 0.55 0.54 0.50 0.46 0.44 0.45 0.43 0.36 0.33 0.32 0.29 0.28 0.31 0.32 0.27 0.21 0.14 0.19 0.24 0.25 0.27 0.61 0.99 0.99 0.86 0.70 0.60
0.19 0.24 0.29 0.39 0.49 0.54 0.57 0.58 0.59 0.60 0.60 0.61 0.62 0.62 0.62 0.59 0.56 0.53 0.48 0.43 0.42 0.43 0.41 0.38 0.34 0.32 0.27 0.22 0.21 0.21 0.19 0.14 0.16 0.24 0.27 0.24 0.30 0.62 1.00 1.06 0.96 0.84 0.76
0.23 0.27 0.34 0.43 0.51 0.61 0.62 0.63 0.65 0.60 0.58 0.56 0.52 0.51 0.55 0.56 0.55 0.51 0.50 0.47 0.46 0.45 0.43 0.43 0.39 0.33 0.28 0.23 0.23 0.23 0.15 0.12 0.18 0.19 0.19 0.19 0.33 0.64 0.97 1.08 1.06 0.96 0.91
0.22 0.28 0.35 0.44 0.54 0.62 0.63 0.64 0.63 0.58 0.56 0.55 0.53 0.55 0.60 0.61 0.57 0.57 0.55 0.53 0.51 0.49 0.52 0.53 0.53 0.43 0.39 0.37 0.37 0.30 0.22 0.19 0.17 0.16 0.14 0.16 0.25 0.49 0.83 1.05 1.14 1.13 1.11
0.27 0.31 0.35 0.46 0.58 0.64 0.65 0.65 0.62 0.56 0.53 0.53 0.52 0.55 0.62 0.63 0.58 0.54 0.54 0.51 0.51 0.51 0.52 0.54 0.55 0.50 0.46 0.40 0.40 0.37 0.33 0.28 0.20 0.17 0.14 0.15 0.17 0.27 0.49 0.77 1.01 1.17 1.23
0.27 0.31 0.36 0.43 0.55 0.64 0.70 0.70 0.66 0.58 0.50 0.47 0.47 0.47 0.49 0.52 0.53 0.49 0.43 0.41 0.41 0.43 0.44 0.45 0.45 0.46 0.47 0.43 0.40 0.37 0.36 0.33 0.27 0.22 0.18 0.17 0.15 0.18 0.28 0.46 0.72 1.05 1.26
0.25 0.31 0.37 0.44 0.53 0.65 0.69 0.72 0.70 0.66 0.58 0.54 0.49 0.45 0.44 0.44 0.44 0.44 0.40 0.34 0.31 0.32 0.32 0.33 0.31 0.32 0.34 0.37 0.35 0.33 0.31 0.30 0.32 0.31 0.28 0.27 0.19 0.18 0.22 0.35 0.53 0.79 1.12
0.24 0.32 0.38 0.46 0.55 0.63 0.69 0.73 0.76 0.76 0.73 0.66 0.56 0.51 0.46 0.45 0.45 0.45 0.43 0.39 0.34 0.33 0.34 0.33 0.30 0.28 0.28 0.29 0.31 0.32 0.28 0.28 0.31 0.35 0.35 0.33 0.29 0.23 0.22 0.30 0.43 0.61 0.89
0.27 0.34 0.41 0.46 0.56 0.63 0.72 0.77 0.77 0.81 0.78 0.73 0.67 0.62 0.54 0.49 0.46 0.49 0.48 0.44 0.41 0.41 0.41 0.41 0.37 0.34 0.31 0.29 0.31 0.34 0.33 0.31 0.31 0.35 0.38 0.35 0.34 0.30 0.26 0.26 0.37 0.54 0.74
0.29 0.35 0.42 0.46 0.53 0.63 0.73 0.84 0.87 0.87 0.85 0.79 0.73 0.70 0.65 0.60 0.51 0.48 0.50 0.48 0.46 0.47 0.45 0.44 0.42 0.40 0.38 0.36 0.36 0.37 0.37 0.35 0.32 0.34 0.38 0.41 0.41 0.38 0.37 0.30 0.30 0.41 0.60
0.30 0.37 0.44 0.48 0.55 0.67 0.82 0.89 0.99 0.97 0.89 0.84 0.81 0.76 0.75 0.71 0.63 0.54 0.50 0.51 0.52 0.52 0.51 0.47 0.46 0.47 0.45 0.42 0.40 0.39 0.39 0.41 0.40 0.38 0.42 0.51 0.51 0.44 0.43 0.43 0.37 0.32 0.37
0.32 0.41 0.46 0.50 0.59 0.72 0.83 0.89 0.88 0.95 0.91 0.82 0.76 0.79 0.81 0.79 0.73 0.67 0.60 0.53 0.56 0.56 0.53 0.49 0.46 0.46 0.46 0.44 0.47 0.45 0.42 0.40 0.36 0.34 0.38 0.50 0.62 0.63 0.58 0.58 0.58 0.49 0.39
0.32 0.40 0.48 0.50 0.54 0.62 0.65 0.73 0.79 0.80 0.84 0.84 0.78 0.77 0.82 0.84 0.78 0.74 0.69 0.60 0.53 0.53 0.53 0.51 0.47 0.46 0.44 0.39 0.43 0.49 0.44 0.41 0.39 0.32 0.28 0.35 0.45 0.53 0.55 0.58 0.64 0.67 0.58
0.30 0.38 0.44 0.51 0.51 0.59 0.65 0.78 0.87 0.93 0.95 0.93 0.88 0.83 0.81 0.83 0.81 0.74 0.69 0.66 0.60 0.54 0.51 0.51 0.50 0.47 0.47 0.42 0.39 0.55 0.61 0.45 0.33 0.24 0.23 0.26 0.28 0.32 0.36 0.42 0.51 0.56 0.64
0.28 0.37 0.44 0.52 0.59 0.60 0.69 0.79 0.79 0.80 0.81 0.75 0.75 0.77 0.81 0.84 0.83 0.79 0.74 0.70 0.66 0.61 0.55 0.50 0.50 0.49 0.50 0.51 0.45 0.43 0.47 0.47 0.51 0.35 0.19 0.18 0.18 0.19 0.21 0.25 0.33 0.39 0.48
0.29 0.37 0.46 0.51 0.63 0.66 0.67 0.74 0.74 0.70 0.69 0.72 0.78 0.82 0.83 0.86 0.89 0.83 0.79 0.75 0.69 0.62 0.59 0.56 0.52 0.53 0.55 0.55 0.52 0.47 0.44 0.40 0.41 0.52 0.35 0.21 0.21 0.19 0.18 0.20 0.22 0.27 0.35
0.30 0.39 0.44 0.51 0.62 0.71 0.70 0.75 0.75 0.72 0.70 0.76 0.81 0.89 0.90 0.91 0.95 0.92 0.82 0.80 0.74 0.64 0.58 0.59 0.58 0.55 0.55 0.54 0.52 0.51 0.54 0.55 0.46 0.50 0.46 0.28 0.24 0.23 0.22 0.22 0.23 0.26 0.33

GEFSSE_prec_meanprecacc_234.txt.gz
Total_Precipitation_Accumulation
0.03 0.07 0.27 0.33 0.32 0.33 0.35 0.35 0.33 0.31 0.35 0.40 0.41 0.43 0.41 0.39 0.38 0.36 0.37 0.39 0.38 0.41 0.49 0.58 0.62 0.59 0.54 0.50 0.47 0.44 0.43 0.39 0.34 0.29 0.29 0.32 0.31 0.26 0.23 0.21 0.19 0.28 0.36
0.03 0.08 0.22 0.27 0.30 0.35 0.36 0.33 0.29 0.27 0.31 0.35 0.37 0.39 0.41 0.38 0.36 0.37 0.38 0.39 0.40 0.42 0.47 0.54 0.59 0.58 0.53 0.50 0.53 0.48 0.41 0.31 0.25 0.21 0.19 0.20 0.26 0.29 0.28 0.27 0.25 0.34 0.34
0.03 0.07 0.17 0.24 0.28 0.35 0.36 0.32 0.28 0.27 0.28 0.32 0.36 0.39 0.41 0.39 0.37 0.37 0.37 0.40 0.45 0.49 0.51 0.55 0.54 0.52 0.51 0.53 0.50 0.47 0.41 0.31 0.19 0.16 0.14 0.20 0.29 0.34 0.35 0.30 0.29 0.32 0.33
0.03 0.06 0.11 0.23 0.28 0.35 0.37 0.35 0.32 0.30 0.30 0.32 0.35 0.38 0.40 0.44 0.43 0.39 0.38 0.45 0.49 0.55 0.60 0.58 0.52 0.54 0.56 0.53 0.43 0.40 0.41 0.34 0.20 0.13 0.08 0.19 0.37 0.48 0.42 0.38 0.33 0.33 0.36
0.04 0.07 0.14 0.25 0.29 0.34 0.38 0.41 0.41 0.39 0.37 0.36 0.36 0.37 0.40 0.42 0.42 0.40 0.41 0.47 0.50 0.51 0.55 0.57 0.54 0.57 0.54 0.48 0.39 0.36 0.46 0.45 0.27 0.09 0.08 0.12 0.30 0.62 0.45 0.42 0.38 0.35 0.34
0.04 0.08 0.15 0.27 0.33 0.36 0.40 0.46 0.47 0.47 0.48 0.48 0.46 0.45 0.48 0.48 0.47 0.43 0.43 0.44 0.43 0.45 0.49 0.50 0.50 0.53 0.54 0.48 0.40 0.41 0.52 0.57 0.29 0.12 0.14 0.16 0.30 0.60 0.51 0.47 0.42 0.37 0.35
0.04 0.08 0.16 0.30 0.37 0.39 0.42 0.46 0.50 0.55 0.59 0.60 0.60 0.60 0.58 0.57 0.56 0.55 0.51 0.45 0.40 0.40 0.43 0.46 0.48 0.50 0.53 0.50 0.46 0.54 0.63 0.58 0.31 0.27 0.20 0.18 0.33 0.56 0.60 0.55 0.50 0.44 0.40
0.05 0.10 0.19 0.37 0.43 0.42 0.43 0.49 0.53 0.57 0.63 0.65 0.67 0.68 0.65 0.61 0.60 0.64 0.63 0.53 0.43 0.36 0.36 0.37 0.39 0.44 0.46 0.45 0.48 0.62 0.63 0.41 0.19 0.14 0.12 0.16 0.32 0.57 0.81 0.75 0.59 0.51 0.46
0.09 0.14 0.23 0.37 0.47 0.50 0.50 0.52 0.54 0.58 0.62 0.65 0.68 0.70 0.68 0.61 0.60 0.61 0.62 0.55 0.46 0.41 0.37 0.34 0.33 0.35 0.36 0.39 0.44 0.48 0.43 0.27 0.15 0.19 0.15 0.21 0.33 0.66 0.98 0.93 0.72 0.57 0.50
0.14 0.19 0.27 0.38 0.47 0.51 0.55 0.57 0.56 0.57 0.60 0.62 0.66 0.69 0.65 0.59 0.57 0.56 0.52 0.47 0.44 0.46 0.43 0.36 0.34 0.33 0.29 0.28 0.31 0.32 0.27 0.21 0.14 0.20 0.25 0.25 0.27 0.62 1.00 1.01 0.88 0.71 0.62
0.21 0.26 0.33 0.43 0.52 0.57 0.60 0.60 0.61 0.61 0.62 0.62 0.62 0.62 0.63 0.60 0.57 0.55 0.49 0.44 0.43 0.43 0.41 0.38 0.34 0.32 0.28 0.23 0.21 0.21 0.19 0.14 0.16 0.24 0.27 0.24 0.30 0.62 1.01 1.08 0.98 0.86 0.79
0.23 0.28 0.36 0.46 0.54 0.63 0.63 0.65 0.68 0.63 0.61 0.57 0.53 0.52 0.56 0.57 0.56 0.52 0.51 0.49 0.47 0.46 0.44 0.43 0.40 0.34 0.28 0.23 0.23 0.24 0.15 0.12 0.18 0.19 0.19 0.19 0.33 0.65 0.98 1.11 1.08 0.98 0.93
0.23 0.29 0.36 0.46 0.57 0.65 0.65 0.65 0.64 0.60 0.57 0.56 0.53 0.56 0.61 0.62 0.58 0.58 0.56 0.53 0.53 0.50 0.53 0.54 0.53 0.43 0.39 0.37 0.37 0.30 0.22 0.19 0.17 0.16 0.14 0.16 0.26 0.50 0.85 1.08 1.17 1.16 1.14
0.28 0.31 0.36 0.47 0.59 0.67 0.68 0.67 0.63 0.57 0.54 0.54 0.52 0.56 0.63 0.64 0.59 0.55 0.55 0.51 0.51 0.51 0.53 0.55 0.56 0.50 0.46 0.40 0.40 0.37 0.34 0.29 0.21 0.18 0.15 0.16 0.17 0.28 0.50 0.79 1.04 1.21 1.27
0.27 0.32 0.37 0.44 0.56 0.65 0.72 0.72 0.68 0.59 0.51 0.48 0.47 0.48 0.49 0.53 0.54 0.50 0.44 0.41 0.42 0.43 0.45 0.46 0.45 0.47 0.49 0.45 0.41 0.38 0.37 0.34 0.28 0.23 0.19 0.18 0.15 0.19 0.29 0.48 0.75 1.09 1.31
0.26 0.31 0.37 0.45 0.54 0.66 0.70 0.74 0.72 0.68 0.59 0.54 0.50 0.45 0.44 0.45 0.45 0.44 0.40 0.34 0.32 0.32 0.33 0.33 0.32 0.33 0.35 0.39 0.37 0.35 0.32 0.31 0.32 0.32 0.29 0.27 0.19 0.18 0.23 0.37 0.57 0.84 1.18
0.25 0.33 0.39 0.47 0.56 0.65 0.71 0.74 0.78 0.79 0.76 0.68 0.57 0.51 0.46 0.45 0.45 0.45 0.44 0.39 0.34 0.34 0.36 0.35 0.32 0.30 0.29 0.30 0.32 0.33 0.30 0.29 0.32 0.36 0.35 0.34 0.29 0.23 0.23 0.31 0.46 0.65 0.94
0.27 0.35 0.42 0.47 0.58 0.64 0.74 0.79 0.79 0.84 0.81 0.76 0.69 0.63 0.55 0.49 0.47 0.49 0.49 0.45 0.42 0.41 0.41 0.42 0.39 0.36 0.33 0.30 0.32 0.35 0.33 0.32 0.32 0.36 0.39 0.36 0.34 0.30 0.26 0.27 0.38 0.56 0.79
0.30 0.36 0.43 0.47 0.54 0.64 0.76 0.87 0.90 0.90 0.88 0.81 0.75 0.72 0.67 0.61 0.51 0.49 0.51 0.49 0.47 0.48 0.46 0.45 0.44 0.41 0.40 0.37 0.38 0.38 0.38 0.36 0.33 0.35 0.39 0.42 0.42 0.38 0.37 0.31 0.31 0.42 0.61
0.31 0.38 0.45 0.49 0.56 0.69 0.84 0.92 1.02 1.00 0.93 0.87 0.83 0.78 0.77 0.72 0.65 0.55 0.51 0.52 0.54 0.54 0.52 0.48 0.47 0.48 0.46 0.43 0.41 0.39 0.40 0.41 0.41 0.38 0.42 0.51 0.51 0.44 0.44 0.43 0.38 0.33 0.38
0.34 0.41 0.47 0.51 0.59 0.73 0.84 0.90 0.89 0.97 0.93 0.85 0.78 0.82 0.83 0.81 0.75 0.69 0.61 0.54 0.57 0.58 0.55 0.50 0.47 0.47 0.46 0.45 0.47 0.45 0.42 0.40 0.36 0.34 0.38 0.50 0.62 0.63 0.59 0.59 0.59 0.50 0.40
0.33 0.40 0.48 0.50 0.54 0.62 0.66 0.74 0.80 0.82 0.85 0.85 0.79 0.78 0.84 0.86 0.80 0.76 0.71 0.62 0.55 0.55 0.55 0.53 0.49 0.47 0.45 0.40 0.43 0.50 0.45 0.41 0.39 0.32 0.28 0.35 0.45 0.53 0.56 0.59 0.65 0.67 0.59
0.31 0.38 0.44 0.51 0.51 0.59 0.66 0.78 0.87 0.93 0.95 0.93 0.88 0.83 0.81 0.84 0.83 0.76 0.71 0.68 0.62 0.56 0.53 0.53 0.52 0.49 0.48 0.43 0.39 0.56 0.61 0.45 0.33 0.24 0.23 0.26 0.28 0.32 0.37 0.43 0.51 0.57 0.64
0.29 0.38 0.44 0.52 0.59 0.60 0.69 0.79 0.79 0.80 0.81 0.75 0.75 0.77 0.81 0.84 0.84 0.80 0.75 0.71 0.68 0.63 0.57 0.53 0.52 0.51 0.53 0.53 0.47 0.44 0.48 0.47 0.51 0.35 0.19 0.18 0.18 0.19 0.21 0.25 0.33 0.39 0.48
0.29 0.38 0.46 0.51 0.63 0.66 0.67 0.74 0.74 0.70 0.69 0.72 0.78 0.82 0.83 0.86 0.89 0.84 0.79 0.76 0.70 0.64 0.61 0.58 0.54 0.55 0.57 0.58 0.55 0.49 0.46 0.41 0.42 0.53 0.35 0.21 0.21 0.19 0.19 0.20 0.22 0.27 0.35
0.30 0.39 0.44 0.51 0.62 0.71 0.71 0.75 0.75 0.72 0.71 0.77 0.81 0.89 0.90 0.91 0.95 0.92 0.83 0.81 0.75 0.65 0.60 0.61 0.60 0.57 0.57 0.57 0.55 0.54 0.57 0.57 0.48 0.52 0.47 0.28 0.24 0.23 0.23 0.22 0.23 0.26 0.33

GEFSSE_prec_meanprecacc_240.txt.gz
Total_Precipitation_Accumulation
0.03 0.08 0.29 0.37 0.34 0.35 0.37 0.38 0.36 0.35 0.39 0.43 0.44 0.46 0.44 0.42 0.40 0.39 0.40 0.41 0.39 0.43 0.51 0.60 0.64 0.61 0.56 0.51 0.49 0.45 0.44 0.40 0.35 0.29 0.30 0.33 0.31 0.27 0.23 0.22 0.19 0.29 0.36
0.04 0.08 0.24 0.29 0.32 0.36 0.38 0.35 0.32 0.31 0.34 0.38 0.39 0.42 0.44 0.41 0.40 0.40 0.41 0.41 0.42 0.44 0.49 0.56 0.60 0.60 0.54 0.51 0.53 0.48 0.41 0.31 0.26 0.21 0.20 0.21 0.27 0.30 0.29 0.27 0.26 0.34 0.34
0.04 0.08 0.18 0.26 0.30 0.37 0.38 0.34 0.30 0.30 0.31 0.34 0.39 0.42 0.43 0.41 0.40 0.39 0.40 0.42 0.46 0.51 0.53 0.56 0.55 0.53 0.53 0.54 0.51 0.47 0.42 0.31 0.19 0.16 0.15 0.20 0.29 0.35 0.37 0.32 0.30 0.33 0.33
0.04 0.07 0.12 0.25 0.30 0.37 0.39 0.37 0.34 0.32 0.32 0.34 0.37 0.41 0.43 0.46 0.45 0.41 0.40 0.46 0.50 0.56 0.61 0.59 0.53 0.54 0.57 0.54 0.44 0.41 0.42 0.35 0.21 0.13 0.08 0.19 0.37 0.48 0.43 0.38 0.33 0.33 0.36
0.05 0.08 0.15 0.26 0.31 0.36 0.40 0.43 0.43 0.41 0.39 0.38 0.39 0.39 0.42 0.44 0.44 0.42 0.43 0.49 0.52 0.52 0.55 0.57 0.55 0.57 0.54 0.48 0.40 0.37 0.47 0.46 0.27 0.09 0.09 0.12 0.30 0.62 0.45 0.43 0.39 0.35 0.35
0.05 0.09 0.17 0.28 0.35 0.39 0.42 0.49 0.50 0.50 0.50 0.50 0.48 0.47 0.49 0.50 0.49 0.45 0.45 0.46 0.46 0.47 0.51 0.51 0.51 0.54 0.54 0.49 0.40 0.42 0.53 0.57 0.30 0.13 0.14 0.16 0.30 0.60 0.52 0.47 0.42 0.37 0.35
0.05 0.09 0.17 0.31 0.39 0.41 0.45 0.50 0.54 0.58 0.62 0.63 0.64 0.63 0.60 0.59 0.58 0.56 0.54 0.48 0.42 0.42 0.45 0.48 0.49 0.51 0.54 0.51 0.46 0.55 0.63 0.58 0.31 0.28 0.20 0.19 0.34 0.57 0.61 0.56 0.51 0.46 0.41
0.07 0.11 0.20 0.39 0.46 0.45 0.46 0.52 0.58 0.60 0.66 0.68 0.70 0.71 0.68 0.63 0.62 0.66 0.65 0.55 0.44 0.38 0.37 0.38 0.40 0.45 0.47 0.46 0.49 0.62 0.64 0.41 0.19 0.14 0.13 0.16 0.33 0.58 0.82 0.77 0.61 0.52 0.47
0.12 0.16 0.25 0.39 0.50 0.54 0.53 0.54 0.57 0.61 0.64 0.67 0.70 0.73 0.71 0.64 0.63 0.63 0.64 0.57 0.48 0.42 0.38 0.34 0.34 0.36 0.37 0.40 0.45 0.49 0.43 0.27 0.16 0.19 0.16 0.21 0.33 0.66 0.98 0.94 0.74 0.58 0.51
0.17 0.22 0.30 0.41 0.49 0.53 0.56 0.58 0.57 0.59 0.61 0.63 0.67 0.70 0.66 0.61 0.60 0.58 0.54 0.49 0.46 0.46 0.44 0.37 0.34 0.33 0.30 0.29 0.31 0.32 0.28 0.22 0.14 0.20 0.25 0.25 0.28 0.62 1.01 1.02 0.89 0.73 0.63
0.23 0.29 0.37 0.46 0.55 0.59 0.61 0.61 0.63 0.62 0.63 0.63 0.63 0.63 0.64 0.62 0.60 0.57 0.50 0.46 0.45 0.45 0.42 0.39 0.35 0.32 0.28 0.23 0.21 0.22 0.19 0.14 0.16 0.24 0.27 0.24 0.30 0.63 1.02 1.09 1.00 0.88 0.81
0.24 0.29 0.38 0.50 0.58 0.66 0.65 0.67 0.70 0.65 0.63 0.60 0.55 0.54 0.56 0.58 0.57 0.53 0.52 0.50 0.49 0.48 0.46 0.45 0.41 0.35 0.29 0.23 0.24 0.24 0.16 0.13 0.18 0.19 0.19 0.19 0.33 0.65 0.99 1.12 1.10 1.00 0.96
0.23 0.29 0.37 0.48 0.61 0.68 0.67 0.66 0.66 0.62 0.60 0.58 0.56 0.59 0.63 0.64 0.59 0.59 0.58 0.55 0.54 0.53 0.56 0.56 0.56 0.45 0.40 0.37 0.38 0.32 0.23 0.20 0.18 0.16 0.14 0.17 0.26 0.51 0.87 1.10 1.19 1.18 1.17
0.29 0.32 0.37 0.49 0.62 0.69 0.71 0.69 0.64 0.60 0.56 0.56 0.53 0.57 0.64 0.66 0.61 0.57 0.56 0.54 0.53 0.53 0.55 0.58 0.59 0.53 0.49 0.42 0.42 0.39 0.36 0.30 0.22 0.19 0.16 0.17 0.18 0.29 0.53 0.81 1.06 1.24 1.31
0.28 0.33 0.39 0.46 0.58 0.67 0.76 0.76 0.71 0.62 0.54 0.51 0.50 0.49 0.50 0.54 0.55 0.51 0.45 0.42 0.43 0.44 0.46 0.47 0.47 0.49 0.51 0.47 0.43 0.40 0.39 0.35 0.29 0.24 0.20 0.18 0.16 0.20 0.31 0.50 0.78 1.14 1.37
0.26 0.32 0.38 0.46 0.57 0.68 0.72 0.77 0.77 0.71 0.62 0.57 0.52 0.47 0.45 0.45 0.45 0.45 0.41 0.35 0.32 0.33 0.33 0.34 0.33 0.34 0.37 0.40 0.38 0.35 0.32 0.32 0.33 0.32 0.29 0.27 0.20 0.19 0.24 0.39 0.59 0.88 1.23
0.25 0.34 0.40 0.48 0.58 0.67 0.72 0.76 0.80 0.82 0.78 0.70 0.59 0.53 0.47 0.46 0.45 0.45 0.44 0.40 0.34 0.34 0.36 0.35 0.32 0.30 0.30 0.31 0.33 0.33 0.30 0.29 0.32 0.36 0.36 0.34 0.29 0.24 0.23 0.32 0.47 0.67 0.98
0.29 0.36 0.43 0.48 0.59 0.66 0.77 0.82 0.81 0.86 0.83 0.77 0.71 0.66 0.57 0.51 0.48 0.50 0.49 0.45 0.43 0.42 0.42 0.42 0.39 0.36 0.33 0.31 0.32 0.35 0.34 0.32 0.33 0.36 0.39 0.36 0.35 0.30 0.26 0.27 0.38 0.56 0.79
0.32 0.37 0.44 0.48 0.54 0.66 0.78 0.90 0.93 0.93 0.91 0.83 0.76 0.74 0.69 0.64 0.54 0.51 0.52 0.50 0.47 0.48 0.47 0.46 0.44 0.41 0.40 0.38 0.38 0.38 0.38 0.36 0.34 0.35 0.39 0.42 0.42 0.38 0.38 0.31 0.31 0.42 0.61
0.34 0.40 0.47 0.52 0.58 0.71 0.86 0.95 1.04 1.03 0.96 0.90 0.85 0.80 0.78 0.74 0.67 0.58 0.53 0.54 0.55 0.54 0.52 0.48 0.48 0.48 0.46 0.43 0.42 0.40 0.40 0.41 0.41 0.38 0.42 0.51 0.52 0.45 0.44 0.44 0.39 0.33 0.38
0.36 0.43 0.48 0.53 0.61 0.74 0.86 0.91 0.90 0.98 0.95 0.87 0.82 0.84 0.85 0.83 0.77 0.71 0.63 0.56 0.58 0.58 0.56 0.51 0.47 0.48 0.47 0.45 0.48 0.45 0.42 0.40 0.37 0.34 0.39 0.51 0.62 0.64 0.59 0.59 0.59 0.50 0.40
0.34 0.42 0.49 0.51 0.56 0.63 0.67 0.76 0.83 0.85 0.88 0.87 0.81 0.81 0.87 0.88 0.82 0.78 0.73 0.64 0.56 0.56 0.55 0.54 0.49 0.48 0.45 0.40 0.44 0.50 0.45 0.41 0.39 0.32 0.28 0.35 0.45 0.53 0.56 0.59 0.65 0.67 0.59
0.33 0.40 0.46 0.52 0.52 0.60 0.66 0.79 0.88 0.95 0.97 0.95 0.90 0.84 0.83 0.86 0.85 0.79 0.73 0.69 0.63 0.57 0.54 0.53 0.52 0.50 0.49 0.44 0.40 0.56 0.62 0.46 0.33 0.24 0.23 0.26 0.28 0.32 0.37 0.43 0.51 0.57 0.64
0.30 0.39 0.46 0.54 0.61 0.61 0.69 0.79 0.79 0.80 0.81 0.76 0.76 0.77 0.82 0.84 0.85 0.82 0.79 0.75 0.69 0.64 0.58 0.53 0.53 0.52 0.53 0.54 0.48 0.45 0.49 0.48 0.52 0.36 0.20 0.19 0.19 0.20 0.21 0.25 0.33 0.39 0.48
0.31 0.39 0.48 0.53 0.64 0.67 0.68 0.75 0.74 0.70 0.69 0.72 0.78 0.82 0.83 0.86 0.89 0.84 0.80 0.79 0.74 0.67 0.63 0.59 0.54 0.56 0.58 0.58 0.55 0.50 0.47 0.42 0.43 0.54 0.36 0.21 0.21 0.20 0.19 0.20 0.22 0.27 0.35
0.32 0.40 0.46 0.52 0.63 0.72 0.71 0.75 0.75 0.72 0.71 0.77 0.82 0.89 0.90 0.91 0.95 0.92 0.83 0.81 0.76 0.67 0.63 0.65 0.62 0.58 0.58 0.58 0.56 0.55 0.58 0.58 0.49 0.53 0.48 0.29 0.25 0.24 0.23 0.23 0.23 0.27 0.33

GEFSSE_prec_meanprecacc_246.txt.gz
Total_Precipitation_Accumulation
0.03 0.08 0.30 0.39 0.36 0.36 0.40 0.41 0.39 0.39 0.42 0.46 0.47 0.48 0.46 0.44 0.41 0.40 0.41 0.42 0.41 0.45 0.53 0.61 0.65 0.63 0.58 0.54 0.50 0.46 0.44 0.41 0.35 0.30 0.30 0.34 0.32 0.28 0.23 0.22 0.20 0.29 0.36
0.04 0.09 0.25 0.31 0.33 0.37 0.40 0.38 0.35 0.35 0.38 0.41 0.41 0.44 0.46 0.43 0.41 0.42 0.43 0.43 0.43 0.46 0.52 0.58 0.62 0.62 0.56 0.52 0.54 0.49 0.42 0.32 0.26 0.21 0.20 0.21 0.28 0.31 0.29 0.28 0.26 0.35 0.35
0.04 0.08 0.19 0.27 0.31 0.38 0.40 0.37 0.33 0.32 0.33 0.38 0.42 0.44 0.45 0.44 0.42 0.41 0.41 0.43 0.47 0.52 0.54 0.57 0.56 0.54 0.54 0.55 0.51 0.48 0.42 0.31 0.19 0.16 0.15 0.21 0.30 0.36 0.37 0.32 0.30 0.33 0.34
0.04 0.07 0.13 0.26 0.31 0.39 0.40 0.39 0.36 0.34 0.34 0.37 0.41 0.44 0.45 0.49 0.47 0.42 0.41 0.47 0.52 0.57 0.61 0.60 0.54 0.55 0.58 0.55 0.45 0.42 0.43 0.35 0.21 0.13 0.09 0.19 0.38 0.49 0.43 0.38 0.34 0.34 0.36
0.05 0.09 0.16 0.27 0.32 0.37 0.42 0.46 0.46 0.44 0.42 0.41 0.42 0.41 0.44 0.47 0.47 0.44 0.45 0.51 0.54 0.54 0.56 0.58 0.56 0.58 0.55 0.49 0.40 0.37 0.47 0.46 0.28 0.09 0.09 0.14 0.31 0.63 0.46 0.43 0.39 0.35 0.35
0.05 0.10 0.18 0.29 0.36 0.40 0.45 0.52 0.53 0.53 0.53 0.52 0.50 0.49 0.51 0.52 0.52 0.48 0.47 0.47 0.47 0.49 0.53 0.52 0.52 0.55 0.55 0.49 0.40 0.42 0.53 0.58 0.30 0.13 0.14 0.17 0.31 0.61 0.53 0.48 0.43 0.38 0.36
0.05 0.10 0.18 0.32 0.41 0.44 0.48 0.53 0.57 0.62 0.66 0.66 0.66 0.64 0.62 0.61 0.60 0.58 0.55 0.49 0.43 0.43 0.47 0.50 0.50 0.52 0.55 0.51 0.46 0.55 0.64 0.59 0.31 0.29 0.21 0.20 0.35 0.58 0.62 0.57 0.52 0.46 0.41
0.08 0.12 0.21 0.40 0.48 0.48 0.50 0.56 0.61 0.63 0.69 0.71 0.72 0.73 0.69 0.65 0.64 0.67 0.66 0.56 0.45 0.39 0.38 0.39 0.40 0.46 0.48 0.47 0.50 0.62 0.64 0.41 0.20 0.15 0.14 0.19 0.35 0.59 0.83 0.77 0.61 0.53 0.47
0.14 0.18 0.27 0.40 0.52 0.56 0.56 0.58 0.61 0.64 0.67 0.69 0.72 0.75 0.72 0.65 0.64 0.64 0.65 0.58 0.49 0.43 0.39 0.35 0.35 0.36 0.37 0.40 0.45 0.49 0.43 0.28 0.16 0.20 0.17 0.22 0.35 0.68 1.00 0.96 0.74 0.59 0.52
0.21 0.26 0.32 0.43 0.52 0.55 0.60 0.61 0.60 0.61 0.64 0.65 0.68 0.70 0.67 0.61 0.61 0.59 0.55 0.50 0.47 0.47 0.45 0.38 0.35 0.35 0.31 0.29 0.32 0.33 0.28 0.22 0.14 0.20 0.25 0.26 0.28 0.64 1.03 1.04 0.90 0.74 0.65
0.27 0.36 0.42 0.50 0.58 0.63 0.65 0.64 0.65 0.64 0.65 0.64 0.63 0.63 0.65 0.63 0.62 0.59 0.52 0.47 0.46 0.46 0.43 0.39 0.36 0.34 0.29 0.24 0.22 0.22 0.19 0.15 0.17 0.24 0.28 0.24 0.31 0.64 1.02 1.09 1.00 0.89 0.82
0.28 0.36 0.44 0.55 0.62 0.71 0.69 0.71 0.74 0.68 0.65 0.62 0.56 0.54 0.58 0.61 0.60 0.55 0.54 0.50 0.49 0.49 0.46 0.45 0.41 0.36 0.30 0.24 0.25 0.25 0.17 0.13 0.19 0.19 0.19 0.19 0.34 0.65 1.00 1.13 1.10 1.01 0.97
0.27 0.34 0.43 0.54 0.65 0.73 0.72 0.71 0.72 0.67 0.64 0.62 0.59 0.61 0.66 0.67 0.62 0.62 0.61 0.56 0.57 0.54 0.57 0.57 0.57 0.47 0.43 0.41 0.41 0.33 0.24 0.22 0.19 0.17 0.14 0.17 0.26 0.51 0.88 1.11 1.20 1.19 1.18
0.31 0.35 0.42 0.56 0.68 0.75 0.77 0.73 0.69 0.63 0.59 0.59 0.57 0.60 0.67 0.70 0.66 0.62 0.61 0.57 0.56 0.57 0.59 0.63 0.63 0.58 0.53 0.46 0.45 0.41 0.37 0.31 0.24 0.20 0.17 0.17 0.18 0.30 0.54 0.82 1.07 1.25 1.32
0.30 0.36 0.43 0.53 0.65 0.74 0.83 0.82 0.74 0.64 0.56 0.54 0.53 0.52 0.54 0.58 0.58 0.54 0.48 0.45 0.45 0.46 0.48 0.50 0.50 0.51 0.53 0.49 0.44 0.41 0.39 0.36 0.30 0.25 0.21 0.18 0.16 0.20 0.31 0.51 0.79 1.16 1.39
0.28 0.34 0.42 0.52 0.63 0.74 0.79 0.84 0.83 0.75 0.65 0.60 0.55 0.49 0.46 0.47 0.47 0.46 0.42 0.36 0.33 0.34 0.34 0.34 0.33 0.35 0.37 0.40 0.39 0.36 0.33 0.32 0.33 0.33 0.30 0.28 0.20 0.19 0.24 0.39 0.60 0.89 1.25
0.27 0.37 0.44 0.53 0.63 0.72 0.78 0.80 0.85 0.87 0.82 0.72 0.61 0.55 0.49 0.47 0.47 0.47 0.45 0.40 0.35 0.35 0.36 0.36 0.33 0.31 0.30 0.32 0.33 0.34 0.31 0.30 0.32 0.36 0.36 0.35 0.29 0.24 0.23 0.32 0.47 0.67 0.98
0.32 0.40 0.47 0.52 0.62 0.70 0.81 0.87 0.85 0.89 0.86 0.79 0.73 0.68 0.59 0.53 0.50 0.51 0.50 0.46 0.43 0.42 0.42 0.43 0.39 0.36 0.33 0.31 0.32 0.36 0.34 0.32 0.33 0.37 0.39 0.36 0.35 0.30 0.26 0.27 0.38 0.57 0.80
0.35 0.41 0.47 0.51 0.58 0.69 0.81 0.93 0.97 0.97 0.94 0.85 0.78 0.75 0.72 0.66 0.56 0.53 0.54 0.51 0.48 0.48 0.47 0.46 0.44 0.42 0.40 0.38 0.38 0.38 0.39 0.36 0.34 0.36 0.39 0.42 0.43 0.39 0.38 0.31 0.32 0.43 0.62
0.38 0.43 0.50 0.55 0.61 0.73 0.89 0.97 1.06 1.06 0.99 0.93 0.86 0.81 0.80 0.76 0.69 0.60 0.54 0.55 0.55 0.55 0.53 0.49 0.48 0.48 0.46 0.43 0.42 0.40 0.40 0.41 0.41 0.38 0.43 0.52 0.52 0.45 0.44 0.44 0.39 0.33 0.38
0.38 0.45 0.51 0.56 0.64 0.76 0.88 0.93 0.92 0.99 0.96 0.89 0.85 0.86 0.86 0.84 0.78 0.73 0.65 0.57 0.59 0.59 0.56 0.51 0.47 0.48 0.47 0.45 0.48 0.46 0.43 0.40 0.37 0.35 0.39 0.51 0.62 0.64 0.59 0.59 0.59 0.51 0.41
0.37 0.43 0.51 0.53 0.58 0.65 0.69 0.77 0.84 0.86 0.90 0.89 0.84 0.86 0.91 0.90 0.83 0.79 0.75 0.65 0.57 0.56 0.56 0.54 0.50 0.48 0.45 0.41 0.44 0.51 0.45 0.42 0.40 0.32 0.28 0.36 0.45 0.53 0.56 0.59 0.65 0.67 0.59
0.35 0.42 0.48 0.53 0.54 0.61 0.67 0.79 0.89 0.96 0.97 0.95 0.91 0.85 0.86 0.90 0.89 0.81 0.75 0.71 0.65 0.58 0.54 0.54 0.52 0.50 0.49 0.44 0.40 0.57 0.63 0.46 0.33 0.24 0.23 0.26 0.29 0.33 0.37 0.43 0.51 0.57 0.64
0.32 0.41 0.48 0.56 0.62 0.61 0.70 0.80 0.80 0.81 0.82 0.76 0.77 0.78 0.82 0.85 0.86 0.84 0.82 0.78 0.72 0.66 0.59 0.54 0.53 0.52 0.54 0.54 0.48 0.45 0.49 0.48 0.52 0.36 0.20 0.19 0.19 0.20 0.21 0.25 0.33 0.40 0.48
0.32 0.40 0.49 0.54 0.66 0.68 0.69 0.77 0.76 0.72 0.70 0.73 0.79 0.83 0.83 0.86 0.89 0.84 0.81 0.80 0.77 0.71 0.67 0.63 0.57 0.57 0.58 0.59 0.56 0.51 0.47 0.42 0.43 0.54 0.36 0.22 0.21 0.20 0.19 0.21 0.23 0.27 0.36
0.33 0.41 0.46 0.53 0.64 0.74 0.72 0.76 0.76 0.72 0.71 0.77 0.82 0.89 0.90 0.91 0.95 0.92 0.83 0.81 0.76 0.68 0.65 0.67 0.66 0.62 0.60 0.59 0.58 0.56 0.59 0.59 0.49 0.53 0.49 0.30 0.26 0.25 0.24 0.23 0.24 0.27 0.34

GEFSSE_prec_meanprecacc_252.txt.gz
Total_Precipitation_Accumulation
0.04 0.09 0.32 0.41 0.37 0.37 0.41 0.42 0.40 0.40 0.43 0.47 0.47 0.49 0.47 0.46 0.42 0.40 0.42 0.43 0.41 0.46 0.55 0.63 0.67 0.66 0.60 0.56 0.53 0.48 0.45 0.41 0.36 0.30 0.30 0.34 0.33 0.28 0.24 0.22 0.20 0.30 0.37
0.04 0.09 0.27 0.33 0.34 0.38 0.41 0.40 0.36 0.37 0.39 0.42 0.42 0.45 0.48 0.44 0.42 0.43 0.43 0.44 0.45 0.48 0.53 0.60 0.64 0.64 0.57 0.54 0.56 0.50 0.43 0.32 0.26 0.22 0.20 0.22 0.29 0.31 0.30 0.28 0.27 0.35 0.35
0.04 0.09 0.20 0.29 0.32 0.40 0.41 0.37 0.34 0.33 0.34 0.39 0.43 0.45 0.47 0.45 0.43 0.43 0.42 0.44 0.48 0.53 0.55 0.59 0.57 0.55 0.54 0.55 0.52 0.49 0.43 0.32 0.20 0.17 0.15 0.21 0.30 0.37 0.38 0.33 0.31 0.34 0.34
0.05 0.08 0.14 0.27 0.32 0.40 0.42 0.40 0.38 0.35 0.35 0.40 0.44 0.45 0.47 0.50 0.48 0.43 0.43 0.49 0.53 0.58 0.62 0.60 0.55 0.55 0.58 0.55 0.45 0.42 0.43 0.36 0.21 0.13 0.09 0.20 0.38 0.49 0.44 0.39 0.34 0.34 0.37
0.06 0.09 0.17 0.28 0.33 0.38 0.43 0.47 0.47 0.45 0.43 0.43 0.44 0.43 0.45 0.48 0.48 0.46 0.47 0.52 0.54 0.54 0.56 0.58 0.56 0.58 0.55 0.49 0.40 0.37 0.47 0.46 0.28 0.09 0.09 0.14 0.32 0.64 0.47 0.43 0.40 0.36 0.36
0.06 0.10 0.19 0.30 0.37 0.41 0.46 0.53 0.55 0.54 0.55 0.54 0.52 0.50 0.52 0.53 0.52 0.48 0.47 0.48 0.47 0.49 0.53 0.52 0.52 0.55 0.55 0.49 0.40 0.42 0.54 0.58 0.30 0.13 0.15 0.17 0.31 0.63 0.55 0.49 0.44 0.39 0.37
0.06 0.11 0.18 0.33 0.42 0.45 0.49 0.54 0.58 0.62 0.67 0.67 0.67 0.66 0.63 0.62 0.60 0.59 0.55 0.49 0.43 0.44 0.47 0.50 0.50 0.52 0.55 0.51 0.46 0.55 0.64 0.59 0.31 0.29 0.21 0.20 0.35 0.60 0.64 0.59 0.52 0.47 0.42
0.09 0.14 0.23 0.41 0.50 0.50 0.52 0.58 0.62 0.64 0.70 0.72 0.74 0.74 0.70 0.66 0.65 0.67 0.66 0.57 0.46 0.39 0.38 0.39 0.40 0.46 0.48 0.47 0.50 0.62 0.64 0.41 0.20 0.15 0.14 0.19 0.35 0.61 0.86 0.81 0.64 0.54 0.48
0.15 0.19 0.28 0.42 0.54 0.59 0.59 0.60 0.62 0.65 0.68 0.71 0.74 0.76 0.73 0.65 0.65 0.65 0.65 0.58 0.49 0.43 0.39 0.35 0.35 0.36 0.37 0.40 0.46 0.49 0.43 0.28 0.16 0.20 0.17 0.23 0.36 0.69 1.02 0.98 0.77 0.61 0.53
0.22 0.27 0.34 0.46 0.53 0.57 0.62 0.64 0.62 0.63 0.65 0.67 0.69 0.72 0.67 0.62 0.61 0.60 0.55 0.50 0.47 0.48 0.45 0.38 0.35 0.35 0.31 0.29 0.32 0.33 0.28 0.22 0.14 0.20 0.25 0.26 0.29 0.64 1.04 1.05 0.91 0.75 0.66
0.31 0.39 0.44 0.53 0.62 0.66 0.67 0.66 0.67 0.66 0.67 0.66 0.66 0.65 0.66 0.64 0.62 0.59 0.52 0.47 0.47 0.47 0.44 0.40 0.36 0.34 0.29 0.24 0.22 0.22 0.19 0.15 0.17 0.24 0.28 0.25 0.31 0.64 1.03 1.10 1.02 0.90 0.83
0.31 0.38 0.46 0.56 0.65 0.73 0.71 0.73 0.77 0.69 0.67 0.63 0.58 0.56 0.59 0.61 0.60 0.55 0.54 0.50 0.49 0.49 0.47 0.46 0.42 0.36 0.30 0.24 0.25 0.25 0.17 0.13 0.19 0.19 0.20 0.19 0.34 0.66 1.00 1.14 1.12 1.02 0.98
0.30 0.38 0.48 0.57 0.67 0.76 0.75 0.74 0.75 0.70 0.65 0.63 0.60 0.62 0.66 0.67 0.63 0.62 0.61 0.57 0.57 0.54 0.58 0.57 0.57 0.47 0.43 0.41 0.41 0.33 0.24 0.22 0.19 0.17 0.15 0.17 0.27 0.52 0.89 1.12 1.20 1.19 1.19
0.36 0.42 0.50 0.62 0.72 0.79 0.81 0.77 0.73 0.67 0.62 0.61 0.58 0.61 0.68 0.70 0.66 0.63 0.62 0.57 0.57 0.57 0.60 0.63 0.64 0.58 0.53 0.47 0.46 0.41 0.37 0.32 0.24 0.21 0.18 0.18 0.18 0.30 0.54 0.83 1.08 1.26 1.33
0.35 0.42 0.52 0.62 0.73 0.80 0.89 0.87 0.78 0.68 0.60 0.57 0.56 0.54 0.55 0.59 0.59 0.56 0.50 0.45 0.46 0.47 0.50 0.52 0.51 0.52 0.53 0.50 0.45 0.41 0.40 0.37 0.31 0.25 0.21 0.19 0.16 0.20 0.31 0.51 0.80 1.17 1.41
0.31 0.38 0.49 0.63 0.73 0.82 0.86 0.92 0.89 0.81 0.70 0.64 0.59 0.52 0.48 0.48 0.48 0.48 0.45 0.37 0.34 0.34 0.34 0.35 0.35 0.35 0.38 0.41 0.39 0.36 0.33 0.33 0.34 0.33 0.30 0.28 0.20 0.19 0.24 0.40 0.61 0.90 1.26
0.30 0.40 0.48 0.63 0.74 0.83 0.88 0.90 0.95 0.95 0.89 0.78 0.66 0.60 0.53 0.50 0.49 0.49 0.47 0.42 0.36 0.36 0.37 0.36 0.33 0.31 0.30 0.32 0.34 0.34 0.31 0.30 0.33 0.37 0.36 0.35 0.30 0.24 0.23 0.32 0.48 0.68 0.99
0.36 0.43 0.51 0.60 0.71 0.78 0.91 0.99 0.95 0.97 0.93 0.85 0.77 0.71 0.64 0.57 0.53 0.54 0.53 0.47 0.44 0.43 0.42 0.43 0.40 0.37 0.33 0.31 0.33 0.36 0.34 0.33 0.33 0.37 0.40 0.36 0.35 0.30 0.26 0.28 0.39 0.57 0.81
0.39 0.45 0.51 0.57 0.66 0.77 0.88 1.03 1.08 1.05 1.00 0.90 0.81 0.78 0.74 0.69 0.59 0.56 0.56 0.53 0.50 0.49 0.47 0.46 0.44 0.42 0.40 0.38 0.38 0.38 0.39 0.36 0.34 0.36 0.39 0.42 0.43 0.39 0.38 0.31 0.32 0.43 0.62
0.42 0.48 0.55 0.63 0.71 0.82 0.96 1.03 1.12 1.12 1.04 0.97 0.89 0.82 0.81 0.78 0.71 0.62 0.57 0.57 0.57 0.56 0.53 0.49 0.48 0.48 0.46 0.43 0.42 0.40 0.40 0.41 0.41 0.38 0.43 0.52 0.52 0.45 0.44 0.44 0.39 0.33 0.39
0.43 0.50 0.56 0.62 0.71 0.83 0.93 0.97 0.95 1.02 0.99 0.93 0.88 0.89 0.89 0.86 0.81 0.75 0.67 0.60 0.61 0.61 0.58 0.52 0.48 0.48 0.47 0.46 0.48 0.46 0.43 0.40 0.37 0.35 0.39 0.51 0.62 0.64 0.59 0.59 0.59 0.51 0.42
0.40 0.47 0.55 0.57 0.64 0.70 0.73 0.82 0.89 0.90 0.93 0.93 0.88 0.90 0.94 0.94 0.86 0.82 0.77 0.68 0.59 0.58 0.57 0.55 0.51 0.48 0.46 0.41 0.45 0.51 0.46 0.42 0.40 0.32 0.28 0.36 0.45 0.53 0.56 0.59 0.65 0.68 0.59
0.38 0.45 0.52 0.57 0.58 0.66 0.72 0.84 0.93 1.00 1.00 0.98 0.92 0.87 0.88 0.92 0.92 0.84 0.79 0.75 0.69 0.62 0.57 0.55 0.53 0.51 0.49 0.44 0.40 0.57 0.63 0.46 0.33 0.24 0.23 0.26 0.29 0.33 0.37 0.43 0.51 0.57 0.64
0.36 0.45 0.52 0.59 0.66 0.66 0.74 0.83 0.83 0.82 0.83 0.78 0.79 0.79 0.84 0.86 0.87 0.85 0.83 0.80 0.74 0.69 0.62 0.56 0.55 0.54 0.55 0.55 0.48 0.45 0.49 0.48 0.52 0.36 0.20 0.19 0.19 0.20 0.21 0.25 0.33 0.40 0.48
0.37 0.46 0.54 0.58 0.69 0.73 0.74 0.81 0.79 0.75 0.73 0.75 0.81 0.85 0.85 0.87 0.89 0.84 0.81 0.80 0.77 0.71 0.68 0.64 0.59 0.60 0.61 0.60 0.56 0.51 0.48 0.42 0.44 0.54 0.36 0.22 0.21 0.20 0.19 0.21 0.23 0.28 0.36
0.36 0.45 0.51 0.57 0.67 0.77 0.76 0.80 0.79 0.75 0.72 0.78 0.83 0.91 0.91 0.92 0.95 0.92 0.83 0.81 0.76 0.68 0.65 0.68 0.66 0.62 0.61 0.60 0.58 0.57 0.59 0.60 0.50 0.54 0.49 0.30 0.26 0.25 0.24 0.23 0.24 0.27 0.34

GEFSSE_prec_meanprecacc_258.txt.gz
Total_Precipitation_Accumulation
0.04 0.11 0.35 0.43 0.39 0.39 0.43 0.45 0.42 0.42 0.45 0.49 0.49 0.50 0.48 0.47 0.43 0.42 0.43 0.44 0.43 0.48 0.57 0.66 0.71 0.67 0.62 0.57 0.54 0.49 0.46 0.42 0.37 0.31 0.31 0.35 0.34 0.30 0.25 0.23 0.20 0.30 0.38
0.04 0.11 0.29 0.35 0.36 0.40 0.43 0.41 0.38 0.38 0.40 0.43 0.43 0.46 0.48 0.45 0.43 0.44 0.44 0.45 0.47 0.50 0.55 0.62 0.65 0.64 0.58 0.55 0.57 0.51 0.43 0.33 0.27 0.22 0.21 0.22 0.30 0.33 0.31 0.29 0.27 0.36 0.37
0.05 0.10 0.23 0.32 0.35 0.42 0.43 0.39 0.36 0.34 0.35 0.40 0.44 0.46 0.47 0.46 0.44 0.45 0.44 0.45 0.50 0.55 0.57 0.60 0.58 0.55 0.54 0.56 0.52 0.49 0.43 0.32 0.20 0.17 0.15 0.21 0.31 0.37 0.38 0.33 0.31 0.35 0.35
0.06 0.11 0.17 0.31 0.35 0.43 0.44 0.42 0.39 0.36 0.36 0.41 0.45 0.46 0.48 0.51 0.50 0.45 0.44 0.50 0.54 0.59 0.63 0.61 0.55 0.56 0.58 0.55 0.45 0.42 0.43 0.36 0.21 0.13 0.09 0.20 0.38 0.50 0.44 0.40 0.35 0.35 0.38
0.07 0.11 0.20 0.32 0.36 0.42 0.47 0.50 0.49 0.46 0.45 0.45 0.46 0.44 0.47 0.49 0.50 0.47 0.48 0.53 0.55 0.55 0.57 0.59 0.56 0.59 0.56 0.50 0.41 0.38 0.48 0.47 0.28 0.09 0.09 0.14 0.32 0.65 0.48 0.44 0.41 0.37 0.37
0.07 0.12 0.22 0.35 0.41 0.45 0.50 0.57 0.57 0.55 0.56 0.56 0.53 0.52 0.54 0.55 0.54 0.50 0.48 0.48 0.47 0.49 0.53 0.53 0.52 0.56 0.56 0.50 0.41 0.43 0.54 0.58 0.30 0.13 0.15 0.17 0.32 0.65 0.57 0.50 0.45 0.40 0.38
0.07 0.12 0.21 0.37 0.46 0.48 0.52 0.57 0.61 0.64 0.69 0.69 0.69 0.67 0.64 0.63 0.61 0.59 0.56 0.50 0.43 0.44 0.47 0.50 0.50 0.52 0.55 0.52 0.47 0.56 0.65 0.60 0.32 0.29 0.21 0.20 0.36 0.62 0.66 0.61 0.53 0.48 0.43
0.09 0.15 0.25 0.45 0.54 0.52 0.54 0.61 0.66 0.66 0.71 0.73 0.75 0.76 0.71 0.67 0.65 0.68 0.67 0.57 0.46 0.39 0.38 0.39 0.41 0.46 0.48 0.47 0.50 0.63 0.64 0.42 0.20 0.15 0.14 0.19 0.36 0.62 0.87 0.82 0.65 0.55 0.48
0.16 0.20 0.30 0.44 0.57 0.62 0.62 0.63 0.65 0.67 0.70 0.73 0.75 0.78 0.74 0.66 0.65 0.65 0.65 0.59 0.49 0.43 0.39 0.36 0.35 0.37 0.38 0.41 0.46 0.49 0.43 0.28 0.16 0.20 0.17 0.23 0.36 0.69 1.03 0.99 0.77 0.62 0.54
0.24 0.29 0.36 0.48 0.56 0.60 0.65 0.66 0.64 0.65 0.66 0.69 0.72 0.74 0.68 0.63 0.62 0.60 0.55 0.50 0.47 0.48 0.45 0.38 0.36 0.35 0.32 0.30 0.32 0.33 0.28 0.22 0.14 0.20 0.25 0.26 0.29 0.64 1.04 1.05 0.92 0.76 0.67
0.34 0.42 0.47 0.55 0.64 0.68 0.69 0.68 0.70 0.69 0.69 0.68 0.68 0.67 0.67 0.65 0.63 0.59 0.52 0.47 0.47 0.47 0.44 0.40 0.37 0.34 0.29 0.24 0.22 0.22 0.19 0.15 0.17 0.24 0.28 0.25 0.32 0.65 1.05 1.12 1.03 0.91 0.85
0.33 0.41 0.49 0.60 0.67 0.75 0.73 0.74 0.78 0.71 0.69 0.65 0.59 0.57 0.60 0.62 0.62 0.56 0.55 0.51 0.49 0.49 0.47 0.46 0.42 0.37 0.31 0.24 0.25 0.25 0.17 0.13 0.19 0.19 0.20 0.19 0.35 0.68 1.03 1.16 1.14 1.04 1.00
0.32 0.40 0.50 0.60 0.71 0.78 0.76 0.75 0.76 0.71 0.67 0.65 0.61 0.64 0.69 0.69 0.65 0.64 0.62 0.57 0.57 0.54 0.58 0.58 0.57 0.47 0.43 0.41 0.41 0.33 0.24 0.22 0.19 0.17 0.15 0.17 0.27 0.53 0.91 1.14 1.22 1.21 1.21
0.39 0.45 0.54 0.66 0.76 0.83 0.84 0.80 0.75 0.69 0.63 0.62 0.59 0.63 0.71 0.73 0.68 0.64 0.63 0.58 0.58 0.58 0.60 0.63 0.64 0.58 0.53 0.47 0.46 0.42 0.38 0.32 0.24 0.21 0.18 0.18 0.19 0.31 0.56 0.84 1.10 1.28 1.35
0.38 0.45 0.57 0.68 0.78 0.85 0.93 0.91 0.82 0.72 0.62 0.59 0.59 0.56 0.57 0.61 0.61 0.56 0.51 0.46 0.46 0.48 0.50 0.52 0.52 0.52 0.53 0.50 0.46 0.41 0.40 0.37 0.31 0.25 0.21 0.19 0.16 0.21 0.32 0.53 0.81 1.18 1.42
0.34 0.40 0.52 0.68 0.80 0.90 0.92 0.97 0.94 0.87 0.75 0.68 0.63 0.54 0.50 0.50 0.49 0.49 0.45 0.37 0.35 0.35 0.35 0.35 0.35 0.35 0.38 0.41 0.39 0.36 0.33 0.33 0.34 0.33 0.30 0.28 0.20 0.19 0.25 0.40 0.61 0.91 1.27
0.32 0.42 0.50 0.67 0.82 0.92 0.96 0.96 1.02 1.04 0.97 0.85 0.72 0.64 0.56 0.52 0.51 0.50 0.49 0.43 0.37 0.36 0.38 0.36 0.33 0.31 0.31 0.32 0.34 0.34 0.31 0.30 0.33 0.37 0.36 0.35 0.30 0.24 0.24 0.32 0.48 0.69 1.00
0.39 0.45 0.54 0.64 0.79 0.88 1.01 1.09 1.04 1.06 1.02 0.94 0.85 0.77 0.68 0.61 0.56 0.57 0.55 0.50 0.45 0.44 0.43 0.43 0.40 0.37 0.33 0.31 0.33 0.36 0.35 0.33 0.33 0.37 0.40 0.36 0.35 0.30 0.27 0.28 0.39 0.58 0.81
0.43 0.48 0.55 0.62 0.73 0.85 0.99 1.15 1.23 1.19 1.10 1.00 0.92 0.86 0.79 0.73 0.63 0.59 0.59 0.55 0.52 0.51 0.49 0.47 0.44 0.42 0.40 0.38 0.38 0.38 0.39 0.37 0.34 0.36 0.39 0.42 0.43 0.39 0.38 0.31 0.32 0.43 0.62
0.46 0.52 0.60 0.69 0.78 0.91 1.06 1.14 1.25 1.27 1.17 1.09 1.02 0.94 0.91 0.86 0.76 0.66 0.61 0.60 0.60 0.58 0.55 0.50 0.49 0.49 0.47 0.43 0.42 0.40 0.40 0.41 0.41 0.39 0.43 0.52 0.52 0.45 0.44 0.44 0.39 0.33 0.39
0.47 0.54 0.60 0.68 0.78 0.90 1.01 1.05 1.02 1.10 1.10 1.02 0.97 0.98 0.97 0.94 0.87 0.79 0.71 0.64 0.65 0.63 0.59 0.53 0.49 0.49 0.47 0.46 0.48 0.46 0.43 0.40 0.37 0.35 0.39 0.51 0.62 0.64 0.59 0.59 0.59 0.51 0.42
0.43 0.51 0.58 0.61 0.69 0.75 0.79 0.89 0.94 0.95 0.99 1.01 0.97 0.97 1.01 1.00 0.91 0.86 0.81 0.73 0.64 0.62 0.61 0.59 0.54 0.50 0.47 0.41 0.45 0.51 0.46 0.42 0.40 0.32 0.28 0.36 0.45 0.53 0.56 0.59 0.65 0.68 0.60
0.42 0.49 0.56 0.61 0.63 0.71 0.79 0.92 1.00 1.06 1.07 1.04 0.99 0.93 0.93 0.97 0.96 0.88 0.82 0.79 0.75 0.69 0.63 0.60 0.58 0.56 0.54 0.47 0.42 0.57 0.63 0.46 0.33 0.24 0.23 0.26 0.29 0.33 0.37 0.43 0.51 0.57 0.64
0.39 0.49 0.57 0.65 0.72 0.73 0.81 0.91 0.89 0.88 0.87 0.81 0.83 0.83 0.87 0.90 0.92 0.90 0.86 0.83 0.77 0.72 0.65 0.60 0.60 0.60 0.62 0.61 0.53 0.49 0.51 0.49 0.52 0.37 0.20 0.19 0.19 0.20 0.21 0.25 0.33 0.40 0.48
0.40 0.50 0.58 0.62 0.74 0.79 0.80 0.88 0.87 0.81 0.78 0.80 0.85 0.89 0.88 0.89 0.92 0.87 0.84 0.82 0.79 0.73 0.68 0.65 0.61 0.63 0.66 0.66 0.62 0.55 0.51 0.44 0.44 0.55 0.36 0.22 0.21 0.20 0.19 0.21 0.23 0.28 0.36
0.38 0.48 0.54 0.61 0.71 0.81 0.81 0.86 0.85 0.81 0.78 0.83 0.87 0.94 0.94 0.94 0.97 0.94 0.85 0.83 0.77 0.69 0.66 0.69 0.67 0.63 0.63 0.64 0.62 0.60 0.63 0.62 0.52 0.55 0.50 0.30 0.26 0.25 0.24 0.23 0.24 0.27 0.34

GEFSSE_prec_meanprecacc_264.txt.gz
Total_Precipitation_Accumulation
0.06 0.14 0.39 0.46 0.43 0.42 0.47 0.48 0.45 0.45 0.47 0.51 0.50 0.51 0.49 0.48 0.44 0.42 0.45 0.45 0.45 0.49 0.60 0.69 0.73 0.68 0.63 0.59 0.56 0.50 0.47 0.43 0.37 0.32 0.32 0.36 0.35 0.31 0.26 0.23 0.21 0.31 0.39
0.05 0.13 0.33 0.39 0.39 0.43 0.46 0.44 0.40 0.41 0.42 0.45 0.45 0.47 0.49 0.46 0.44 0.45 0.46 0.47 0.48 0.52 0.58 0.66 0.67 0.66 0.60 0.56 0.57 0.51 0.44 0.34 0.27 0.22 0.21 0.23 0.31 0.33 0.31 0.30 0.28 0.37 0.37
0.06 0.12 0.25 0.35 0.38 0.45 0.46 0.42 0.38 0.37 0.37 0.42 0.45 0.47 0.48 0.47 0.45 0.46 0.46 0.47 0.52 0.57 0.59 0.63 0.60 0.56 0.56 0.56 0.53 0.49 0.43 0.33 0.20 0.17 0.15 0.22 0.32 0.38 0.39 0.34 0.32 0.36 0.36
0.06 0.12 0.18 0.32 0.37 0.46 0.47 0.44 0.42 0.38 0.39 0.43 0.47 0.48 0.49 0.52 0.51 0.47 0.46 0.52 0.56 0.60 0.65 0.63 0.57 0.57 0.59 0.56 0.46 0.43 0.43 0.36 0.21 0.13 0.09 0.20 0.39 0.51 0.46 0.41 0.35 0.36 0.39
0.07 0.12 0.20 0.33 0.38 0.44 0.49 0.52 0.51 0.48 0.47 0.47 0.48 0.47 0.49 0.51 0.52 0.50 0.51 0.55 0.56 0.56 0.59 0.60 0.58 0.60 0.57 0.51 0.41 0.38 0.48 0.47 0.28 0.10 0.10 0.15 0.33 0.67 0.50 0.45 0.41 0.37 0.37
0.07 0.13 0.22 0.36 0.43 0.47 0.52 0.59 0.59 0.57 0.58 0.58 0.55 0.54 0.56 0.58 0.57 0.52 0.50 0.51 0.49 0.51 0.55 0.54 0.53 0.56 0.57 0.51 0.42 0.43 0.54 0.59 0.31 0.13 0.15 0.18 0.33 0.66 0.58 0.51 0.46 0.40 0.39
0.07 0.13 0.22 0.39 0.49 0.51 0.54 0.60 0.64 0.67 0.71 0.71 0.70 0.69 0.66 0.66 0.64 0.62 0.59 0.52 0.46 0.46 0.48 0.51 0.51 0.53 0.56 0.52 0.47 0.56 0.65 0.60 0.32 0.29 0.22 0.20 0.36 0.62 0.67 0.62 0.54 0.48 0.43
0.10 0.16 0.26 0.48 0.57 0.56 0.57 0.64 0.69 0.70 0.74 0.75 0.76 0.77 0.73 0.70 0.68 0.70 0.69 0.59 0.48 0.40 0.39 0.39 0.41 0.47 0.49 0.48 0.51 0.63 0.65 0.42 0.20 0.15 0.15 0.19 0.36 0.62 0.87 0.83 0.65 0.55 0.49
0.17 0.21 0.32 0.47 0.60 0.66 0.66 0.66 0.68 0.71 0.72 0.74 0.77 0.79 0.76 0.69 0.67 0.67 0.66 0.60 0.51 0.44 0.40 0.36 0.36 0.38 0.39 0.42 0.47 0.50 0.43 0.28 0.16 0.20 0.17 0.23 0.36 0.70 1.03 0.99 0.79 0.63 0.55
0.26 0.31 0.39 0.51 0.59 0.63 0.67 0.68 0.66 0.67 0.68 0.70 0.72 0.76 0.70 0.65 0.63 0.62 0.56 0.51 0.48 0.49 0.46 0.39 0.36 0.36 0.32 0.30 0.33 0.33 0.28 0.22 0.15 0.20 0.26 0.27 0.29 0.65 1.05 1.06 0.94 0.78 0.68
0.37 0.45 0.52 0.60 0.68 0.71 0.71 0.70 0.72 0.71 0.70 0.69 0.68 0.68 0.68 0.66 0.63 0.60 0.53 0.48 0.47 0.47 0.45 0.41 0.37 0.35 0.29 0.24 0.22 0.22 0.19 0.15 0.17 0.24 0.28 0.25 0.32 0.66 1.07 1.14 1.05 0.93 0.87
0.36 0.44 0.53 0.64 0.71 0.78 0.75 0.77 0.81 0.73 0.71 0.66 0.60 0.58 0.61 0.63 0.62 0.57 0.55 0.51 0.50 0.50 0.48 0.46 0.43 0.37 0.31 0.24 0.25 0.25 0.17 0.13 0.19 0.19 0.20 0.20 0.35 0.70 1.05 1.18 1.16 1.06 1.02
0.35 0.44 0.54 0.63 0.74 0.81 0.80 0.78 0.79 0.73 0.69 0.67 0.63 0.65 0.70 0.70 0.65 0.64 0.63 0.58 0.58 0.55 0.58 0.58 0.58 0.47 0.43 0.41 0.41 0.33 0.25 0.22 0.19 0.18 0.15 0.17 0.27 0.54 0.93 1.15 1.23 1.23 1.23
0.43 0.48 0.58 0.70 0.81 0.87 0.88 0.82 0.78 0.72 0.66 0.64 0.61 0.64 0.72 0.74 0.68 0.65 0.64 0.59 0.58 0.59 0.61 0.64 0.64 0.58 0.54 0.47 0.46 0.42 0.38 0.32 0.24 0.21 0.18 0.18 0.19 0.31 0.57 0.86 1.11 1.29 1.37
0.41 0.49 0.62 0.73 0.85 0.91 0.98 0.96 0.86 0.76 0.66 0.62 0.61 0.58 0.59 0.62 0.63 0.58 0.51 0.46 0.47 0.48 0.51 0.54 0.53 0.53 0.54 0.50 0.46 0.42 0.40 0.37 0.31 0.26 0.21 0.19 0.17 0.21 0.33 0.54 0.83 1.20 1.44
0.38 0.45 0.57 0.74 0.87 0.98 1.00 1.03 0.99 0.92 0.81 0.74 0.68 0.59 0.55 0.54 0.52 0.50 0.46 0.38 0.35 0.35 0.35 0.36 0.36 0.36 0.39 0.42 0.40 0.37 0.34 0.33 0.34 0.33 0.30 0.28 0.20 0.19 0.25 0.41 0.63 0.93 1.28
0.38 0.49 0.58 0.75 0.92 1.03 1.07 1.04 1.07 1.10 1.04 0.93 0.81 0.72 0.64 0.58 0.54 0.52 0.51 0.45 0.39 0.38 0.39 0.37 0.33 0.31 0.31 0.32 0.34 0.35 0.31 0.30 0.33 0.37 0.36 0.35 0.30 0.24 0.24 0.33 0.49 0.71 1.02
0.45 0.52 0.62 0.74 0.89 0.97 1.12 1.20 1.14 1.15 1.12 1.02 0.91 0.83 0.74 0.66 0.60 0.60 0.58 0.53 0.49 0.48 0.47 0.46 0.41 0.38 0.34 0.32 0.33 0.36 0.35 0.33 0.33 0.37 0.40 0.36 0.35 0.30 0.27 0.28 0.39 0.58 0.82
0.49 0.54 0.61 0.70 0.84 0.96 1.09 1.26 1.35 1.30 1.19 1.07 0.98 0.92 0.85 0.77 0.67 0.62 0.62 0.57 0.53 0.53 0.51 0.51 0.48 0.44 0.41 0.39 0.39 0.39 0.40 0.37 0.34 0.36 0.40 0.42 0.43 0.39 0.38 0.31 0.32 0.43 0.63
0.52 0.58 0.65 0.75 0.86 1.02 1.18 1.26 1.35 1.37 1.26 1.15 1.08 1.01 0.99 0.93 0.82 0.71 0.66 0.63 0.62 0.59 0.56 0.53 0.53 0.53 0.49 0.45 0.43 0.40 0.41 0.42 0.41 0.39 0.43 0.52 0.52 0.45 0.44 0.44 0.39 0.33 0.39
0.52 0.59 0.65 0.73 0.83 0.97 1.09 1.14 1.12 1.18 1.17 1.08 1.03 1.05 1.07 1.07 0.99 0.88 0.79 0.71 0.70 0.66 0.61 0.55 0.51 0.51 0.50 0.48 0.50 0.47 0.44 0.41 0.37 0.35 0.39 0.51 0.62 0.64 0.59 0.59 0.60 0.51 0.42
0.48 0.56 0.63 0.66 0.74 0.80 0.84 0.94 1.02 1.02 1.05 1.06 1.02 1.02 1.07 1.08 1.01 0.96 0.89 0.80 0.71 0.68 0.64 0.61 0.55 0.52 0.48 0.43 0.47 0.52 0.47 0.43 0.40 0.33 0.29 0.36 0.45 0.53 0.56 0.59 0.65 0.68 0.60
0.48 0.53 0.60 0.66 0.68 0.77 0.84 0.98 1.06 1.14 1.14 1.08 1.02 0.97 0.99 1.03 1.02 0.95 0.89 0.87 0.82 0.75 0.68 0.65 0.61 0.58 0.55 0.48 0.43 0.59 0.64 0.47 0.34 0.25 0.23 0.27 0.29 0.33 0.37 0.43 0.51 0.57 0.64
0.45 0.55 0.62 0.71 0.78 0.79 0.87 0.97 0.96 0.94 0.93 0.85 0.87 0.88 0.93 0.96 0.97 0.95 0.92 0.89 0.83 0.78 0.70 0.63 0.62 0.62 0.64 0.63 0.54 0.50 0.53 0.50 0.53 0.37 0.20 0.19 0.19 0.20 0.21 0.25 0.33 0.40 0.48
0.46 0.56 0.66 0.68 0.81 0.87 0.87 0.95 0.96 0.90 0.85 0.86 0.91 0.96 0.96 0.95 0.96 0.91 0.88 0.86 0.84 0.79 0.75 0.70 0.64 0.65 0.67 0.68 0.64 0.58 0.53 0.46 0.46 0.56 0.37 0.22 0.22 0.20 0.19 0.21 0.23 0.28 0.36
0.42 0.52 0.59 0.67 0.76 0.88 0.89 0.93 0.93 0.89 0.85 0.88 0.92 0.99 1.00 0.99 1.01 0.97 0.87 0.86 0.80 0.73 0.72 0.74 0.71 0.66 0.65 0.65 0.65 0.63 0.65 0.65 0.54 0.56 0.51 0.31 0.26 0.25 0.24 0.23 0.24 0.27 0.34

GEFSSE_prec_meanprecacc_270.txt.gz
Total_Precipitation_Accumulation
0.07 0.17 0.40 0.48 0.46 0.45 0.51 0.51 0.49 0.49 0.50 0.53 0.52 0.53 0.51 0.50 0.45 0.44 0.46 0.47 0.46 0.51 0.62 0.72 0.74 0.70 0.64 0.60 0.57 0.51 0.48 0.43 0.38 0.32 0.33 0.37 0.36 0.31 0.26 0.24 0.21 0.31 0.40
0.06 0.15 0.36 0.41 0.42 0.46 0.50 0.47 0.43 0.44 0.45 0.48 0.47 0.49 0.51 0.48 0.46 0.46 0.48 0.49 0.50 0.54 0.62 0.70 0.71 0.69 0.61 0.58 0.59 0.53 0.45 0.34 0.27 0.22 0.21 0.23 0.31 0.34 0.32 0.30 0.28 0.37 0.38
0.06 0.14 0.27 0.36 0.39 0.48 0.50 0.44 0.40 0.40 0.40 0.44 0.47 0.49 0.50 0.48 0.47 0.48 0.48 0.49 0.54 0.60 0.64 0.67 0.62 0.58 0.57 0.57 0.54 0.50 0.45 0.33 0.21 0.17 0.16 0.22 0.32 0.39 0.40 0.34 0.32 0.36 0.36
0.07 0.13 0.19 0.33 0.38 0.48 0.50 0.46 0.44 0.41 0.41 0.45 0.49 0.50 0.52 0.54 0.53 0.49 0.48 0.54 0.58 0.65 0.69 0.66 0.59 0.59 0.60 0.56 0.46 0.43 0.44 0.37 0.22 0.14 0.10 0.21 0.40 0.52 0.46 0.41 0.36 0.36 0.39
0.08 0.13 0.21 0.34 0.39 0.47 0.51 0.54 0.53 0.51 0.49 0.49 0.51 0.48 0.51 0.54 0.54 0.52 0.53 0.57 0.59 0.59 0.61 0.62 0.59 0.61 0.58 0.51 0.42 0.38 0.48 0.47 0.28 0.10 0.10 0.15 0.34 0.68 0.50 0.46 0.42 0.38 0.38
0.08 0.13 0.23 0.37 0.45 0.49 0.54 0.60 0.61 0.59 0.59 0.60 0.56 0.55 0.58 0.60 0.59 0.54 0.52 0.52 0.52 0.54 0.57 0.55 0.54 0.57 0.58 0.52 0.43 0.44 0.55 0.59 0.31 0.13 0.15 0.18 0.33 0.67 0.59 0.52 0.46 0.41 0.39
0.08 0.14 0.23 0.40 0.52 0.53 0.56 0.61 0.66 0.69 0.73 0.72 0.71 0.70 0.69 0.68 0.67 0.64 0.62 0.54 0.48 0.48 0.50 0.51 0.52 0.54 0.57 0.53 0.48 0.57 0.66 0.60 0.33 0.29 0.22 0.21 0.37 0.63 0.67 0.62 0.55 0.48 0.44
0.11 0.18 0.28 0.49 0.59 0.58 0.60 0.67 0.71 0.72 0.77 0.77 0.78 0.78 0.75 0.72 0.69 0.72 0.71 0.61 0.50 0.42 0.40 0.40 0.42 0.48 0.50 0.48 0.51 0.64 0.65 0.42 0.20 0.16 0.15 0.20 0.37 0.63 0.88 0.83 0.66 0.56 0.50
0.19 0.23 0.34 0.49 0.62 0.68 0.69 0.70 0.71 0.74 0.76 0.76 0.79 0.81 0.79 0.72 0.70 0.69 0.68 0.62 0.52 0.46 0.41 0.37 0.37 0.39 0.40 0.42 0.47 0.50 0.44 0.28 0.16 0.21 0.17 0.24 0.37 0.70 1.04 1.00 0.80 0.65 0.56
0.29 0.34 0.42 0.53 0.61 0.65 0.71 0.72 0.69 0.69 0.71 0.72 0.74 0.77 0.71 0.66 0.66 0.64 0.58 0.53 0.49 0.49 0.47 0.40 0.37 0.37 0.33 0.31 0.33 0.33 0.28 0.22 0.15 0.21 0.27 0.28 0.29 0.66 1.06 1.07 0.94 0.80 0.69
0.42 0.50 0.56 0.64 0.71 0.75 0.75 0.72 0.75 0.74 0.74 0.72 0.70 0.70 0.69 0.67 0.66 0.61 0.54 0.49 0.48 0.48 0.45 0.41 0.38 0.35 0.30 0.25 0.22 0.22 0.19 0.15 0.17 0.25 0.29 0.26 0.33 0.67 1.07 1.15 1.06 0.95 0.89
0.40 0.49 0.57 0.68 0.76 0.83 0.80 0.81 0.86 0.77 0.74 0.70 0.62 0.59 0.63 0.65 0.65 0.58 0.56 0.52 0.51 0.50 0.48 0.47 0.43 0.37 0.31 0.25 0.26 0.26 0.18 0.14 0.19 0.20 0.20 0.20 0.36 0.71 1.06 1.19 1.17 1.07 1.04
0.39 0.48 0.58 0.68 0.79 0.87 0.86 0.84 0.85 0.80 0.75 0.72 0.66 0.67 0.73 0.74 0.68 0.67 0.64 0.59 0.58 0.55 0.58 0.58 0.58 0.48 0.44 0.42 0.41 0.34 0.26 0.23 0.20 0.19 0.15 0.18 0.28 0.55 0.94 1.17 1.24 1.24 1.24
0.48 0.55 0.65 0.77 0.87 0.94 0.95 0.89 0.84 0.78 0.73 0.71 0.68 0.70 0.77 0.79 0.72 0.68 0.66 0.59 0.59 0.59 0.61 0.64 0.64 0.59 0.55 0.48 0.47 0.42 0.38 0.32 0.25 0.23 0.19 0.18 0.20 0.32 0.58 0.86 1.12 1.31 1.38
0.48 0.57 0.71 0.83 0.93 0.99 1.06 1.03 0.91 0.80 0.71 0.69 0.70 0.65 0.65 0.69 0.68 0.62 0.53 0.47 0.47 0.49 0.52 0.54 0.53 0.54 0.55 0.51 0.47 0.43 0.41 0.38 0.32 0.27 0.22 0.19 0.17 0.21 0.33 0.54 0.83 1.21 1.45
0.45 0.54 0.68 0.85 0.98 1.07 1.08 1.10 1.05 0.97 0.85 0.79 0.74 0.67 0.62 0.61 0.60 0.57 0.51 0.41 0.37 0.37 0.37 0.38 0.37 0.38 0.41 0.43 0.41 0.38 0.35 0.35 0.35 0.34 0.31 0.28 0.20 0.19 0.25 0.42 0.63 0.94 1.30
0.45 0.58 0.68 0.86 1.03 1.14 1.17 1.12 1.13 1.15 1.08 0.97 0.85 0.76 0.69 0.64 0.61 0.59 0.58 0.54 0.49 0.45 0.42 0.40 0.36 0.33 0.33 0.34 0.36 0.37 0.33 0.32 0.34 0.38 0.37 0.35 0.30 0.24 0.24 0.33 0.50 0.71 1.03
0.52 0.61 0.71 0.84 1.01 1.11 1.24 1.30 1.21 1.20 1.16 1.07 0.94 0.86 0.77 0.69 0.62 0.63 0.61 0.56 0.56 0.58 0.56 0.53 0.47 0.42 0.36 0.33 0.35 0.38 0.36 0.34 0.35 0.38 0.40 0.37 0.35 0.31 0.27 0.28 0.40 0.59 0.83
0.55 0.61 0.69 0.79 0.94 1.08 1.23 1.41 1.46 1.37 1.24 1.11 1.01 0.94 0.87 0.79 0.69 0.64 0.63 0.59 0.55 0.56 0.56 0.58 0.57 0.54 0.49 0.43 0.41 0.41 0.41 0.38 0.35 0.36 0.40 0.43 0.43 0.39 0.39 0.32 0.32 0.43 0.63
0.58 0.64 0.73 0.82 0.95 1.13 1.31 1.42 1.53 1.50 1.35 1.21 1.13 1.04 1.01 0.95 0.84 0.73 0.68 0.65 0.63 0.61 0.59 0.55 0.57 0.58 0.56 0.51 0.48 0.44 0.44 0.44 0.42 0.39 0.43 0.52 0.52 0.46 0.45 0.45 0.40 0.34 0.39
0.59 0.65 0.72 0.81 0.90 1.07 1.21 1.27 1.26 1.35 1.30 1.18 1.09 1.09 1.10 1.09 1.01 0.90 0.81 0.74 0.73 0.69 0.64 0.57 0.53 0.55 0.55 0.52 0.54 0.51 0.47 0.43 0.39 0.35 0.39 0.51 0.63 0.65 0.60 0.60 0.60 0.52 0.42
0.54 0.61 0.69 0.74 0.81 0.87 0.93 1.06 1.13 1.15 1.20 1.18 1.11 1.08 1.11 1.11 1.04 0.98 0.91 0.82 0.73 0.70 0.66 0.63 0.57 0.54 0.51 0.46 0.50 0.56 0.50 0.45 0.42 0.34 0.29 0.36 0.46 0.54 0.57 0.60 0.66 0.69 0.60
0.53 0.59 0.65 0.72 0.75 0.84 0.92 1.06 1.16 1.25 1.27 1.23 1.13 1.04 1.04 1.08 1.07 0.99 0.93 0.90 0.85 0.77 0.71 0.68 0.64 0.60 0.57 0.50 0.45 0.61 0.66 0.49 0.35 0.26 0.24 0.27 0.29 0.33 0.38 0.44 0.52 0.58 0.65
0.51 0.60 0.69 0.77 0.85 0.86 0.94 1.03 1.03 1.00 1.02 0.96 0.99 0.98 1.00 1.02 1.02 1.00 0.97 0.95 0.89 0.83 0.73 0.66 0.66 0.66 0.67 0.66 0.57 0.52 0.54 0.51 0.54 0.38 0.21 0.20 0.19 0.20 0.21 0.26 0.34 0.40 0.49
0.53 0.62 0.74 0.76 0.88 0.94 0.95 1.00 1.00 0.95 0.90 0.93 1.00 1.06 1.06 1.05 1.04 0.96 0.92 0.91 0.88 0.83 0.79 0.74 0.68 0.69 0.71 0.71 0.67 0.60 0.55 0.47 0.47 0.57 0.38 0.23 0.23 0.21 0.20 0.21 0.24 0.28 0.36
0.49 0.59 0.67 0.77 0.83 0.96 0.97 0.99 0.98 0.93 0.88 0.92 0.96 1.06 1.09 1.09 1.10 1.04 0.92 0.89 0.84 0.77 0.76 0.79 0.77 0.72 0.70 0.69 0.68 0.66 0.67 0.67 0.55 0.58 0.52 0.31 0.27 0.26 0.25 0.25 0.25 0.28 0.34

GEFSSE_prec_meanprecacc_276.txt.gz
Total_Precipitation_Accumulation
0.08 0.18 0.42 0.49 0.47 0.46 0.52 0.53 0.51 0.50 0.52 0.55 0.54 0.54 0.52 0.50 0.46 0.45 0.47 0.48 0.47 0.52 0.63 0.73 0.75 0.70 0.64 0.60 0.58 0.52 0.49 0.44 0.39 0.33 0.34 0.38 0.37 0.32 0.27 0.25 0.22 0.32 0.40
0.07 0.16 0.38 0.44 0.44 0.47 0.51 0.48 0.44 0.46 0.47 0.50 0.48 0.50 0.53 0.49 0.47 0.47 0.50 0.50 0.52 0.56 0.63 0.71 0.71 0.69 0.62 0.58 0.60 0.54 0.46 0.35 0.28 0.23 0.22 0.24 0.32 0.35 0.32 0.30 0.29 0.38 0.38
0.08 0.15 0.29 0.38 0.41 0.50 0.52 0.45 0.41 0.41 0.42 0.46 0.48 0.50 0.52 0.50 0.48 0.50 0.50 0.50 0.57 0.63 0.66 0.69 0.64 0.59 0.58 0.58 0.55 0.51 0.45 0.34 0.21 0.18 0.16 0.23 0.33 0.39 0.40 0.35 0.33 0.37 0.37
0.09 0.15 0.20 0.34 0.39 0.50 0.52 0.47 0.45 0.42 0.43 0.47 0.50 0.51 0.52 0.56 0.55 0.51 0.49 0.55 0.60 0.69 0.74 0.68 0.62 0.60 0.60 0.57 0.47 0.44 0.45 0.37 0.22 0.14 0.10 0.21 0.40 0.53 0.47 0.42 0.36 0.37 0.39
0.09 0.13 0.22 0.35 0.40 0.49 0.53 0.55 0.54 0.52 0.51 0.51 0.52 0.49 0.52 0.56 0.56 0.54 0.53 0.57 0.61 0.63 0.64 0.63 0.61 0.63 0.60 0.52 0.42 0.39 0.49 0.48 0.29 0.10 0.10 0.15 0.34 0.69 0.51 0.46 0.42 0.38 0.39
0.08 0.14 0.24 0.38 0.48 0.52 0.56 0.61 0.62 0.60 0.61 0.62 0.58 0.56 0.60 0.63 0.62 0.56 0.54 0.54 0.54 0.58 0.59 0.56 0.56 0.58 0.59 0.52 0.44 0.44 0.55 0.60 0.31 0.13 0.15 0.18 0.34 0.68 0.60 0.53 0.47 0.42 0.40
0.09 0.15 0.24 0.43 0.55 0.56 0.58 0.63 0.67 0.70 0.74 0.75 0.73 0.71 0.71 0.70 0.69 0.67 0.64 0.56 0.50 0.51 0.51 0.52 0.52 0.54 0.57 0.54 0.49 0.58 0.66 0.61 0.33 0.29 0.22 0.21 0.37 0.64 0.69 0.64 0.56 0.49 0.45
0.12 0.19 0.30 0.54 0.64 0.60 0.62 0.68 0.73 0.74 0.78 0.80 0.80 0.80 0.78 0.74 0.71 0.75 0.74 0.63 0.52 0.43 0.41 0.41 0.43 0.48 0.50 0.49 0.52 0.65 0.66 0.43 0.20 0.16 0.15 0.20 0.37 0.64 0.89 0.84 0.67 0.57 0.50
0.21 0.25 0.36 0.52 0.65 0.71 0.71 0.72 0.73 0.76 0.78 0.78 0.81 0.83 0.80 0.73 0.72 0.71 0.70 0.64 0.54 0.47 0.42 0.38 0.37 0.39 0.40 0.43 0.48 0.51 0.44 0.29 0.17 0.21 0.17 0.24 0.37 0.71 1.05 1.00 0.80 0.65 0.56
0.32 0.36 0.44 0.56 0.65 0.69 0.74 0.73 0.70 0.70 0.72 0.74 0.75 0.78 0.72 0.68 0.67 0.66 0.60 0.54 0.50 0.50 0.47 0.40 0.37 0.37 0.33 0.32 0.34 0.34 0.28 0.22 0.15 0.21 0.27 0.28 0.30 0.66 1.07 1.08 0.95 0.80 0.70
0.45 0.53 0.59 0.67 0.75 0.79 0.78 0.75 0.77 0.75 0.75 0.73 0.70 0.70 0.70 0.68 0.67 0.63 0.56 0.50 0.49 0.49 0.46 0.42 0.38 0.36 0.31 0.25 0.23 0.22 0.20 0.15 0.17 0.25 0.29 0.26 0.33 0.68 1.09 1.16 1.07 0.95 0.89
0.43 0.52 0.59 0.72 0.79 0.87 0.85 0.85 0.89 0.79 0.76 0.72 0.64 0.59 0.64 0.67 0.66 0.60 0.58 0.53 0.52 0.51 0.49 0.48 0.44 0.38 0.31 0.25 0.27 0.27 0.18 0.14 0.19 0.20 0.21 0.21 0.37 0.72 1.08 1.21 1.18 1.08 1.05
0.43 0.52 0.62 0.71 0.82 0.90 0.91 0.90 0.90 0.84 0.78 0.74 0.69 0.68 0.74 0.75 0.70 0.68 0.65 0.60 0.59 0.56 0.60 0.60 0.59 0.48 0.44 0.42 0.42 0.35 0.27 0.24 0.21 0.19 0.16 0.18 0.29 0.57 0.96 1.18 1.26 1.25 1.26
0.53 0.59 0.70 0.82 0.93 1.00 1.00 0.95 0.90 0.83 0.76 0.74 0.72 0.73 0.78 0.81 0.74 0.69 0.67 0.61 0.59 0.60 0.62 0.65 0.66 0.60 0.55 0.48 0.47 0.43 0.39 0.33 0.26 0.24 0.19 0.19 0.20 0.34 0.60 0.88 1.14 1.33 1.41
0.53 0.62 0.76 0.89 1.00 1.07 1.14 1.10 0.97 0.86 0.75 0.73 0.73 0.68 0.68 0.71 0.70 0.63 0.55 0.49 0.49 0.50 0.53 0.55 0.55 0.55 0.56 0.52 0.47 0.43 0.42 0.39 0.33 0.28 0.23 0.21 0.18 0.22 0.35 0.56 0.85 1.23 1.47
0.52 0.61 0.74 0.91 1.05 1.15 1.16 1.19 1.14 1.05 0.92 0.85 0.79 0.72 0.67 0.65 0.64 0.61 0.53 0.43 0.39 0.38 0.38 0.38 0.38 0.39 0.42 0.44 0.41 0.38 0.36 0.35 0.36 0.35 0.32 0.29 0.22 0.21 0.27 0.43 0.66 0.96 1.32
0.50 0.66 0.76 0.93 1.12 1.23 1.25 1.21 1.24 1.25 1.17 1.05 0.93 0.83 0.74 0.69 0.66 0.65 0.63 0.58 0.52 0.47 0.44 0.41 0.37 0.34 0.34 0.35 0.37 0.37 0.34 0.33 0.36 0.39 0.38 0.36 0.31 0.25 0.25 0.35 0.52 0.74 1.05
0.56 0.67 0.79 0.92 1.09 1.20 1.33 1.38 1.31 1.32 1.26 1.15 1.02 0.94 0.84 0.74 0.66 0.68 0.67 0.61 0.60 0.61 0.58 0.55 0.49 0.44 0.38 0.35 0.36 0.39 0.37 0.36 0.36 0.39 0.42 0.38 0.36 0.32 0.28 0.29 0.41 0.60 0.85
0.60 0.66 0.75 0.86 1.02 1.17 1.33 1.51 1.54 1.47 1.36 1.22 1.10 1.01 0.95 0.85 0.72 0.67 0.67 0.63 0.59 0.59 0.59 0.61 0.59 0.56 0.51 0.45 0.43 0.42 0.43 0.41 0.38 0.39 0.42 0.45 0.44 0.40 0.39 0.32 0.33 0.44 0.65
0.67 0.71 0.79 0.90 1.03 1.23 1.43 1.54 1.63 1.60 1.46 1.34 1.24 1.14 1.10 1.04 0.90 0.76 0.70 0.67 0.66 0.64 0.61 0.57 0.58 0.60 0.57 0.53 0.49 0.45 0.45 0.47 0.47 0.44 0.48 0.56 0.55 0.47 0.45 0.45 0.40 0.34 0.40
0.69 0.74 0.80 0.88 0.96 1.15 1.31 1.38 1.37 1.43 1.38 1.28 1.23 1.22 1.20 1.18 1.09 0.95 0.85 0.77 0.77 0.72 0.65 0.58 0.54 0.56 0.55 0.53 0.55 0.52 0.48 0.45 0.41 0.39 0.42 0.53 0.64 0.65 0.60 0.60 0.60 0.52 0.42
0.62 0.71 0.78 0.82 0.87 0.93 1.00 1.16 1.25 1.27 1.30 1.27 1.21 1.22 1.25 1.22 1.13 1.05 0.97 0.86 0.76 0.73 0.68 0.64 0.58 0.54 0.51 0.47 0.51 0.57 0.51 0.46 0.43 0.35 0.30 0.37 0.46 0.54 0.57 0.60 0.66 0.69 0.61
0.61 0.68 0.74 0.81 0.83 0.90 0.97 1.14 1.28 1.40 1.41 1.34 1.23 1.16 1.19 1.21 1.16 1.07 0.99 0.95 0.89 0.80 0.73 0.69 0.65 0.61 0.58 0.51 0.46 0.63 0.69 0.51 0.36 0.27 0.25 0.28 0.29 0.34 0.38 0.44 0.52 0.58 0.66
0.60 0.69 0.79 0.87 0.94 0.93 1.00 1.09 1.08 1.10 1.16 1.11 1.11 1.07 1.11 1.19 1.19 1.12 1.07 1.03 0.95 0.87 0.76 0.68 0.67 0.67 0.69 0.67 0.58 0.54 0.56 0.54 0.57 0.40 0.22 0.21 0.20 0.21 0.22 0.26 0.34 0.40 0.49
0.65 0.72 0.84 0.88 0.98 1.03 1.03 1.07 1.06 1.00 0.98 1.06 1.16 1.21 1.16 1.15 1.19 1.15 1.08 1.03 0.98 0.92 0.84 0.77 0.69 0.70 0.72 0.74 0.70 0.63 0.57 0.50 0.49 0.60 0.40 0.24 0.24 0.22 0.20 0.21 0.24 0.29 0.37
0.60 0.70 0.78 0.89 0.94 1.06 1.07 1.07 1.05 0.98 0.93 0.98 1.06 1.20 1.23 1.19 1.18 1.15 1.08 1.07 0.98 0.90 0.87 0.87 0.83 0.76 0.72 0.71 0.71 0.69 0.71 0.70 0.58 0.61 0.55 0.34 0.29 0.28 0.27 0.26 0.27 0.30 0.37

GEFSSE_prec_meanprecacc_282.txt.gz
Total_Precipitation_Accumulation
0.09 0.19 0.45 0.52 0.49 0.48 0.54 0.55 0.52 0.51 0.53 0.56 0.55 0.56 0.54 0.53 0.49 0.47 0.48 0.48 0.48 0.53 0.64 0.74 0.76 0.71 0.65 0.61 0.59 0.53 0.50 0.45 0.41 0.35 0.35 0.39 0.38 0.33 0.27 0.25 0.22 0.32 0.41
0.08 0.17 0.41 0.48 0.47 0.50 0.53 0.50 0.46 0.47 0.49 0.51 0.50 0.52 0.54 0.51 0.48 0.49 0.52 0.52 0.53 0.59 0.65 0.71 0.72 0.70 0.63 0.59 0.61 0.55 0.47 0.35 0.29 0.24 0.23 0.25 0.33 0.36 0.33 0.31 0.29 0.38 0.39
0.09 0.17 0.32 0.41 0.43 0.52 0.54 0.48 0.43 0.43 0.44 0.47 0.50 0.51 0.53 0.51 0.50 0.52 0.52 0.52 0.58 0.65 0.68 0.70 0.64 0.60 0.58 0.59 0.56 0.51 0.46 0.34 0.22 0.18 0.17 0.23 0.34 0.41 0.41 0.36 0.34 0.38 0.38
0.10 0.16 0.21 0.36 0.41 0.52 0.55 0.50 0.47 0.45 0.45 0.49 0.52 0.52 0.53 0.57 0.56 0.52 0.50 0.56 0.61 0.70 0.76 0.69 0.62 0.61 0.61 0.58 0.48 0.44 0.45 0.38 0.23 0.15 0.10 0.22 0.42 0.55 0.48 0.43 0.38 0.38 0.41
0.09 0.14 0.23 0.37 0.43 0.52 0.57 0.59 0.57 0.54 0.53 0.54 0.55 0.51 0.54 0.57 0.58 0.55 0.54 0.59 0.62 0.64 0.66 0.64 0.62 0.64 0.61 0.54 0.43 0.39 0.49 0.48 0.29 0.10 0.10 0.16 0.35 0.71 0.53 0.48 0.44 0.40 0.40
0.09 0.14 0.25 0.41 0.51 0.57 0.59 0.64 0.64 0.62 0.63 0.64 0.61 0.59 0.62 0.64 0.64 0.59 0.56 0.56 0.57 0.60 0.61 0.57 0.57 0.61 0.61 0.53 0.44 0.45 0.56 0.60 0.31 0.13 0.15 0.18 0.34 0.69 0.62 0.55 0.49 0.44 0.42
0.09 0.16 0.26 0.46 0.59 0.60 0.61 0.66 0.70 0.73 0.77 0.78 0.76 0.74 0.73 0.73 0.72 0.71 0.68 0.59 0.53 0.53 0.53 0.54 0.54 0.55 0.59 0.55 0.50 0.58 0.66 0.61 0.33 0.30 0.22 0.21 0.38 0.65 0.70 0.65 0.57 0.51 0.46
0.13 0.20 0.32 0.58 0.68 0.64 0.65 0.72 0.77 0.78 0.81 0.83 0.84 0.83 0.80 0.76 0.75 0.80 0.76 0.66 0.55 0.45 0.43 0.43 0.44 0.50 0.52 0.50 0.53 0.65 0.66 0.43 0.21 0.16 0.15 0.20 0.38 0.65 0.90 0.85 0.68 0.58 0.51
0.23 0.27 0.38 0.56 0.71 0.75 0.75 0.75 0.76 0.79 0.81 0.81 0.84 0.85 0.82 0.76 0.75 0.74 0.72 0.65 0.56 0.49 0.44 0.40 0.38 0.41 0.42 0.45 0.49 0.52 0.44 0.29 0.17 0.21 0.17 0.24 0.38 0.72 1.05 1.01 0.81 0.66 0.57
0.34 0.39 0.48 0.61 0.70 0.74 0.78 0.77 0.73 0.74 0.75 0.77 0.78 0.80 0.74 0.70 0.69 0.68 0.61 0.56 0.52 0.52 0.50 0.43 0.39 0.39 0.34 0.32 0.35 0.34 0.28 0.22 0.15 0.21 0.27 0.28 0.31 0.68 1.08 1.09 0.96 0.81 0.71
0.49 0.56 0.63 0.73 0.81 0.86 0.84 0.78 0.79 0.78 0.79 0.77 0.73 0.72 0.72 0.70 0.68 0.65 0.57 0.52 0.51 0.51 0.48 0.44 0.40 0.39 0.33 0.27 0.24 0.24 0.21 0.16 0.17 0.25 0.29 0.26 0.34 0.69 1.10 1.17 1.08 0.97 0.90
0.47 0.55 0.63 0.79 0.86 0.93 0.90 0.89 0.92 0.83 0.79 0.75 0.67 0.62 0.66 0.68 0.68 0.61 0.59 0.54 0.53 0.53 0.51 0.49 0.45 0.39 0.32 0.26 0.27 0.28 0.20 0.16 0.21 0.20 0.21 0.21 0.38 0.74 1.09 1.22 1.19 1.09 1.06
0.47 0.56 0.66 0.78 0.90 0.97 0.98 0.96 0.95 0.88 0.81 0.77 0.72 0.71 0.77 0.78 0.72 0.70 0.67 0.61 0.60 0.58 0.62 0.62 0.61 0.50 0.44 0.42 0.42 0.36 0.28 0.26 0.23 0.20 0.16 0.19 0.30 0.59 0.98 1.19 1.26 1.27 1.27
0.59 0.65 0.75 0.88 1.03 1.07 1.06 1.00 0.95 0.86 0.80 0.78 0.74 0.75 0.81 0.84 0.76 0.72 0.69 0.62 0.60 0.61 0.64 0.68 0.67 0.61 0.56 0.49 0.47 0.43 0.39 0.34 0.27 0.25 0.20 0.20 0.21 0.36 0.62 0.90 1.15 1.34 1.42
0.60 0.68 0.82 0.95 1.09 1.16 1.21 1.16 1.02 0.90 0.78 0.76 0.78 0.72 0.71 0.74 0.73 0.67 0.59 0.52 0.50 0.52 0.54 0.57 0.56 0.56 0.56 0.52 0.47 0.43 0.42 0.39 0.34 0.28 0.23 0.21 0.19 0.24 0.37 0.59 0.87 1.25 1.49
0.58 0.68 0.80 0.97 1.15 1.26 1.25 1.27 1.21 1.11 0.96 0.88 0.84 0.78 0.72 0.70 0.68 0.63 0.56 0.46 0.41 0.40 0.39 0.40 0.39 0.40 0.42 0.45 0.42 0.38 0.36 0.35 0.36 0.36 0.32 0.30 0.23 0.22 0.28 0.45 0.67 0.98 1.34
0.56 0.72 0.83 1.00 1.20 1.35 1.37 1.32 1.32 1.32 1.22 1.09 0.97 0.88 0.81 0.75 0.71 0.69 0.67 0.62 0.56 0.50 0.46 0.43 0.38 0.35 0.34 0.36 0.37 0.38 0.34 0.33 0.36 0.39 0.38 0.36 0.31 0.26 0.26 0.36 0.54 0.76 1.07
0.64 0.74 0.87 0.99 1.16 1.29 1.44 1.49 1.41 1.41 1.34 1.21 1.07 0.99 0.90 0.81 0.74 0.74 0.72 0.65 0.64 0.65 0.61 0.57 0.51 0.45 0.39 0.35 0.36 0.39 0.37 0.36 0.36 0.39 0.42 0.38 0.36 0.32 0.29 0.30 0.42 0.62 0.88
0.68 0.74 0.83 0.92 1.07 1.22 1.40 1.59 1.64 1.59 1.47 1.31 1.15 1.05 1.00 0.91 0.78 0.72 0.72 0.66 0.62 0.63 0.63 0.64 0.62 0.58 0.52 0.46 0.43 0.42 0.43 0.41 0.38 0.39 0.43 0.45 0.44 0.40 0.39 0.33 0.34 0.46 0.67
0.75 0.80 0.88 0.97 1.07 1.27 1.48 1.61 1.71 1.71 1.62 1.50 1.35 1.19 1.13 1.07 0.94 0.81 0.76 0.73 0.71 0.68 0.64 0.60 0.60 0.61 0.59 0.54 0.50 0.46 0.46 0.47 0.47 0.44 0.48 0.56 0.55 0.48 0.46 0.45 0.40 0.35 0.41
0.79 0.84 0.91 0.95 1.01 1.19 1.36 1.43 1.43 1.52 1.50 1.46 1.44 1.37 1.28 1.23 1.13 1.00 0.90 0.83 0.83 0.77 0.70 0.62 0.57 0.58 0.57 0.55 0.56 0.53 0.48 0.45 0.42 0.39 0.42 0.54 0.65 0.66 0.61 0.61 0.61 0.53 0.43
0.74 0.82 0.90 0.89 0.92 0.98 1.05 1.21 1.30 1.32 1.36 1.38 1.37 1.41 1.41 1.32 1.20 1.10 1.01 0.91 0.82 0.80 0.76 0.69 0.61 0.57 0.53 0.48 0.52 0.58 0.52 0.47 0.43 0.35 0.30 0.37 0.47 0.55 0.58 0.61 0.68 0.71 0.62
0.75 0.81 0.87 0.89 0.89 0.97 1.05 1.21 1.33 1.46 1.48 1.41 1.33 1.31 1.35 1.33 1.26 1.16 1.07 1.01 0.95 0.87 0.80 0.77 0.71 0.65 0.60 0.53 0.47 0.65 0.70 0.52 0.37 0.27 0.25 0.28 0.30 0.35 0.39 0.45 0.54 0.60 0.68
0.74 0.83 0.93 0.98 1.01 1.01 1.09 1.17 1.15 1.16 1.22 1.17 1.16 1.15 1.25 1.35 1.30 1.21 1.20 1.17 1.05 0.95 0.84 0.77 0.76 0.74 0.74 0.71 0.60 0.55 0.57 0.55 0.58 0.40 0.23 0.21 0.21 0.21 0.23 0.28 0.36 0.42 0.51
0.79 0.87 0.99 1.02 1.09 1.12 1.10 1.15 1.14 1.07 1.04 1.11 1.22 1.27 1.24 1.28 1.35 1.26 1.17 1.16 1.14 1.04 0.96 0.89 0.80 0.80 0.80 0.80 0.75 0.65 0.58 0.51 0.50 0.61 0.41 0.25 0.24 0.23 0.22 0.24 0.27 0.32 0.40
0.73 0.86 0.94 1.05 1.09 1.20 1.17 1.15 1.11 1.03 0.97 1.02 1.10 1.25 1.32 1.30 1.32 1.34 1.24 1.18 1.11 1.03 1.00 1.01 0.95 0.86 0.81 0.80 0.78 0.75 0.75 0.72 0.60 0.63 0.57 0.35 0.30 0.29 0.29 0.29 0.30 0.33 0.40

GEFSSE_prec_meanprecacc_288.txt.gz
Total_Precipitation_Accumulation
0.09 0.20 0.46 0.53 0.50 0.50 0.56 0.56 0.54 0.54 0.54 0.58 0.57 0.59 0.57 0.56 0.51 0.49 0.50 0.51 0.50 0.56 0.66 0.75 0.77 0.72 0.66 0.62 0.59 0.54 0.51 0.46 0.41 0.35 0.35 0.39 0.39 0.34 0.28 0.25 0.22 0.32 0.41
0.08 0.18 0.43 0.49 0.49 0.51 0.55 0.51 0.48 0.49 0.50 0.52 0.52 0.55 0.56 0.53 0.51 0.51 0.54 0.54 0.55 0.61 0.67 0.73 0.73 0.70 0.63 0.60 0.62 0.55 0.48 0.36 0.29 0.24 0.23 0.26 0.34 0.37 0.34 0.31 0.29 0.39 0.40
0.09 0.17 0.33 0.43 0.45 0.54 0.56 0.50 0.46 0.46 0.46 0.48 0.52 0.53 0.54 0.53 0.52 0.54 0.54 0.53 0.60 0.67 0.70 0.72 0.66 0.61 0.59 0.59 0.56 0.52 0.47 0.35 0.22 0.19 0.18 0.24 0.34 0.42 0.42 0.37 0.35 0.39 0.39
0.10 0.17 0.22 0.37 0.43 0.54 0.57 0.52 0.50 0.47 0.47 0.50 0.54 0.54 0.55 0.59 0.59 0.55 0.53 0.58 0.63 0.72 0.78 0.72 0.64 0.63 0.62 0.59 0.49 0.46 0.46 0.38 0.23 0.15 0.11 0.22 0.42 0.56 0.50 0.45 0.40 0.40 0.43
0.09 0.15 0.24 0.38 0.44 0.54 0.59 0.61 0.59 0.56 0.55 0.56 0.57 0.53 0.56 0.60 0.61 0.58 0.57 0.61 0.64 0.67 0.68 0.67 0.64 0.67 0.64 0.55 0.45 0.40 0.50 0.48 0.29 0.11 0.11 0.16 0.36 0.72 0.54 0.50 0.46 0.42 0.42
0.09 0.15 0.26 0.42 0.53 0.59 0.61 0.67 0.66 0.64 0.66 0.67 0.63 0.61 0.65 0.68 0.67 0.62 0.58 0.59 0.60 0.64 0.65 0.60 0.60 0.63 0.64 0.55 0.46 0.46 0.56 0.60 0.31 0.14 0.16 0.19 0.35 0.70 0.63 0.57 0.51 0.45 0.43
0.10 0.17 0.27 0.48 0.62 0.63 0.64 0.68 0.72 0.75 0.80 0.80 0.78 0.77 0.77 0.77 0.76 0.75 0.71 0.63 0.57 0.57 0.58 0.58 0.58 0.59 0.62 0.57 0.51 0.59 0.67 0.61 0.33 0.30 0.22 0.22 0.38 0.66 0.71 0.66 0.58 0.51 0.46
0.14 0.21 0.33 0.60 0.71 0.67 0.68 0.75 0.79 0.80 0.84 0.85 0.87 0.87 0.84 0.80 0.79 0.84 0.80 0.69 0.58 0.49 0.46 0.47 0.48 0.54 0.55 0.53 0.55 0.66 0.67 0.43 0.21 0.16 0.15 0.20 0.39 0.66 0.91 0.86 0.69 0.58 0.51
0.23 0.28 0.40 0.59 0.74 0.79 0.78 0.78 0.78 0.82 0.84 0.84 0.87 0.89 0.86 0.79 0.79 0.78 0.76 0.69 0.60 0.52 0.47 0.44 0.42 0.44 0.46 0.48 0.52 0.53 0.45 0.29 0.17 0.21 0.18 0.25 0.39 0.73 1.07 1.03 0.82 0.67 0.57
0.35 0.41 0.50 0.64 0.73 0.76 0.81 0.80 0.77 0.77 0.79 0.80 0.81 0.83 0.77 0.73 0.72 0.71 0.65 0.60 0.56 0.56 0.54 0.47 0.43 0.43 0.38 0.37 0.39 0.36 0.29 0.23 0.15 0.21 0.27 0.28 0.31 0.69 1.09 1.10 0.97 0.82 0.71
0.52 0.60 0.66 0.76 0.84 0.88 0.87 0.82 0.83 0.83 0.82 0.80 0.76 0.76 0.74 0.73 0.71 0.66 0.59 0.55 0.54 0.54 0.51 0.48 0.43 0.43 0.38 0.32 0.29 0.27 0.22 0.17 0.18 0.25 0.29 0.27 0.35 0.71 1.11 1.18 1.09 0.98 0.91
0.51 0.60 0.68 0.83 0.89 0.97 0.94 0.94 0.98 0.88 0.83 0.79 0.70 0.65 0.69 0.71 0.70 0.63 0.60 0.56 0.54 0.56 0.55 0.54 0.49 0.43 0.37 0.30 0.31 0.31 0.22 0.17 0.22 0.21 0.21 0.21 0.39 0.76 1.11 1.22 1.20 1.10 1.07
0.51 0.61 0.71 0.83 0.95 1.02 1.03 1.02 1.02 0.94 0.87 0.82 0.76 0.75 0.80 0.80 0.74 0.72 0.68 0.63 0.62 0.60 0.66 0.67 0.68 0.56 0.50 0.45 0.44 0.37 0.29 0.27 0.24 0.22 0.17 0.19 0.32 0.63 1.00 1.20 1.27 1.28 1.29
0.65 0.71 0.81 0.94 1.09 1.14 1.12 1.06 1.00 0.93 0.86 0.84 0.79 0.79 0.85 0.87 0.79 0.73 0.70 0.63 0.62 0.63 0.66 0.73 0.75 0.66 0.62 0.55 0.52 0.45 0.39 0.34 0.28 0.26 0.22 0.21 0.23 0.39 0.65 0.92 1.16 1.35 1.43
0.67 0.76 0.88 1.01 1.15 1.23 1.28 1.22 1.08 0.96 0.85 0.82 0.83 0.78 0.75 0.77 0.76 0.68 0.60 0.54 0.52 0.53 0.56 0.60 0.63 0.62 0.60 0.58 0.54 0.47 0.44 0.40 0.34 0.29 0.24 0.22 0.20 0.26 0.40 0.62 0.90 1.27 1.51
0.67 0.76 0.87 1.04 1.22 1.34 1.33 1.34 1.27 1.16 1.02 0.95 0.90 0.84 0.77 0.72 0.69 0.65 0.57 0.48 0.44 0.42 0.41 0.42 0.42 0.45 0.46 0.46 0.44 0.41 0.37 0.36 0.36 0.36 0.33 0.30 0.23 0.23 0.29 0.47 0.70 1.01 1.37
0.66 0.82 0.92 1.09 1.30 1.45 1.46 1.40 1.40 1.39 1.29 1.16 1.04 0.95 0.86 0.78 0.72 0.69 0.68 0.63 0.58 0.52 0.49 0.46 0.41 0.39 0.38 0.39 0.40 0.40 0.35 0.34 0.36 0.39 0.38 0.36 0.32 0.27 0.27 0.37 0.55 0.78 1.10
0.74 0.85 0.97 1.10 1.28 1.39 1.54 1.59 1.50 1.49 1.43 1.28 1.13 1.06 0.96 0.84 0.75 0.75 0.73 0.67 0.66 0.68 0.65 0.62 0.56 0.51 0.44 0.39 0.39 0.42 0.40 0.38 0.37 0.40 0.42 0.38 0.36 0.32 0.29 0.31 0.43 0.64 0.89
0.77 0.84 0.92 1.03 1.19 1.33 1.50 1.69 1.73 1.69 1.57 1.40 1.23 1.12 1.07 0.97 0.80 0.73 0.73 0.68 0.64 0.66 0.66 0.68 0.66 0.63 0.59 0.53 0.49 0.46 0.46 0.44 0.40 0.40 0.43 0.45 0.44 0.40 0.40 0.33 0.34 0.46 0.68
0.85 0.91 0.97 1.07 1.19 1.37 1.58 1.71 1.81 1.81 1.73 1.62 1.45 1.27 1.21 1.14 1.00 0.84 0.77 0.74 0.72 0.71 0.67 0.63 0.63 0.65 0.63 0.60 0.57 0.52 0.51 0.51 0.49 0.46 0.49 0.57 0.55 0.48 0.46 0.46 0.40 0.35 0.42
0.90 0.95 0.99 1.04 1.12 1.29 1.45 1.52 1.49 1.59 1.60 1.59 1.56 1.47 1.37 1.31 1.20 1.07 0.93 0.85 0.85 0.80 0.74 0.65 0.60 0.60 0.60 0.57 0.59 0.57 0.52 0.49 0.44 0.41 0.43 0.54 0.65 0.66 0.61 0.61 0.62 0.53 0.43
0.84 0.93 0.99 0.99 1.02 1.07 1.12 1.28 1.35 1.38 1.45 1.49 1.52 1.55 1.52 1.43 1.29 1.19 1.08 0.95 0.85 0.83 0.79 0.74 0.66 0.61 0.57 0.51 0.54 0.60 0.54 0.49 0.45 0.37 0.32 0.38 0.48 0.56 0.58 0.61 0.68 0.71 0.62
0.85 0.90 0.97 0.99 0.98 1.05 1.13 1.30 1.41 1.53 1.55 1.50 1.44 1.45 1.49 1.46 1.37 1.25 1.14 1.06 0.99 0.90 0.84 0.82 0.77 0.70 0.64 0.56 0.50 0.67 0.72 0.54 0.38 0.28 0.26 0.29 0.31 0.35 0.40 0.46 0.54 0.60 0.69
0.84 0.93 1.03 1.09 1.11 1.11 1.17 1.27 1.23 1.21 1.28 1.23 1.24 1.25 1.35 1.46 1.42 1.32 1.29 1.24 1.12 1.01 0.89 0.82 0.83 0.82 0.80 0.75 0.64 0.57 0.59 0.56 0.59 0.42 0.24 0.22 0.21 0.22 0.23 0.28 0.36 0.42 0.52
0.87 0.94 1.09 1.13 1.20 1.23 1.19 1.23 1.22 1.13 1.10 1.18 1.30 1.35 1.32 1.36 1.44 1.37 1.27 1.24 1.19 1.10 1.03 0.96 0.86 0.85 0.87 0.85 0.79 0.68 0.61 0.52 0.51 0.62 0.42 0.26 0.25 0.24 0.23 0.24 0.27 0.32 0.40
0.80 0.93 1.02 1.15 1.21 1.31 1.26 1.23 1.19 1.10 1.04 1.09 1.17 1.33 1.40 1.39 1.41 1.43 1.34 1.27 1.17 1.08 1.06 1.08 1.01 0.91 0.87 0.87 0.84 0.78 0.77 0.75 0.62 0.65 0.59 0.36 0.31 0.30 0.30 0.30 0.30 0.34 0.41